<?xml version="1.0" encoding="utf-8"?>
<gpx xmlns:xsi="http://www.w3.org/2001/XMLSchema-instance" xmlns:xsd="http://www.w3.org/2001/XMLSchema" version="1.1" creator="Shapelink.com" xmlns="http://www.topografix.com/GPX/1/1" xmlns:gpxtpx="http://www.garmin.com/xmlschemas/TrackPointExtension/v1">
  <metadata>
    <name>Kayaking 2.74 km, 2017-07-27</name>
    <desc></desc>
    <author><name>Kim Kronberg</name></author> 
    <time>2017-07-27T12:13:21Z</time>
  </metadata>
  <trk>
    <name>Kayaking 2.74 km, 2017-07-27</name>
    <trkseg>
      <trkpt lat="60.115622231839" lon="21.526860272536">
        <ele>10.2</ele>
        <time>2017-07-27T12:13:21Z</time>
      </trkpt>
      <trkpt lat="60.115611670645" lon="21.526860356355">
        <ele>10.2</ele>
        <time>2017-07-27T12:13:22Z</time>
      </trkpt>
      <trkpt lat="60.115602702012" lon="21.526856249224">
        <ele>10.2</ele>
        <time>2017-07-27T12:13:23Z</time>
      </trkpt>
      <trkpt lat="60.115593817198" lon="21.526854321387">
        <ele>10.4</ele>
        <time>2017-07-27T12:13:24Z</time>
      </trkpt>
      <trkpt lat="60.115583507461" lon="21.526846274763">
        <ele>10.4</ele>
        <time>2017-07-27T12:13:25Z</time>
      </trkpt>
      <trkpt lat="60.115572024258" lon="21.52683562975">
        <ele>10.4</ele>
        <time>2017-07-27T12:13:26Z</time>
      </trkpt>
      <trkpt lat="60.115561965978" lon="21.526820626149">
        <ele>10.4</ele>
        <time>2017-07-27T12:13:27Z</time>
      </trkpt>
      <trkpt lat="60.115556014829" lon="21.526816016104">
        <ele>10.4</ele>
        <time>2017-07-27T12:13:28Z</time>
      </trkpt>
      <trkpt lat="60.115547716748" lon="21.526802018331">
        <ele>10.4</ele>
        <time>2017-07-27T12:13:29Z</time>
      </trkpt>
      <trkpt lat="60.115533970432" lon="21.52679288206">
        <ele>10.4</ele>
        <time>2017-07-27T12:13:30Z</time>
      </trkpt>
      <trkpt lat="60.115528522197" lon="21.526786595635">
        <ele>10.4</ele>
        <time>2017-07-27T12:13:31Z</time>
      </trkpt>
      <trkpt lat="60.115513015682" lon="21.526771592034">
        <ele>10.4</ele>
        <time>2017-07-27T12:13:32Z</time>
      </trkpt>
      <trkpt lat="60.115508321818" lon="21.526764802695">
        <ele>10.4</ele>
        <time>2017-07-27T12:13:33Z</time>
      </trkpt>
      <trkpt lat="60.115492899122" lon="21.526748793266">
        <ele>10.4</ele>
        <time>2017-07-27T12:13:34Z</time>
      </trkpt>
      <trkpt lat="60.11548468486" lon="21.526736136597">
        <ele>10.4</ele>
        <time>2017-07-27T12:13:35Z</time>
      </trkpt>
      <trkpt lat="60.11547546477" lon="21.526719037521">
        <ele>10.4</ele>
        <time>2017-07-27T12:13:36Z</time>
      </trkpt>
      <trkpt lat="60.115469429802" lon="21.526702022264">
        <ele>10.4</ele>
        <time>2017-07-27T12:13:37Z</time>
      </trkpt>
      <trkpt lat="60.115457778961" lon="21.526692383079">
        <ele>10.4</ele>
        <time>2017-07-27T12:13:38Z</time>
      </trkpt>
      <trkpt lat="60.115453252735" lon="21.526666566827">
        <ele>10.4</ele>
        <time>2017-07-27T12:13:39Z</time>
      </trkpt>
      <trkpt lat="60.11544445174" lon="21.526655586538">
        <ele>10.4</ele>
        <time>2017-07-27T12:13:40Z</time>
      </trkpt>
      <trkpt lat="60.115436488935" lon="21.526629770286">
        <ele>10.4</ele>
        <time>2017-07-27T12:13:41Z</time>
      </trkpt>
      <trkpt lat="60.115427855578" lon="21.526617281255">
        <ele>10.4</ele>
        <time>2017-07-27T12:13:42Z</time>
      </trkpt>
      <trkpt lat="60.11541679147" lon="21.5266051275">
        <ele>10.4</ele>
        <time>2017-07-27T12:13:43Z</time>
      </trkpt>
      <trkpt lat="60.115411594692" lon="21.526589369528">
        <ele>10.4</ele>
        <time>2017-07-27T12:13:44Z</time>
      </trkpt>
      <trkpt lat="60.115401787869" lon="21.526567744226">
        <ele>10.4</ele>
        <time>2017-07-27T12:13:45Z</time>
      </trkpt>
      <trkpt lat="60.115397010186" lon="21.526545113096">
        <ele>10.4</ele>
        <time>2017-07-27T12:13:46Z</time>
      </trkpt>
      <trkpt lat="60.115388376829" lon="21.526544945458">
        <ele>10.4</ele>
        <time>2017-07-27T12:13:47Z</time>
      </trkpt>
      <trkpt lat="60.115378150911" lon="21.526515189713">
        <ele>10.4</ele>
        <time>2017-07-27T12:13:48Z</time>
      </trkpt>
      <trkpt lat="60.115368595545" lon="21.526510747306">
        <ele>10.4</ele>
        <time>2017-07-27T12:13:49Z</time>
      </trkpt>
      <trkpt lat="60.115356777066" lon="21.526488116176">
        <ele>10.4</ele>
        <time>2017-07-27T12:13:50Z</time>
      </trkpt>
      <trkpt lat="60.115348143709" lon="21.526480823923">
        <ele>10.4</ele>
        <time>2017-07-27T12:13:51Z</time>
      </trkpt>
      <trkpt lat="60.115339258895" lon="21.526476297697">
        <ele>10.4</ele>
        <time>2017-07-27T12:13:52Z</time>
      </trkpt>
      <trkpt lat="60.11532794333" lon="21.52646347339">
        <ele>10.4</ele>
        <time>2017-07-27T12:13:53Z</time>
      </trkpt>
      <trkpt lat="60.115319309973" lon="21.526456348775">
        <ele>10.4</ele>
        <time>2017-07-27T12:13:54Z</time>
      </trkpt>
      <trkpt lat="60.115302127078" lon="21.526441931907">
        <ele>10.4</ele>
        <time>2017-07-27T12:13:55Z</time>
      </trkpt>
      <trkpt lat="60.115295756834" lon="21.526436818948">
        <ele>10.4</ele>
        <time>2017-07-27T12:13:56Z</time>
      </trkpt>
      <trkpt lat="60.115282010518" lon="21.526418797863">
        <ele>10.4</ele>
        <time>2017-07-27T12:13:57Z</time>
      </trkpt>
      <trkpt lat="60.11526927003" lon="21.526400190045">
        <ele>10.4</ele>
        <time>2017-07-27T12:13:58Z</time>
      </trkpt>
      <trkpt lat="60.115259044112" lon="21.526402536977">
        <ele>10.4</ele>
        <time>2017-07-27T12:13:59Z</time>
      </trkpt>
      <trkpt lat="60.115244878701" lon="21.526377642734">
        <ele>10.4</ele>
        <time>2017-07-27T12:14:00Z</time>
      </trkpt>
      <trkpt lat="60.115235910068" lon="21.526376217811">
        <ele>10.4</ele>
        <time>2017-07-27T12:14:01Z</time>
      </trkpt>
      <trkpt lat="60.115223588675" lon="21.526370182843">
        <ele>10.4</ele>
        <time>2017-07-27T12:14:02Z</time>
      </trkpt>
      <trkpt lat="60.115216715517" lon="21.526359034916">
        <ele>10.4</ele>
        <time>2017-07-27T12:14:03Z</time>
      </trkpt>
      <trkpt lat="60.115199364984" lon="21.526350988292">
        <ele>10.4</ele>
        <time>2017-07-27T12:14:04Z</time>
      </trkpt>
      <trkpt lat="60.11519215655" lon="21.526342103478">
        <ele>10.4</ele>
        <time>2017-07-27T12:14:05Z</time>
      </trkpt>
      <trkpt lat="60.115172626723" lon="21.526337828709">
        <ele>10.4</ele>
        <time>2017-07-27T12:14:06Z</time>
      </trkpt>
      <trkpt lat="60.115165669746" lon="21.526329698266">
        <ele>10.4</ele>
        <time>2017-07-27T12:14:07Z</time>
      </trkpt>
      <trkpt lat="60.115145134091" lon="21.526325255859">
        <ele>10.4</ele>
        <time>2017-07-27T12:14:08Z</time>
      </trkpt>
      <trkpt lat="60.115138680028" lon="21.526319723805">
        <ele>10.4</ele>
        <time>2017-07-27T12:14:09Z</time>
      </trkpt>
      <trkpt lat="60.11511839583" lon="21.526311593362">
        <ele>10.4</ele>
        <time>2017-07-27T12:14:10Z</time>
      </trkpt>
      <trkpt lat="60.1151125285" lon="21.526306899498">
        <ele>10.4</ele>
        <time>2017-07-27T12:14:11Z</time>
      </trkpt>
      <trkpt lat="60.115092831035" lon="21.526296925037">
        <ele>10.4</ele>
        <time>2017-07-27T12:14:12Z</time>
      </trkpt>
      <trkpt lat="60.115085538782" lon="21.526292566449">
        <ele>10.4</ele>
        <time>2017-07-27T12:14:13Z</time>
      </trkpt>
      <trkpt lat="60.115069361715" lon="21.52628158616">
        <ele>10.4</ele>
        <time>2017-07-27T12:14:14Z</time>
      </trkpt>
      <trkpt lat="60.115058129969" lon="21.526273623355">
        <ele>10.4</ele>
        <time>2017-07-27T12:14:15Z</time>
      </trkpt>
      <trkpt lat="60.115044970386" lon="21.526258284478">
        <ele>10.4</ele>
        <time>2017-07-27T12:14:16Z</time>
      </trkpt>
      <trkpt lat="60.115038348685" lon="21.526243364696">
        <ele>10.4</ele>
        <time>2017-07-27T12:14:17Z</time>
      </trkpt>
      <trkpt lat="60.115025775835" lon="21.526227606724">
        <ele>10.4</ele>
        <time>2017-07-27T12:14:18Z</time>
      </trkpt>
      <trkpt lat="60.115018483582" lon="21.526216542616">
        <ele>10.4</ele>
        <time>2017-07-27T12:14:19Z</time>
      </trkpt>
      <trkpt lat="60.115005156361" lon="21.52619944354">
        <ele>10.4</ele>
        <time>2017-07-27T12:14:20Z</time>
      </trkpt>
      <trkpt lat="60.114995768633" lon="21.526195671685">
        <ele>10.4</ele>
        <time>2017-07-27T12:14:21Z</time>
      </trkpt>
      <trkpt lat="60.114985542715" lon="21.526189720536">
        <ele>10.4</ele>
        <time>2017-07-27T12:14:22Z</time>
      </trkpt>
      <trkpt lat="60.114975232978" lon="21.526176477134">
        <ele>10.4</ele>
        <time>2017-07-27T12:14:23Z</time>
      </trkpt>
      <trkpt lat="60.114964085051" lon="21.526174633116">
        <ele>10.4</ele>
        <time>2017-07-27T12:14:24Z</time>
      </trkpt>
      <trkpt lat="60.114952182753" lon="21.526163233732">
        <ele>10.4</ele>
        <time>2017-07-27T12:14:25Z</time>
      </trkpt>
      <trkpt lat="60.114936760057" lon="21.526162060266">
        <ele>10.4</ele>
        <time>2017-07-27T12:14:26Z</time>
      </trkpt>
      <trkpt lat="60.114927204691" lon="21.526156192936">
        <ele>10.4</ele>
        <time>2017-07-27T12:14:27Z</time>
      </trkpt>
      <trkpt lat="60.114911446719" lon="21.526156779669">
        <ele>10.4</ele>
        <time>2017-07-27T12:14:28Z</time>
      </trkpt>
      <trkpt lat="60.114903986828" lon="21.526154432737">
        <ele>10.4</ele>
        <time>2017-07-27T12:14:29Z</time>
      </trkpt>
      <trkpt lat="60.114885043734" lon="21.52615753404">
        <ele>10.4</ele>
        <time>2017-07-27T12:14:30Z</time>
      </trkpt>
      <trkpt lat="60.11487532073" lon="21.526156528212">
        <ele>10.4</ele>
        <time>2017-07-27T12:14:31Z</time>
      </trkpt>
      <trkpt lat="60.114856545274" lon="21.526161557352">
        <ele>10.4</ele>
        <time>2017-07-27T12:14:32Z</time>
      </trkpt>
      <trkpt lat="60.114848750107" lon="21.526160719162">
        <ele>10.4</ele>
        <time>2017-07-27T12:14:33Z</time>
      </trkpt>
      <trkpt lat="60.114829471737" lon="21.526163149913">
        <ele>10.4</ele>
        <time>2017-07-27T12:14:34Z</time>
      </trkpt>
      <trkpt lat="60.114821844208" lon="21.526161641171">
        <ele>10.4</ele>
        <time>2017-07-27T12:14:35Z</time>
      </trkpt>
      <trkpt lat="60.114801643829" lon="21.526160467705">
        <ele>10.4</ele>
        <time>2017-07-27T12:14:36Z</time>
      </trkpt>
      <trkpt lat="60.114794938309" lon="21.526159294239">
        <ele>10.4</ele>
        <time>2017-07-27T12:14:37Z</time>
      </trkpt>
      <trkpt lat="60.114775911396" lon="21.526155941479">
        <ele>10.4</ele>
        <time>2017-07-27T12:14:38Z</time>
      </trkpt>
      <trkpt lat="60.114768954419" lon="21.526154684194">
        <ele>10.4</ele>
        <time>2017-07-27T12:14:39Z</time>
      </trkpt>
      <trkpt lat="60.114749173135" lon="21.52614999033">
        <ele>10.4</ele>
        <time>2017-07-27T12:14:40Z</time>
      </trkpt>
      <trkpt lat="60.114741880882" lon="21.52614915214">
        <ele>10.4</ele>
        <time>2017-07-27T12:14:41Z</time>
      </trkpt>
      <trkpt lat="60.114723189245" lon="21.526141440792">
        <ele>10.4</ele>
        <time>2017-07-27T12:14:42Z</time>
      </trkpt>
      <trkpt lat="60.114714220612" lon="21.526140015869">
        <ele>10.4</ele>
        <time>2017-07-27T12:14:43Z</time>
      </trkpt>
      <trkpt lat="60.114700474296" lon="21.526128616485">
        <ele>10.4</ele>
        <time>2017-07-27T12:14:44Z</time>
      </trkpt>
      <trkpt lat="60.114687230894" lon="21.526123922621">
        <ele>10.4</ele>
        <time>2017-07-27T12:14:45Z</time>
      </trkpt>
      <trkpt lat="60.114676082967" lon="21.526112858513">
        <ele>10.4</ele>
        <time>2017-07-27T12:14:46Z</time>
      </trkpt>
      <trkpt lat="60.114667030515" lon="21.526103806061">
        <ele>10.4</ele>
        <time>2017-07-27T12:14:47Z</time>
      </trkpt>
      <trkpt lat="60.114653116561" lon="21.526083689501">
        <ele>10.4</ele>
        <time>2017-07-27T12:14:48Z</time>
      </trkpt>
      <trkpt lat="60.114643309738" lon="21.526085533519">
        <ele>10.4</ele>
        <time>2017-07-27T12:14:49Z</time>
      </trkpt>
      <trkpt lat="60.114629563422" lon="21.526079498551">
        <ele>10.4</ele>
        <time>2017-07-27T12:14:50Z</time>
      </trkpt>
      <trkpt lat="60.114621600617" lon="21.526067680072">
        <ele>10.4</ele>
        <time>2017-07-27T12:14:51Z</time>
      </trkpt>
      <trkpt lat="60.114605088274" lon="21.526060304">
        <ele>10.4</ele>
        <time>2017-07-27T12:14:52Z</time>
      </trkpt>
      <trkpt lat="60.114600226772" lon="21.526053682299">
        <ele>10.4</ele>
        <time>2017-07-27T12:14:53Z</time>
      </trkpt>
      <trkpt lat="60.114588743569" lon="21.526040941811">
        <ele>10.4</ele>
        <time>2017-07-27T12:14:54Z</time>
      </trkpt>
      <trkpt lat="60.114575919262" lon="21.526021831079">
        <ele>10.4</ele>
        <time>2017-07-27T12:14:55Z</time>
      </trkpt>
      <trkpt lat="60.114565274249" lon="21.526026105848">
        <ele>10.4</ele>
        <time>2017-07-27T12:14:56Z</time>
      </trkpt>
      <trkpt lat="60.114553539589" lon="21.526000624872">
        <ele>10.4</ele>
        <time>2017-07-27T12:14:57Z</time>
      </trkpt>
      <trkpt lat="60.114542056386" lon="21.526006156926">
        <ele>10.4</ele>
        <time>2017-07-27T12:14:58Z</time>
      </trkpt>
      <trkpt lat="60.114530237907" lon="21.526003642356">
        <ele>10.4</ele>
        <time>2017-07-27T12:14:59Z</time>
      </trkpt>
      <trkpt lat="60.114521520731" lon="21.525996182465">
        <ele>10.4</ele>
        <time>2017-07-27T12:15:00Z</time>
      </trkpt>
      <trkpt lat="60.11450651713" lon="21.525996350103">
        <ele>10.4</ele>
        <time>2017-07-27T12:15:01Z</time>
      </trkpt>
      <trkpt lat="60.11449645885" lon="21.525992997343">
        <ele>10.4</ele>
        <time>2017-07-27T12:15:02Z</time>
      </trkpt>
      <trkpt lat="60.114482461077" lon="21.525995931008">
        <ele>10.4</ele>
        <time>2017-07-27T12:15:03Z</time>
      </trkpt>
      <trkpt lat="60.114470810236" lon="21.525996098646">
        <ele>10.4</ele>
        <time>2017-07-27T12:15:04Z</time>
      </trkpt>
      <trkpt lat="60.114460081404" lon="21.526000541053">
        <ele>10.4</ele>
        <time>2017-07-27T12:15:05Z</time>
      </trkpt>
      <trkpt lat="60.11444365288" lon="21.52600749803">
        <ele>10.4</ele>
        <time>2017-07-27T12:15:06Z</time>
      </trkpt>
      <trkpt lat="60.114434516609" lon="21.526010264057">
        <ele>10.4</ele>
        <time>2017-07-27T12:15:07Z</time>
      </trkpt>
      <trkpt lat="60.114413561859" lon="21.526019735604">
        <ele>10.4</ele>
        <time>2017-07-27T12:15:08Z</time>
      </trkpt>
      <trkpt lat="60.114407359253" lon="21.526023088364">
        <ele>10.4</ele>
        <time>2017-07-27T12:15:09Z</time>
      </trkpt>
      <trkpt lat="60.114386069227" lon="21.526029793884">
        <ele>10.4</ele>
        <time>2017-07-27T12:15:10Z</time>
      </trkpt>
      <trkpt lat="60.114380620992" lon="21.526032895187">
        <ele>10.4</ele>
        <time>2017-07-27T12:15:11Z</time>
      </trkpt>
      <trkpt lat="60.114359079509" lon="21.526037756689">
        <ele>10.4</ele>
        <time>2017-07-27T12:15:12Z</time>
      </trkpt>
      <trkpt lat="60.114352038713" lon="21.526039935983">
        <ele>10.4</ele>
        <time>2017-07-27T12:15:13Z</time>
      </trkpt>
      <trkpt lat="60.114333095619" lon="21.526042785829">
        <ele>10.4</ele>
        <time>2017-07-27T12:15:14Z</time>
      </trkpt>
      <trkpt lat="60.114324294624" lon="21.526042534372">
        <ele>10.4</ele>
        <time>2017-07-27T12:15:15Z</time>
      </trkpt>
      <trkpt lat="60.11430535153" lon="21.526042450553">
        <ele>10.4</ele>
        <time>2017-07-27T12:15:16Z</time>
      </trkpt>
      <trkpt lat="60.114297891639" lon="21.526040271259">
        <ele>10.4</ele>
        <time>2017-07-27T12:15:17Z</time>
      </trkpt>
      <trkpt lat="60.114285570246" lon="21.526031470264">
        <ele>10.4</ele>
        <time>2017-07-27T12:15:18Z</time>
      </trkpt>
      <trkpt lat="60.114272997396" lon="21.52601923269">
        <ele>10.4</ele>
        <time>2017-07-27T12:15:19Z</time>
      </trkpt>
      <trkpt lat="60.114260340727" lon="21.526025183839">
        <ele>10.4</ele>
        <time>2017-07-27T12:15:20Z</time>
      </trkpt>
      <trkpt lat="60.114250952999" lon="21.5260016307">
        <ele>10.4</ele>
        <time>2017-07-27T12:15:21Z</time>
      </trkpt>
      <trkpt lat="60.114238715425" lon="21.526002385071">
        <ele>10.4</ele>
        <time>2017-07-27T12:15:22Z</time>
      </trkpt>
      <trkpt lat="60.114224214738" lon="21.525997104474">
        <ele>10.4</ele>
        <time>2017-07-27T12:15:23Z</time>
      </trkpt>
      <trkpt lat="60.114218934141" lon="21.525992745886">
        <ele>10.4</ele>
        <time>2017-07-27T12:15:24Z</time>
      </trkpt>
      <trkpt lat="60.114199236676" lon="21.525985285995">
        <ele>10.4</ele>
        <time>2017-07-27T12:15:25Z</time>
      </trkpt>
      <trkpt lat="60.114192447337" lon="21.52597899957">
        <ele>10.4</ele>
        <time>2017-07-27T12:15:26Z</time>
      </trkpt>
      <trkpt lat="60.114175683537" lon="21.525974054249">
        <ele>10.4</ele>
        <time>2017-07-27T12:15:27Z</time>
      </trkpt>
      <trkpt lat="60.11416788837" lon="21.525967013453">
        <ele>10.4</ele>
        <time>2017-07-27T12:15:28Z</time>
      </trkpt>
      <trkpt lat="60.11415363914" lon="21.525961146123">
        <ele>10.4</ele>
        <time>2017-07-27T12:15:29Z</time>
      </trkpt>
      <trkpt lat="60.11414274267" lon="21.525950082015">
        <ele>10.4</ele>
        <time>2017-07-27T12:15:30Z</time>
      </trkpt>
      <trkpt lat="60.114132768209" lon="21.525940610468">
        <ele>10.4</ele>
        <time>2017-07-27T12:15:31Z</time>
      </trkpt>
      <trkpt lat="60.114122039377" lon="21.525920829184">
        <ele>10.4</ele>
        <time>2017-07-27T12:15:32Z</time>
      </trkpt>
      <trkpt lat="60.114112735468" lon="21.525919990994">
        <ele>10.4</ele>
        <time>2017-07-27T12:15:33Z</time>
      </trkpt>
      <trkpt lat="60.114100916989" lon="21.525902305185">
        <ele>10.4</ele>
        <time>2017-07-27T12:15:34Z</time>
      </trkpt>
      <trkpt lat="60.114098905333" lon="21.525896354036">
        <ele>10.4</ele>
        <time>2017-07-27T12:15:35Z</time>
      </trkpt>
      <trkpt lat="60.114083063542" lon="21.525877410942">
        <ele>10.4</ele>
        <time>2017-07-27T12:15:36Z</time>
      </trkpt>
      <trkpt lat="60.114068562855" lon="21.525867436481">
        <ele>10.4</ele>
        <time>2017-07-27T12:15:37Z</time>
      </trkpt>
      <trkpt lat="60.114064539543" lon="21.525859054581">
        <ele>10.4</ele>
        <time>2017-07-27T12:15:38Z</time>
      </trkpt>
      <trkpt lat="60.114047440467" lon="21.525845559722">
        <ele>10.4</ele>
        <time>2017-07-27T12:15:39Z</time>
      </trkpt>
      <trkpt lat="60.114041573137" lon="21.525836088175">
        <ele>10.4</ele>
        <time>2017-07-27T12:15:40Z</time>
      </trkpt>
      <trkpt lat="60.11403042521" lon="21.525828376827">
        <ele>10.4</ele>
        <time>2017-07-27T12:15:41Z</time>
      </trkpt>
      <trkpt lat="60.114018858188" lon="21.525812954131">
        <ele>10.4</ele>
        <time>2017-07-27T12:15:42Z</time>
      </trkpt>
      <trkpt lat="60.114003184035" lon="21.525800800376">
        <ele>10.4</ele>
        <time>2017-07-27T12:15:43Z</time>
      </trkpt>
      <trkpt lat="60.113997232886" lon="21.525789317173">
        <ele>10.4</ele>
        <time>2017-07-27T12:15:44Z</time>
      </trkpt>
      <trkpt lat="60.113981223457" lon="21.525772385735">
        <ele>10.4</ele>
        <time>2017-07-27T12:15:45Z</time>
      </trkpt>
      <trkpt lat="60.113975188489" lon="21.52576107017">
        <ele>10.4</ele>
        <time>2017-07-27T12:15:46Z</time>
      </trkpt>
      <trkpt lat="60.11396588458" lon="21.525747491492">
        <ele>10.4</ele>
        <time>2017-07-27T12:15:47Z</time>
      </trkpt>
      <trkpt lat="60.113956077757" lon="21.525727207294">
        <ele>10.4</ele>
        <time>2017-07-27T12:15:48Z</time>
      </trkpt>
      <trkpt lat="60.113949372237" lon="21.52570910239">
        <ele>10.4</ele>
        <time>2017-07-27T12:15:49Z</time>
      </trkpt>
      <trkpt lat="60.113938978681" lon="21.525679598102">
        <ele>10.4</ele>
        <time>2017-07-27T12:15:50Z</time>
      </trkpt>
      <trkpt lat="60.113933949541" lon="21.525666438519">
        <ele>10.4</ele>
        <time>2017-07-27T12:15:51Z</time>
      </trkpt>
      <trkpt lat="60.113926238193" lon="21.52563869443">
        <ele>10.4</ele>
        <time>2017-07-27T12:15:52Z</time>
      </trkpt>
      <trkpt lat="60.113924310356" lon="21.525619332241">
        <ele>10.4</ele>
        <time>2017-07-27T12:15:53Z</time>
      </trkpt>
      <trkpt lat="60.113917018103" lon="21.52559259398">
        <ele>10.4</ele>
        <time>2017-07-27T12:15:54Z</time>
      </trkpt>
      <trkpt lat="60.113912072782" lon="21.525574069981">
        <ele>10.4</ele>
        <time>2017-07-27T12:15:55Z</time>
      </trkpt>
      <trkpt lat="60.113901763045" lon="21.525546744987">
        <ele>10.4</ele>
        <time>2017-07-27T12:15:56Z</time>
      </trkpt>
      <trkpt lat="60.113899164656" lon="21.525528723902">
        <ele>10.4</ele>
        <time>2017-07-27T12:15:57Z</time>
      </trkpt>
      <trkpt lat="60.1138887711" lon="21.5255070986">
        <ele>10.4</ele>
        <time>2017-07-27T12:15:58Z</time>
      </trkpt>
      <trkpt lat="60.113886172711" lon="21.525484132194">
        <ele>10.4</ele>
        <time>2017-07-27T12:15:59Z</time>
      </trkpt>
      <trkpt lat="60.113873096947" lon="21.525466697842">
        <ele>10.4</ele>
        <time>2017-07-27T12:16:00Z</time>
      </trkpt>
      <trkpt lat="60.11387033092" lon="21.525442390332">
        <ele>10.4</ele>
        <time>2017-07-27T12:16:01Z</time>
      </trkpt>
      <trkpt lat="60.113857674251" lon="21.525435349536">
        <ele>10.4</ele>
        <time>2017-07-27T12:16:02Z</time>
      </trkpt>
      <trkpt lat="60.113846693962" lon="21.525422860505">
        <ele>10.4</ele>
        <time>2017-07-27T12:16:03Z</time>
      </trkpt>
      <trkpt lat="60.113842419193" lon="21.525414730062">
        <ele>10.4</ele>
        <time>2017-07-27T12:16:04Z</time>
      </trkpt>
      <trkpt lat="60.113828253782" lon="21.525396876615">
        <ele>10.4</ele>
        <time>2017-07-27T12:16:05Z</time>
      </trkpt>
      <trkpt lat="60.113822386452" lon="21.525389332905">
        <ele>10.4</ele>
        <time>2017-07-27T12:16:06Z</time>
      </trkpt>
      <trkpt lat="60.11380830486" lon="21.525371647096">
        <ele>10.4</ele>
        <time>2017-07-27T12:16:07Z</time>
      </trkpt>
      <trkpt lat="60.113803191901" lon="21.525364773938">
        <ele>10.4</ele>
        <time>2017-07-27T12:16:08Z</time>
      </trkpt>
      <trkpt lat="60.113790535232" lon="21.525346752853">
        <ele>10.4</ele>
        <time>2017-07-27T12:16:09Z</time>
      </trkpt>
      <trkpt lat="60.113778800572" lon="21.525330408148">
        <ele>10.4</ele>
        <time>2017-07-27T12:16:10Z</time>
      </trkpt>
      <trkpt lat="60.113775699269" lon="21.525330743424">
        <ele>10.4</ele>
        <time>2017-07-27T12:16:11Z</time>
      </trkpt>
      <trkpt lat="60.113764635161" lon="21.525319092583">
        <ele>10.4</ele>
        <time>2017-07-27T12:16:12Z</time>
      </trkpt>
      <trkpt lat="60.1137546607" lon="21.525313225253">
        <ele>10.4</ele>
        <time>2017-07-27T12:16:13Z</time>
      </trkpt>
      <trkpt lat="60.113745189153" lon="21.525305178629">
        <ele>10.4</ele>
        <time>2017-07-27T12:16:14Z</time>
      </trkpt>
      <trkpt lat="60.113731275199" lon="21.525299311299">
        <ele>10.4</ele>
        <time>2017-07-27T12:16:15Z</time>
      </trkpt>
      <trkpt lat="60.113723060937" lon="21.525291767589">
        <ele>10.4</ele>
        <time>2017-07-27T12:16:16Z</time>
      </trkpt>
      <trkpt lat="60.113708308793" lon="21.525286822268">
        <ele>10.4</ele>
        <time>2017-07-27T12:16:17Z</time>
      </trkpt>
      <trkpt lat="60.113700848902" lon="21.525280284386">
        <ele>10.4</ele>
        <time>2017-07-27T12:16:18Z</time>
      </trkpt>
      <trkpt lat="60.11368592912" lon="21.525275087608">
        <ele>10.4</ele>
        <time>2017-07-27T12:16:19Z</time>
      </trkpt>
      <trkpt lat="60.113676960487" lon="21.525267711536">
        <ele>10.4</ele>
        <time>2017-07-27T12:16:20Z</time>
      </trkpt>
      <trkpt lat="60.113660448144" lon="21.525263520586">
        <ele>10.4</ele>
        <time>2017-07-27T12:16:21Z</time>
      </trkpt>
      <trkpt lat="60.113653323529" lon="21.525256982704">
        <ele>10.4</ele>
        <time>2017-07-27T12:16:22Z</time>
      </trkpt>
      <trkpt lat="60.113636559729" lon="21.525256563609">
        <ele>10.4</ele>
        <time>2017-07-27T12:16:23Z</time>
      </trkpt>
      <trkpt lat="60.113628345467" lon="21.525251702107">
        <ele>10.4</ele>
        <time>2017-07-27T12:16:24Z</time>
      </trkpt>
      <trkpt lat="60.113610072925" lon="21.525252205021">
        <ele>10.4</ele>
        <time>2017-07-27T12:16:25Z</time>
      </trkpt>
      <trkpt lat="60.113600182283" lon="21.525247846433">
        <ele>10.4</ele>
        <time>2017-07-27T12:16:26Z</time>
      </trkpt>
      <trkpt lat="60.113581742103" lon="21.525248852261">
        <ele>10.4</ele>
        <time>2017-07-27T12:16:27Z</time>
      </trkpt>
      <trkpt lat="60.113573276384" lon="21.525244074578">
        <ele>10.4</ele>
        <time>2017-07-27T12:16:28Z</time>
      </trkpt>
      <trkpt lat="60.113556596403" lon="21.525245415682">
        <ele>10.4</ele>
        <time>2017-07-27T12:16:29Z</time>
      </trkpt>
      <trkpt lat="60.113545029381" lon="21.525240805637">
        <ele>10.4</ele>
        <time>2017-07-27T12:16:30Z</time>
      </trkpt>
      <trkpt lat="60.11352583483" lon="21.525243236388">
        <ele>10.4</ele>
        <time>2017-07-27T12:16:31Z</time>
      </trkpt>
      <trkpt lat="60.113517201473" lon="21.525240721818">
        <ele>10.4</ele>
        <time>2017-07-27T12:16:32Z</time>
      </trkpt>
      <trkpt lat="60.113495492352" lon="21.525241811465">
        <ele>10.4</ele>
        <time>2017-07-27T12:16:33Z</time>
      </trkpt>
      <trkpt lat="60.113487110452" lon="21.525241643827">
        <ele>10.4</ele>
        <time>2017-07-27T12:16:34Z</time>
      </trkpt>
      <trkpt lat="60.113466993892" lon="21.525240051266">
        <ele>10.4</ele>
        <time>2017-07-27T12:16:35Z</time>
      </trkpt>
      <trkpt lat="60.113457773802" lon="21.525238123429">
        <ele>10.4</ele>
        <time>2017-07-27T12:16:36Z</time>
      </trkpt>
      <trkpt lat="60.113438998346" lon="21.52523301047">
        <ele>10.4</ele>
        <time>2017-07-27T12:16:37Z</time>
      </trkpt>
      <trkpt lat="60.113429610618" lon="21.525232088461">
        <ele>10.4</ele>
        <time>2017-07-27T12:16:38Z</time>
      </trkpt>
      <trkpt lat="60.113411924809" lon="21.525223874199">
        <ele>10.4</ele>
        <time>2017-07-27T12:16:39Z</time>
      </trkpt>
      <trkpt lat="60.113401363615" lon="21.52522127581">
        <ele>10.4</ele>
        <time>2017-07-27T12:16:40Z</time>
      </trkpt>
      <trkpt lat="60.113385186548" lon="21.525209960245">
        <ele>10.4</ele>
        <time>2017-07-27T12:16:41Z</time>
      </trkpt>
      <trkpt lat="60.11337412244" lon="21.525200656336">
        <ele>10.4</ele>
        <time>2017-07-27T12:16:42Z</time>
      </trkpt>
      <trkpt lat="60.113359118839" lon="21.525190514237">
        <ele>10.4</ele>
        <time>2017-07-27T12:16:43Z</time>
      </trkpt>
      <trkpt lat="60.11334813855" lon="21.525184646907">
        <ele>10.4</ele>
        <time>2017-07-27T12:16:44Z</time>
      </trkpt>
      <trkpt lat="60.113337912632" lon="21.525180120681">
        <ele>10.4</ele>
        <time>2017-07-27T12:16:45Z</time>
      </trkpt>
      <trkpt lat="60.113323579583" lon="21.525167799288">
        <ele>10.4</ele>
        <time>2017-07-27T12:16:46Z</time>
      </trkpt>
      <trkpt lat="60.113312012561" lon="21.525162434872">
        <ele>10.4</ele>
        <time>2017-07-27T12:16:47Z</time>
      </trkpt>
      <trkpt lat="60.113299272073" lon="21.525148688556">
        <ele>10.4</ele>
        <time>2017-07-27T12:16:48Z</time>
      </trkpt>
      <trkpt lat="60.113289968164" lon="21.525136199525">
        <ele>10.4</ele>
        <time>2017-07-27T12:16:49Z</time>
      </trkpt>
      <trkpt lat="60.113276473305" lon="21.525115160956">
        <ele>10.4</ele>
        <time>2017-07-27T12:16:50Z</time>
      </trkpt>
      <trkpt lat="60.113267420853" lon="21.525107533427">
        <ele>10.4</ele>
        <time>2017-07-27T12:16:51Z</time>
      </trkpt>
      <trkpt lat="60.113253842175" lon="21.525089428523">
        <ele>10.4</ele>
        <time>2017-07-27T12:16:52Z</time>
      </trkpt>
      <trkpt lat="60.11324671756" lon="21.525077190949">
        <ele>10.4</ele>
        <time>2017-07-27T12:16:53Z</time>
      </trkpt>
      <trkpt lat="60.113235653452" lon="21.525065540108">
        <ele>10.4</ele>
        <time>2017-07-27T12:16:54Z</time>
      </trkpt>
      <trkpt lat="60.113222996783" lon="21.525059086045">
        <ele>10.4</ele>
        <time>2017-07-27T12:16:55Z</time>
      </trkpt>
      <trkpt lat="60.113213525236" lon="21.525053470172">
        <ele>10.4</ele>
        <time>2017-07-27T12:16:56Z</time>
      </trkpt>
      <trkpt lat="60.113202712585" lon="21.525044920634">
        <ele>10.4</ele>
        <time>2017-07-27T12:16:57Z</time>
      </trkpt>
      <trkpt lat="60.113189636821" lon="21.525041986969">
        <ele>10.4</ele>
        <time>2017-07-27T12:16:58Z</time>
      </trkpt>
      <trkpt lat="60.113179913817" lon="21.525036203458">
        <ele>10.4</ele>
        <time>2017-07-27T12:16:59Z</time>
      </trkpt>
      <trkpt lat="60.113165329311" lon="21.525033269793">
        <ele>10.4</ele>
        <time>2017-07-27T12:17:00Z</time>
      </trkpt>
      <trkpt lat="60.11315284028" lon="21.525028240653">
        <ele>10.4</ele>
        <time>2017-07-27T12:17:01Z</time>
      </trkpt>
      <trkpt lat="60.113139680697" lon="21.525026648092">
        <ele>10.4</ele>
        <time>2017-07-27T12:17:02Z</time>
      </trkpt>
      <trkpt lat="60.113125766743" lon="21.525021032219">
        <ele>10.4</ele>
        <time>2017-07-27T12:17:03Z</time>
      </trkpt>
      <trkpt lat="60.11311512173" lon="21.525018182373">
        <ele>10.4</ele>
        <time>2017-07-27T12:17:04Z</time>
      </trkpt>
      <trkpt lat="60.1131008725" lon="21.525008878464">
        <ele>10.4</ele>
        <time>2017-07-27T12:17:05Z</time>
      </trkpt>
      <trkpt lat="60.113090143668" lon="21.524999826012">
        <ele>10.4</ele>
        <time>2017-07-27T12:17:06Z</time>
      </trkpt>
      <trkpt lat="60.113075140067" lon="21.524982726936">
        <ele>10.4</ele>
        <time>2017-07-27T12:17:07Z</time>
      </trkpt>
      <trkpt lat="60.113066003796" lon="21.524980380004">
        <ele>10.4</ele>
        <time>2017-07-27T12:17:08Z</time>
      </trkpt>
      <trkpt lat="60.113053179489" lon="21.524966046955">
        <ele>10.4</ele>
        <time>2017-07-27T12:17:09Z</time>
      </trkpt>
      <trkpt lat="60.113044881408" lon="21.524957581236">
        <ele>10.4</ele>
        <time>2017-07-27T12:17:10Z</time>
      </trkpt>
      <trkpt lat="60.113030632178" lon="21.524947690594">
        <ele>10.4</ele>
        <time>2017-07-27T12:17:11Z</time>
      </trkpt>
      <trkpt lat="60.113016466767" lon="21.524945762757">
        <ele>10.4</ele>
        <time>2017-07-27T12:17:12Z</time>
      </trkpt>
      <trkpt lat="60.113009342152" lon="21.524941571807">
        <ele>10.4</ele>
        <time>2017-07-27T12:17:13Z</time>
      </trkpt>
      <trkpt lat="60.112994170913" lon="21.524933860459">
        <ele>10.4</ele>
        <time>2017-07-27T12:17:14Z</time>
      </trkpt>
      <trkpt lat="60.11298520228" lon="21.524931597346">
        <ele>10.4</ele>
        <time>2017-07-27T12:17:15Z</time>
      </trkpt>
      <trkpt lat="60.112966929738" lon="21.52492790931">
        <ele>10.4</ele>
        <time>2017-07-27T12:17:16Z</time>
      </trkpt>
      <trkpt lat="60.112961816779" lon="21.524925981473">
        <ele>10.4</ele>
        <time>2017-07-27T12:17:17Z</time>
      </trkpt>
      <trkpt lat="60.112939604744" lon="21.52492204198">
        <ele>10.4</ele>
        <time>2017-07-27T12:17:18Z</time>
      </trkpt>
      <trkpt lat="60.112933066862" lon="21.524920030324">
        <ele>10.4</ele>
        <time>2017-07-27T12:17:19Z</time>
      </trkpt>
      <trkpt lat="60.112912531207" lon="21.524919443591">
        <ele>10.4</ele>
        <time>2017-07-27T12:17:20Z</time>
      </trkpt>
      <trkpt lat="60.112904652221" lon="21.524915587917">
        <ele>10.4</ele>
        <time>2017-07-27T12:17:21Z</time>
      </trkpt>
      <trkpt lat="60.11288545767" lon="21.524916426107">
        <ele>10.4</ele>
        <time>2017-07-27T12:17:22Z</time>
      </trkpt>
      <trkpt lat="60.112877159589" lon="21.524913324804">
        <ele>10.4</ele>
        <time>2017-07-27T12:17:23Z</time>
      </trkpt>
      <trkpt lat="60.112857378305" lon="21.524910726415">
        <ele>10.4</ele>
        <time>2017-07-27T12:17:24Z</time>
      </trkpt>
      <trkpt lat="60.112849499319" lon="21.524908295664">
        <ele>10.4</ele>
        <time>2017-07-27T12:17:25Z</time>
      </trkpt>
      <trkpt lat="60.112829382759" lon="21.524905613456">
        <ele>10.4</ele>
        <time>2017-07-27T12:17:26Z</time>
      </trkpt>
      <trkpt lat="60.112820246488" lon="21.524901003411">
        <ele>10.4</ele>
        <time>2017-07-27T12:17:27Z</time>
      </trkpt>
      <trkpt lat="60.112803734145" lon="21.524896141909">
        <ele>10.4</ele>
        <time>2017-07-27T12:17:28Z</time>
      </trkpt>
      <trkpt lat="60.112794597874" lon="21.524887005638">
        <ele>10.4</ele>
        <time>2017-07-27T12:17:29Z</time>
      </trkpt>
      <trkpt lat="60.112783617585" lon="21.524877031177">
        <ele>10.4</ele>
        <time>2017-07-27T12:17:30Z</time>
      </trkpt>
      <trkpt lat="60.11276894926" lon="21.524863201042">
        <ele>10.4</ele>
        <time>2017-07-27T12:17:31Z</time>
      </trkpt>
      <trkpt lat="60.112762495197" lon="21.524855070599">
        <ele>10.4</ele>
        <time>2017-07-27T12:17:32Z</time>
      </trkpt>
      <trkpt lat="60.112747910691" lon="21.524844844681">
        <ele>10.4</ele>
        <time>2017-07-27T12:17:33Z</time>
      </trkpt>
      <trkpt lat="60.112740115524" lon="21.524836043686">
        <ele>10.4</ele>
        <time>2017-07-27T12:17:34Z</time>
      </trkpt>
      <trkpt lat="60.112726955941" lon="21.524831098365">
        <ele>10.4</ele>
        <time>2017-07-27T12:17:35Z</time>
      </trkpt>
      <trkpt lat="60.112720753335" lon="21.524822800284">
        <ele>10.4</ele>
        <time>2017-07-27T12:17:36Z</time>
      </trkpt>
      <trkpt lat="60.112705163001" lon="21.524815927126">
        <ele>10.4</ele>
        <time>2017-07-27T12:17:37Z</time>
      </trkpt>
      <trkpt lat="60.112697954567" lon="21.524808215778">
        <ele>10.4</ele>
        <time>2017-07-27T12:17:38Z</time>
      </trkpt>
      <trkpt lat="60.112684040613" lon="21.524802683724">
        <ele>10.4</ele>
        <time>2017-07-27T12:17:39Z</time>
      </trkpt>
      <trkpt lat="60.112675742532" lon="21.524794553281">
        <ele>10.4</ele>
        <time>2017-07-27T12:17:40Z</time>
      </trkpt>
      <trkpt lat="60.112661241845" lon="21.524788099218">
        <ele>10.4</ele>
        <time>2017-07-27T12:17:41Z</time>
      </trkpt>
      <trkpt lat="60.112651854117" lon="21.524780136413">
        <ele>10.4</ele>
        <time>2017-07-27T12:17:42Z</time>
      </trkpt>
      <trkpt lat="60.112642131113" lon="21.524768401753">
        <ele>10.4</ele>
        <time>2017-07-27T12:17:43Z</time>
      </trkpt>
      <trkpt lat="60.112631150824" lon="21.524751554134">
        <ele>10.4</ele>
        <time>2017-07-27T12:17:44Z</time>
      </trkpt>
      <trkpt lat="60.112622014553" lon="21.524748620469">
        <ele>10.4</ele>
        <time>2017-07-27T12:17:45Z</time>
      </trkpt>
      <trkpt lat="60.112608603513" lon="21.524731353755">
        <ele>10.4</ele>
        <time>2017-07-27T12:17:46Z</time>
      </trkpt>
      <trkpt lat="60.112600053975" lon="21.524728000995">
        <ele>10.4</ele>
        <time>2017-07-27T12:17:47Z</time>
      </trkpt>
      <trkpt lat="60.112589660419" lon="21.52472339095">
        <ele>10.4</ele>
        <time>2017-07-27T12:17:48Z</time>
      </trkpt>
      <trkpt lat="60.112578931587" lon="21.524714589955">
        <ele>10.4</ele>
        <time>2017-07-27T12:17:49Z</time>
      </trkpt>
      <trkpt lat="60.112565352909" lon="21.524708974082">
        <ele>10.4</ele>
        <time>2017-07-27T12:17:50Z</time>
      </trkpt>
      <trkpt lat="60.112553115335" lon="21.524701095096">
        <ele>10.4</ele>
        <time>2017-07-27T12:17:51Z</time>
      </trkpt>
      <trkpt lat="60.112542135046" lon="21.52469740706">
        <ele>10.4</ele>
        <time>2017-07-27T12:17:52Z</time>
      </trkpt>
      <trkpt lat="60.112528556368" lon="21.52468986335">
        <ele>10.4</ele>
        <time>2017-07-27T12:17:53Z</time>
      </trkpt>
      <trkpt lat="60.112518581907" lon="21.524685253305">
        <ele>10.4</ele>
        <time>2017-07-27T12:17:54Z</time>
      </trkpt>
      <trkpt lat="60.112503410668" lon="21.524678799242">
        <ele>10.4</ele>
        <time>2017-07-27T12:17:55Z</time>
      </trkpt>
      <trkpt lat="60.112492598017" lon="21.524675195025">
        <ele>10.4</ele>
        <time>2017-07-27T12:17:56Z</time>
      </trkpt>
      <trkpt lat="60.11247474457" lon="21.524666226392">
        <ele>10.4</ele>
        <time>2017-07-27T12:17:57Z</time>
      </trkpt>
      <trkpt lat="60.112464434833" lon="21.524661783985">
        <ele>10.4</ele>
        <time>2017-07-27T12:17:58Z</time>
      </trkpt>
      <trkpt lat="60.11245127525" lon="21.524650636058">
        <ele>10.4</ele>
        <time>2017-07-27T12:17:59Z</time>
      </trkpt>
      <trkpt lat="60.112437528934" lon="21.524642840891">
        <ele>10.4</ele>
        <time>2017-07-27T12:18:00Z</time>
      </trkpt>
      <trkpt lat="60.112426632464" lon="21.524630435679">
        <ele>10.4</ele>
        <time>2017-07-27T12:18:01Z</time>
      </trkpt>
      <trkpt lat="60.112411796501" lon="21.524619371571">
        <ele>10.4</ele>
        <time>2017-07-27T12:18:02Z</time>
      </trkpt>
      <trkpt lat="60.112404504248" lon="21.524609816205">
        <ele>10.4</ele>
        <time>2017-07-27T12:18:03Z</time>
      </trkpt>
      <trkpt lat="60.112391177027" lon="21.524593387681">
        <ele>10.4</ele>
        <time>2017-07-27T12:18:04Z</time>
      </trkpt>
      <trkpt lat="60.112381286385" lon="21.524582407392">
        <ele>10.4</ele>
        <time>2017-07-27T12:18:05Z</time>
      </trkpt>
      <trkpt lat="60.112370306096" lon="21.524564470126">
        <ele>10.4</ele>
        <time>2017-07-27T12:18:06Z</time>
      </trkpt>
      <trkpt lat="60.112361840377" lon="21.524548460697">
        <ele>10.4</ele>
        <time>2017-07-27T12:18:07Z</time>
      </trkpt>
      <trkpt lat="60.112351195364" lon="21.524522644445">
        <ele>10.4</ele>
        <time>2017-07-27T12:18:08Z</time>
      </trkpt>
      <trkpt lat="60.112344741301" lon="21.524512753803">
        <ele>10.4</ele>
        <time>2017-07-27T12:18:09Z</time>
      </trkpt>
      <trkpt lat="60.112333509555" lon="21.524493559252">
        <ele>10.4</ele>
        <time>2017-07-27T12:18:10Z</time>
      </trkpt>
      <trkpt lat="60.112329989157" lon="21.524475119072">
        <ele>10.4</ele>
        <time>2017-07-27T12:18:11Z</time>
      </trkpt>
      <trkpt lat="60.112317248669" lon="21.524460366928">
        <ele>10.4</ele>
        <time>2017-07-27T12:18:12Z</time>
      </trkpt>
      <trkpt lat="60.112310040235" lon="21.524432119925">
        <ele>10.4</ele>
        <time>2017-07-27T12:18:13Z</time>
      </trkpt>
      <trkpt lat="60.112300820145" lon="21.524428599527">
        <ele>10.4</ele>
        <time>2017-07-27T12:18:14Z</time>
      </trkpt>
      <trkpt lat="60.112289001666" lon="21.524420720541">
        <ele>10.4</ele>
        <time>2017-07-27T12:18:15Z</time>
      </trkpt>
      <trkpt lat="60.112282966698" lon="21.524410410804">
        <ele>10.4</ele>
        <time>2017-07-27T12:18:16Z</time>
      </trkpt>
      <trkpt lat="60.112269639477" lon="21.524403118551">
        <ele>10.4</ele>
        <time>2017-07-27T12:18:17Z</time>
      </trkpt>
      <trkpt lat="60.112260838482" lon="21.524393060271">
        <ele>10.4</ele>
        <time>2017-07-27T12:18:18Z</time>
      </trkpt>
      <trkpt lat="60.112247008347" lon="21.52438560038">
        <ele>10.4</ele>
        <time>2017-07-27T12:18:19Z</time>
      </trkpt>
      <trkpt lat="60.112237117705" lon="21.524375290643">
        <ele>10.4</ele>
        <time>2017-07-27T12:18:20Z</time>
      </trkpt>
      <trkpt lat="60.112222114104" lon="21.524368668942">
        <ele>10.4</ele>
        <time>2017-07-27T12:18:21Z</time>
      </trkpt>
      <trkpt lat="60.112213816023" lon="21.524359867947">
        <ele>10.4</ele>
        <time>2017-07-27T12:18:22Z</time>
      </trkpt>
      <trkpt lat="60.112203506286" lon="21.524348217106">
        <ele>10.4</ele>
        <time>2017-07-27T12:18:23Z</time>
      </trkpt>
      <trkpt lat="60.112190179065" lon="21.524327262356">
        <ele>10.4</ele>
        <time>2017-07-27T12:18:24Z</time>
      </trkpt>
      <trkpt lat="60.112180958975" lon="21.524329190193">
        <ele>10.4</ele>
        <time>2017-07-27T12:18:25Z</time>
      </trkpt>
      <trkpt lat="60.112166793564" lon="21.524310330918">
        <ele>10.4</ele>
        <time>2017-07-27T12:18:26Z</time>
      </trkpt>
      <trkpt lat="60.112156567646" lon="21.524308067805">
        <ele>10.4</ele>
        <time>2017-07-27T12:18:27Z</time>
      </trkpt>
      <trkpt lat="60.112146677004" lon="21.524303206303">
        <ele>10.4</ele>
        <time>2017-07-27T12:18:28Z</time>
      </trkpt>
      <trkpt lat="60.112135612896" lon="21.524296584602">
        <ele>10.4</ele>
        <time>2017-07-27T12:18:29Z</time>
      </trkpt>
      <trkpt lat="60.112124632607" lon="21.52429423767">
        <ele>10.4</ele>
        <time>2017-07-27T12:18:30Z</time>
      </trkpt>
      <trkpt lat="60.112108958454" lon="21.524286945417">
        <ele>10.4</ele>
        <time>2017-07-27T12:18:31Z</time>
      </trkpt>
      <trkpt lat="60.112098732536" lon="21.524285604313">
        <ele>10.4</ele>
        <time>2017-07-27T12:18:32Z</time>
      </trkpt>
      <trkpt lat="60.112082890745" lon="21.524278563517">
        <ele>10.4</ele>
        <time>2017-07-27T12:18:33Z</time>
      </trkpt>
      <trkpt lat="60.112073670655" lon="21.524275546033">
        <ele>10.4</ele>
        <time>2017-07-27T12:18:34Z</time>
      </trkpt>
      <trkpt lat="60.112060091977" lon="21.524263057002">
        <ele>10.4</ele>
        <time>2017-07-27T12:18:35Z</time>
      </trkpt>
      <trkpt lat="60.11204810586" lon="21.524253585455">
        <ele>10.4</ele>
        <time>2017-07-27T12:18:36Z</time>
      </trkpt>
      <trkpt lat="60.112034527182" lon="21.52425735731">
        <ele>10.4</ele>
        <time>2017-07-27T12:18:37Z</time>
      </trkpt>
      <trkpt lat="60.112022205789" lon="21.524242102252">
        <ele>10.4</ele>
        <time>2017-07-27T12:18:38Z</time>
      </trkpt>
      <trkpt lat="60.112013991527" lon="21.524242018433">
        <ele>10.4</ele>
        <time>2017-07-27T12:18:39Z</time>
      </trkpt>
      <trkpt lat="60.112001083401" lon="21.524241599338">
        <ele>10.4</ele>
        <time>2017-07-27T12:18:40Z</time>
      </trkpt>
      <trkpt lat="60.111993707329" lon="21.524237324569">
        <ele>10.4</ele>
        <time>2017-07-27T12:18:41Z</time>
      </trkpt>
      <trkpt lat="60.1119776979" lon="21.524239503863">
        <ele>10.4</ele>
        <time>2017-07-27T12:18:42Z</time>
      </trkpt>
      <trkpt lat="60.111968813086" lon="21.524236905474">
        <ele>10.4</ele>
        <time>2017-07-27T12:18:43Z</time>
      </trkpt>
      <trkpt lat="60.111954731494" lon="21.52424059351">
        <ele>10.4</ele>
        <time>2017-07-27T12:18:44Z</time>
      </trkpt>
      <trkpt lat="60.111943415929" lon="21.524241683157">
        <ele>10.4</ele>
        <time>2017-07-27T12:18:45Z</time>
      </trkpt>
      <trkpt lat="60.111929334337" lon="21.524246125564">
        <ele>10.4</ele>
        <time>2017-07-27T12:18:46Z</time>
      </trkpt>
      <trkpt lat="60.11191567184" lon="21.524249478324">
        <ele>10.4</ele>
        <time>2017-07-27T12:18:47Z</time>
      </trkpt>
      <trkpt lat="60.111903015171" lon="21.524254507464">
        <ele>10.4</ele>
        <time>2017-07-27T12:18:48Z</time>
      </trkpt>
      <trkpt lat="60.111888933579" lon="21.524256100025">
        <ele>10.4</ele>
        <time>2017-07-27T12:18:49Z</time>
      </trkpt>
      <trkpt lat="60.111876025453" lon="21.524260207156">
        <ele>10.4</ele>
        <time>2017-07-27T12:18:50Z</time>
      </trkpt>
      <trkpt lat="60.1118603513" lon="21.52426154826">
        <ele>10.4</ele>
        <time>2017-07-27T12:18:51Z</time>
      </trkpt>
      <trkpt lat="60.111849622468" lon="21.524263979011">
        <ele>10.4</ele>
        <time>2017-07-27T12:18:52Z</time>
      </trkpt>
      <trkpt lat="60.111833277763" lon="21.524263308459">
        <ele>10.4</ele>
        <time>2017-07-27T12:18:53Z</time>
      </trkpt>
      <trkpt lat="60.111823051845" lon="21.524263727554">
        <ele>10.4</ele>
        <time>2017-07-27T12:18:54Z</time>
      </trkpt>
      <trkpt lat="60.111809137891" lon="21.52425735731">
        <ele>10.4</ele>
        <time>2017-07-27T12:18:55Z</time>
      </trkpt>
      <trkpt lat="60.111795726851" lon="21.524255932387">
        <ele>10.4</ele>
        <time>2017-07-27T12:18:56Z</time>
      </trkpt>
      <trkpt lat="60.111785081838" lon="21.524247634306">
        <ele>10.4</ele>
        <time>2017-07-27T12:18:57Z</time>
      </trkpt>
      <trkpt lat="60.111774772101" lon="21.524237156931">
        <ele>10.4</ele>
        <time>2017-07-27T12:18:58Z</time>
      </trkpt>
      <trkpt lat="60.111765803468" lon="21.524223410615">
        <ele>10.4</ele>
        <time>2017-07-27T12:18:59Z</time>
      </trkpt>
      <trkpt lat="60.11175306298" lon="21.524228355936">
        <ele>10.4</ele>
        <time>2017-07-27T12:19:00Z</time>
      </trkpt>
      <trkpt lat="60.111742501786" lon="21.52420371315">
        <ele>10.4</ele>
        <time>2017-07-27T12:19:01Z</time>
      </trkpt>
      <trkpt lat="60.111733281696" lon="21.52420538953">
        <ele>10.4</ele>
        <time>2017-07-27T12:19:02Z</time>
      </trkpt>
      <trkpt lat="60.111721463217" lon="21.52419533125">
        <ele>10.4</ele>
        <time>2017-07-27T12:19:03Z</time>
      </trkpt>
      <trkpt lat="60.111713919507" lon="21.524190553567">
        <ele>10.4</ele>
        <time>2017-07-27T12:19:04Z</time>
      </trkpt>
      <trkpt lat="60.111704783236" lon="21.524183848047">
        <ele>10.4</ele>
        <time>2017-07-27T12:19:05Z</time>
      </trkpt>
      <trkpt lat="60.111696233698" lon="21.52416850917">
        <ele>10.4</ele>
        <time>2017-07-27T12:19:06Z</time>
      </trkpt>
      <trkpt lat="60.11168684597" lon="21.524157696519">
        <ele>10.4</ele>
        <time>2017-07-27T12:19:07Z</time>
      </trkpt>
      <trkpt lat="60.111677290604" lon="21.524152415922">
        <ele>10.4</ele>
        <time>2017-07-27T12:19:08Z</time>
      </trkpt>
      <trkpt lat="60.111671423274" lon="21.524142692918">
        <ele>10.4</ele>
        <time>2017-07-27T12:19:09Z</time>
      </trkpt>
      <trkpt lat="60.111666980867" lon="21.524136071217">
        <ele>10.4</ele>
        <time>2017-07-27T12:19:10Z</time>
      </trkpt>
      <trkpt lat="60.1116591857" lon="21.524121905806">
        <ele>10.4</ele>
        <time>2017-07-27T12:19:11Z</time>
      </trkpt>
      <trkpt lat="60.111647199583" lon="21.524114110639">
        <ele>10.4</ele>
        <time>2017-07-27T12:19:12Z</time>
      </trkpt>
      <trkpt lat="60.111637895674" lon="21.52409558664">
        <ele>10.4</ele>
        <time>2017-07-27T12:19:13Z</time>
      </trkpt>
      <trkpt lat="60.111632279801" lon="21.524087372378">
        <ele>10.4</ele>
        <time>2017-07-27T12:19:14Z</time>
      </trkpt>
      <trkpt lat="60.111620293684" lon="21.524078068469">
        <ele>10.4</ele>
        <time>2017-07-27T12:19:15Z</time>
      </trkpt>
      <trkpt lat="60.111617443838" lon="21.524070692397">
        <ele>10.4</ele>
        <time>2017-07-27T12:19:16Z</time>
      </trkpt>
      <trkpt lat="60.111608223748" lon="21.524062981049">
        <ele>10.4</ele>
        <time>2017-07-27T12:19:17Z</time>
      </trkpt>
      <trkpt lat="60.111598416925" lon="21.524048983276">
        <ele>10.4</ele>
        <time>2017-07-27T12:19:18Z</time>
      </trkpt>
      <trkpt lat="60.111590789396" lon="21.524043283584">
        <ele>10.4</ele>
        <time>2017-07-27T12:19:19Z</time>
      </trkpt>
      <trkpt lat="60.111577210718" lon="21.5240318842">
        <ele>10.4</ele>
        <time>2017-07-27T12:19:20Z</time>
      </trkpt>
      <trkpt lat="60.111563715859" lon="21.524025011042">
        <ele>10.4</ele>
        <time>2017-07-27T12:19:21Z</time>
      </trkpt>
      <trkpt lat="60.111559944004" lon="21.524017383513">
        <ele>10.6</ele>
        <time>2017-07-27T12:19:22Z</time>
      </trkpt>
      <trkpt lat="60.111544186032" lon="21.524009672165">
        <ele>10.6</ele>
        <time>2017-07-27T12:19:23Z</time>
      </trkpt>
      <trkpt lat="60.111539240711" lon="21.524003637197">
        <ele>10.6</ele>
        <time>2017-07-27T12:19:24Z</time>
      </trkpt>
      <trkpt lat="60.111522644549" lon="21.523995590573">
        <ele>10.6</ele>
        <time>2017-07-27T12:19:25Z</time>
      </trkpt>
      <trkpt lat="60.111515771391" lon="21.523987963044">
        <ele>10.6</ele>
        <time>2017-07-27T12:19:26Z</time>
      </trkpt>
      <trkpt lat="60.11149825322" lon="21.523977820945">
        <ele>10.6</ele>
        <time>2017-07-27T12:19:27Z</time>
      </trkpt>
      <trkpt lat="60.111491296243" lon="21.523966086285">
        <ele>10.6</ele>
        <time>2017-07-27T12:19:28Z</time>
      </trkpt>
      <trkpt lat="60.11148400399" lon="21.523955357453">
        <ele>10.6</ele>
        <time>2017-07-27T12:19:29Z</time>
      </trkpt>
      <trkpt lat="60.111474700081" lon="21.523931469038">
        <ele>10.6</ele>
        <time>2017-07-27T12:19:30Z</time>
      </trkpt>
      <trkpt lat="60.111463300697" lon="21.523926188441">
        <ele>10.6</ele>
        <time>2017-07-27T12:19:31Z</time>
      </trkpt>
      <trkpt lat="60.111457852462" lon="21.523895678325">
        <ele>10.6</ele>
        <time>2017-07-27T12:19:32Z</time>
      </trkpt>
      <trkpt lat="60.111449051467" lon="21.523893499031">
        <ele>10.6</ele>
        <time>2017-07-27T12:19:33Z</time>
      </trkpt>
      <trkpt lat="60.111439747558" lon="21.523869610616">
        <ele>10.6</ele>
        <time>2017-07-27T12:19:34Z</time>
      </trkpt>
      <trkpt lat="60.111428348174" lon="21.523861647811">
        <ele>10.6</ele>
        <time>2017-07-27T12:19:35Z</time>
      </trkpt>
      <trkpt lat="60.111421558835" lon="21.523852930635">
        <ele>10.6</ele>
        <time>2017-07-27T12:19:36Z</time>
      </trkpt>
      <trkpt lat="60.111407225786" lon="21.523837927034">
        <ele>10.6</ele>
        <time>2017-07-27T12:19:37Z</time>
      </trkpt>
      <trkpt lat="60.111401609913" lon="21.523830634781">
        <ele>10.6</ele>
        <time>2017-07-27T12:19:38Z</time>
      </trkpt>
      <trkpt lat="60.111386271036" lon="21.523818061931">
        <ele>10.6</ele>
        <time>2017-07-27T12:19:39Z</time>
      </trkpt>
      <trkpt lat="60.111377470041" lon="21.523813535705">
        <ele>10.6</ele>
        <time>2017-07-27T12:19:40Z</time>
      </trkpt>
      <trkpt lat="60.11136246644" lon="21.523803477425">
        <ele>10.6</ele>
        <time>2017-07-27T12:19:41Z</time>
      </trkpt>
      <trkpt lat="60.11135073178" lon="21.523799286475">
        <ele>10.6</ele>
        <time>2017-07-27T12:19:42Z</time>
      </trkpt>
      <trkpt lat="60.111338745663" lon="21.523790317842">
        <ele>10.6</ele>
        <time>2017-07-27T12:19:43Z</time>
      </trkpt>
      <trkpt lat="60.111322400958" lon="21.523783360865">
        <ele>10.6</ele>
        <time>2017-07-27T12:19:44Z</time>
      </trkpt>
      <trkpt lat="60.111314521972" lon="21.523777996449">
        <ele>10.6</ele>
        <time>2017-07-27T12:19:45Z</time>
      </trkpt>
      <trkpt lat="60.111297506715" lon="21.523766429427">
        <ele>10.6</ele>
        <time>2017-07-27T12:19:46Z</time>
      </trkpt>
      <trkpt lat="60.111289460091" lon="21.523761567925">
        <ele>10.6</ele>
        <time>2017-07-27T12:19:47Z</time>
      </trkpt>
      <trkpt lat="60.111275629956" lon="21.523750587636">
        <ele>10.6</ele>
        <time>2017-07-27T12:19:48Z</time>
      </trkpt>
      <trkpt lat="60.111265571676" lon="21.523743295383">
        <ele>10.6</ele>
        <time>2017-07-27T12:19:49Z</time>
      </trkpt>
      <trkpt lat="60.111254088473" lon="21.523729968162">
        <ele>10.6</ele>
        <time>2017-07-27T12:19:50Z</time>
      </trkpt>
      <trkpt lat="60.111239001053" lon="21.52372091571">
        <ele>10.6</ele>
        <time>2017-07-27T12:19:51Z</time>
      </trkpt>
      <trkpt lat="60.111232463171" lon="21.523712198534">
        <ele>10.6</ele>
        <time>2017-07-27T12:19:52Z</time>
      </trkpt>
      <trkpt lat="60.111215950828" lon="21.523697949304">
        <ele>10.6</ele>
        <time>2017-07-27T12:19:53Z</time>
      </trkpt>
      <trkpt lat="60.111207904204" lon="21.523690237956">
        <ele>10.6</ele>
        <time>2017-07-27T12:19:54Z</time>
      </trkpt>
      <trkpt lat="60.111192565327" lon="21.523675821088">
        <ele>10.6</ele>
        <time>2017-07-27T12:19:55Z</time>
      </trkpt>
      <trkpt lat="60.111180746848" lon="21.523664337885">
        <ele>10.6</ele>
        <time>2017-07-27T12:19:56Z</time>
      </trkpt>
      <trkpt lat="60.111170604749" lon="21.523650004836">
        <ele>10.6</ele>
        <time>2017-07-27T12:19:57Z</time>
      </trkpt>
      <trkpt lat="60.11115459532" lon="21.523631816113">
        <ele>10.6</ele>
        <time>2017-07-27T12:19:58Z</time>
      </trkpt>
      <trkpt lat="60.111149901456" lon="21.523623769489">
        <ele>10.6</ele>
        <time>2017-07-27T12:19:59Z</time>
      </trkpt>
      <trkpt lat="60.111134981674" lon="21.523601557454">
        <ele>10.6</ele>
        <time>2017-07-27T12:20:00Z</time>
      </trkpt>
      <trkpt lat="60.111127605602" lon="21.523588733147">
        <ele>10.6</ele>
        <time>2017-07-27T12:20:01Z</time>
      </trkpt>
      <trkpt lat="60.111116541494" lon="21.523566018198">
        <ele>10.6</ele>
        <time>2017-07-27T12:20:02Z</time>
      </trkpt>
      <trkpt lat="60.111107572861" lon="21.523551936606">
        <ele>10.6</ele>
        <time>2017-07-27T12:20:03Z</time>
      </trkpt>
      <trkpt lat="60.111099945332" lon="21.523530227485">
        <ele>10.6</ele>
        <time>2017-07-27T12:20:04Z</time>
      </trkpt>
      <trkpt lat="60.111093575088" lon="21.523509440373">
        <ele>10.6</ele>
        <time>2017-07-27T12:20:05Z</time>
      </trkpt>
      <trkpt lat="60.111083432989" lon="21.523481863922">
        <ele>10.6</ele>
        <time>2017-07-27T12:20:06Z</time>
      </trkpt>
      <trkpt lat="60.11107915822" lon="21.523469626348">
        <ele>10.6</ele>
        <time>2017-07-27T12:20:07Z</time>
      </trkpt>
      <trkpt lat="60.111069602854" lon="21.523443726277">
        <ele>10.6</ele>
        <time>2017-07-27T12:20:08Z</time>
      </trkpt>
      <trkpt lat="60.111065579542" lon="21.523428052124">
        <ele>10.6</ele>
        <time>2017-07-27T12:20:09Z</time>
      </trkpt>
      <trkpt lat="60.111054766891" lon="21.523407600288">
        <ele>10.6</ele>
        <time>2017-07-27T12:20:10Z</time>
      </trkpt>
      <trkpt lat="60.111049318656" lon="21.523397877284">
        <ele>10.6</ele>
        <time>2017-07-27T12:20:11Z</time>
      </trkpt>
      <trkpt lat="60.111040014747" lon="21.523376922534">
        <ele>10.6</ele>
        <time>2017-07-27T12:20:12Z</time>
      </trkpt>
      <trkpt lat="60.111029788829" lon="21.523364601141">
        <ele>10.6</ele>
        <time>2017-07-27T12:20:13Z</time>
      </trkpt>
      <trkpt lat="60.111027441897" lon="21.523356805974">
        <ele>10.6</ele>
        <time>2017-07-27T12:20:14Z</time>
      </trkpt>
      <trkpt lat="60.111011013373" lon="21.523340964183">
        <ele>10.6</ele>
        <time>2017-07-27T12:20:15Z</time>
      </trkpt>
      <trkpt lat="60.11100791207" lon="21.523335767405">
        <ele>10.6</ele>
        <time>2017-07-27T12:20:16Z</time>
      </trkpt>
      <trkpt lat="60.110993746659" lon="21.523320177071">
        <ele>10.6</ele>
        <time>2017-07-27T12:20:17Z</time>
      </trkpt>
      <trkpt lat="60.11098779551" lon="21.523313639189">
        <ele>10.6</ele>
        <time>2017-07-27T12:20:18Z</time>
      </trkpt>
      <trkpt lat="60.11097522266" lon="21.523299557597">
        <ele>10.6</ele>
        <time>2017-07-27T12:20:19Z</time>
      </trkpt>
      <trkpt lat="60.110966505484" lon="21.523290672783">
        <ele>10.6</ele>
        <time>2017-07-27T12:20:20Z</time>
      </trkpt>
      <trkpt lat="60.110956111928" lon="21.523275669182">
        <ele>10.6</ele>
        <time>2017-07-27T12:20:21Z</time>
      </trkpt>
      <trkpt lat="60.11094420963" lon="21.523264688893">
        <ele>10.6</ele>
        <time>2017-07-27T12:20:22Z</time>
      </trkpt>
      <trkpt lat="60.11093666592" lon="21.52325152931">
        <ele>10.6</ele>
        <time>2017-07-27T12:20:23Z</time>
      </trkpt>
      <trkpt lat="60.110921913776" lon="21.523236274252">
        <ele>10.6</ele>
        <time>2017-07-27T12:20:24Z</time>
      </trkpt>
      <trkpt lat="60.110915292075" lon="21.523224371954">
        <ele>10.6</ele>
        <time>2017-07-27T12:20:25Z</time>
      </trkpt>
      <trkpt lat="60.110907077813" lon="21.523207691973">
        <ele>10.6</ele>
        <time>2017-07-27T12:20:26Z</time>
      </trkpt>
      <trkpt lat="60.1108964328" lon="21.523180786074">
        <ele>10.6</ele>
        <time>2017-07-27T12:20:27Z</time>
      </trkpt>
      <trkpt lat="60.110889308185" lon="21.523175086382">
        <ele>10.6</ele>
        <time>2017-07-27T12:20:28Z</time>
      </trkpt>
      <trkpt lat="60.110881093923" lon="21.523148934854">
        <ele>10.6</ele>
        <time>2017-07-27T12:20:29Z</time>
      </trkpt>
      <trkpt lat="60.1108712871" lon="21.523141055868">
        <ele>10.6</ele>
        <time>2017-07-27T12:20:30Z</time>
      </trkpt>
      <trkpt lat="60.110861145001" lon="21.523121526041">
        <ele>10.6</ele>
        <time>2017-07-27T12:20:31Z</time>
      </trkpt>
      <trkpt lat="60.110849661798" lon="21.523113479417">
        <ele>10.6</ele>
        <time>2017-07-27T12:20:32Z</time>
      </trkpt>
      <trkpt lat="60.110842369545" lon="21.52310736063">
        <ele>10.6</ele>
        <time>2017-07-27T12:20:33Z</time>
      </trkpt>
      <trkpt lat="60.110829796695" lon="21.523096631798">
        <ele>10.6</ele>
        <time>2017-07-27T12:20:34Z</time>
      </trkpt>
      <trkpt lat="60.110821750071" lon="21.523090261554">
        <ele>11.4</ele>
        <time>2017-07-27T12:20:35Z</time>
      </trkpt>
      <trkpt lat="60.110804148081" lon="21.52308053855">
        <ele>11.4</ele>
        <time>2017-07-27T12:20:36Z</time>
      </trkpt>
      <trkpt lat="60.110796436733" lon="21.523077856342">
        <ele>11.4</ele>
        <time>2017-07-27T12:20:37Z</time>
      </trkpt>
      <trkpt lat="60.110777577458" lon="21.523070396451">
        <ele>11.4</ele>
        <time>2017-07-27T12:20:38Z</time>
      </trkpt>
      <trkpt lat="60.11077238068" lon="21.523069222985">
        <ele>11.4</ele>
        <time>2017-07-27T12:20:39Z</time>
      </trkpt>
      <trkpt lat="60.11075310231" lon="21.523065534949">
        <ele>11.4</ele>
        <time>2017-07-27T12:20:40Z</time>
      </trkpt>
      <trkpt lat="60.110745642419" lon="21.52306545113">
        <ele>11.4</ele>
        <time>2017-07-27T12:20:41Z</time>
      </trkpt>
      <trkpt lat="60.110725190583" lon="21.523064361483">
        <ele>11.4</ele>
        <time>2017-07-27T12:20:42Z</time>
      </trkpt>
      <trkpt lat="60.110718149787" lon="21.523063439474">
        <ele>11.4</ele>
        <time>2017-07-27T12:20:43Z</time>
      </trkpt>
      <trkpt lat="60.110698368503" lon="21.52306461294">
        <ele>11.4</ele>
        <time>2017-07-27T12:20:44Z</time>
      </trkpt>
      <trkpt lat="60.110691327707" lon="21.523064696759">
        <ele>11.4</ele>
        <time>2017-07-27T12:20:45Z</time>
      </trkpt>
      <trkpt lat="60.110668780396" lon="21.523066959872">
        <ele>11.4</ele>
        <time>2017-07-27T12:20:46Z</time>
      </trkpt>
      <trkpt lat="60.110661823419" lon="21.52306628932">
        <ele>11.4</ele>
        <time>2017-07-27T12:20:47Z</time>
      </trkpt>
      <trkpt lat="60.110641706859" lon="21.523067798062">
        <ele>11.4</ele>
        <time>2017-07-27T12:20:48Z</time>
      </trkpt>
      <trkpt lat="60.110633073502" lon="21.52306628932">
        <ele>11.4</ele>
        <time>2017-07-27T12:20:49Z</time>
      </trkpt>
      <trkpt lat="60.110614633322" lon="21.523066540777">
        <ele>11.4</ele>
        <time>2017-07-27T12:20:50Z</time>
      </trkpt>
      <trkpt lat="60.110605497051" lon="21.523063858569">
        <ele>11.4</ele>
        <time>2017-07-27T12:20:51Z</time>
      </trkpt>
      <trkpt lat="60.110587811242" lon="21.523062852741">
        <ele>11.4</ele>
        <time>2017-07-27T12:20:52Z</time>
      </trkpt>
      <trkpt lat="60.110580183713" lon="21.52305874561">
        <ele>11.4</ele>
        <time>2017-07-27T12:20:53Z</time>
      </trkpt>
      <trkpt lat="60.11056283318" lon="21.523054806117">
        <ele>11.4</ele>
        <time>2017-07-27T12:20:54Z</time>
      </trkpt>
      <trkpt lat="60.110553361633" lon="21.523049357882">
        <ele>11.4</ele>
        <time>2017-07-27T12:20:55Z</time>
      </trkpt>
      <trkpt lat="60.110537100747" lon="21.523040975982">
        <ele>11.4</ele>
        <time>2017-07-27T12:20:56Z</time>
      </trkpt>
      <trkpt lat="60.110529557037" lon="21.523033013177">
        <ele>11.4</ele>
        <time>2017-07-27T12:20:57Z</time>
      </trkpt>
      <trkpt lat="60.110513715246" lon="21.523021613793">
        <ele>11.4</ele>
        <time>2017-07-27T12:20:58Z</time>
      </trkpt>
      <trkpt lat="60.110507177364" lon="21.523011471694">
        <ele>11.4</ele>
        <time>2017-07-27T12:20:59Z</time>
      </trkpt>
      <trkpt lat="60.110496867627" lon="21.522998312111">
        <ele>11.4</ele>
        <time>2017-07-27T12:21:00Z</time>
      </trkpt>
      <trkpt lat="60.110488653365" lon="21.522973334049">
        <ele>11.4</ele>
        <time>2017-07-27T12:21:01Z</time>
      </trkpt>
      <trkpt lat="60.110478595085" lon="21.522970484203">
        <ele>11.4</ele>
        <time>2017-07-27T12:21:02Z</time>
      </trkpt>
      <trkpt lat="60.110471219013" lon="21.522943243028">
        <ele>11.4</ele>
        <time>2017-07-27T12:21:03Z</time>
      </trkpt>
      <trkpt lat="60.110463591484" lon="21.522934022938">
        <ele>11.4</ele>
        <time>2017-07-27T12:21:04Z</time>
      </trkpt>
      <trkpt lat="60.110452695014" lon="21.522922204459">
        <ele>11.4</ele>
        <time>2017-07-27T12:21:05Z</time>
      </trkpt>
      <trkpt lat="60.110447665874" lon="21.522908039048">
        <ele>11.4</ele>
        <time>2017-07-27T12:21:06Z</time>
      </trkpt>
      <trkpt lat="60.110434757748" lon="21.522891023791">
        <ele>11.4</ele>
        <time>2017-07-27T12:21:07Z</time>
      </trkpt>
      <trkpt lat="60.110429141875" lon="21.522878115665">
        <ele>11.4</ele>
        <time>2017-07-27T12:21:08Z</time>
      </trkpt>
      <trkpt lat="60.110416569025" lon="21.522861184227">
        <ele>11.4</ele>
        <time>2017-07-27T12:21:09Z</time>
      </trkpt>
      <trkpt lat="60.110411204609" lon="21.522848946653">
        <ele>11.4</ele>
        <time>2017-07-27T12:21:10Z</time>
      </trkpt>
      <trkpt lat="60.110397458293" lon="21.522827656627">
        <ele>11.4</ele>
        <time>2017-07-27T12:21:11Z</time>
      </trkpt>
      <trkpt lat="60.110392261515" lon="21.522813323578">
        <ele>11.4</ele>
        <time>2017-07-27T12:21:12Z</time>
      </trkpt>
      <trkpt lat="60.11038597509" lon="21.522791195362">
        <ele>11.4</ele>
        <time>2017-07-27T12:21:13Z</time>
      </trkpt>
      <trkpt lat="60.110381197407" lon="21.522762277807">
        <ele>11.4</ele>
        <time>2017-07-27T12:21:14Z</time>
      </trkpt>
      <trkpt lat="60.110371809679" lon="21.522749202043">
        <ele>11.4</ele>
        <time>2017-07-27T12:21:15Z</time>
      </trkpt>
      <trkpt lat="60.11037172586" lon="21.522714500977">
        <ele>11.4</ele>
        <time>2017-07-27T12:21:16Z</time>
      </trkpt>
      <trkpt lat="60.110362589589" lon="21.522701509032">
        <ele>11.4</ele>
        <time>2017-07-27T12:21:17Z</time>
      </trkpt>
      <trkpt lat="60.110362002856" lon="21.522663790482">
        <ele>11.4</ele>
        <time>2017-07-27T12:21:18Z</time>
      </trkpt>
      <trkpt lat="60.110353201861" lon="21.52265222346">
        <ele>11.4</ele>
        <time>2017-07-27T12:21:19Z</time>
      </trkpt>
      <trkpt lat="60.110351022567" lon="21.522614085815">
        <ele>11.4</ele>
        <time>2017-07-27T12:21:20Z</time>
      </trkpt>
      <trkpt lat="60.110341048106" lon="21.522599836585">
        <ele>11.4</ele>
        <time>2017-07-27T12:21:21Z</time>
      </trkpt>
      <trkpt lat="60.110332833844" lon="21.522579049473">
        <ele>11.4</ele>
        <time>2017-07-27T12:21:22Z</time>
      </trkpt>
      <trkpt lat="60.110329481084" lon="21.522561615121">
        <ele>11.4</ele>
        <time>2017-07-27T12:21:23Z</time>
      </trkpt>
      <trkpt lat="60.110320344813" lon="21.522539570724">
        <ele>11.4</ele>
        <time>2017-07-27T12:21:24Z</time>
      </trkpt>
      <trkpt lat="60.110315231854" lon="21.522522806924">
        <ele>11.4</ele>
        <time>2017-07-27T12:21:25Z</time>
      </trkpt>
      <trkpt lat="60.110304503022" lon="21.522499253785">
        <ele>11.4</ele>
        <time>2017-07-27T12:21:26Z</time>
      </trkpt>
      <trkpt lat="60.110299725339" lon="21.522481987071">
        <ele>11.4</ele>
        <time>2017-07-27T12:21:27Z</time>
      </trkpt>
      <trkpt lat="60.110288828869" lon="21.522457595742">
        <ele>11.4</ele>
        <time>2017-07-27T12:21:28Z</time>
      </trkpt>
      <trkpt lat="60.110285643747" lon="21.52244099958">
        <ele>11.4</ele>
        <time>2017-07-27T12:21:29Z</time>
      </trkpt>
      <trkpt lat="60.110280530788" lon="21.52241585388">
        <ele>11.4</ele>
        <time>2017-07-27T12:21:30Z</time>
      </trkpt>
      <trkpt lat="60.110278016218" lon="21.522384589393">
        <ele>11.4</ele>
        <time>2017-07-27T12:21:31Z</time>
      </trkpt>
      <trkpt lat="60.11027198125" lon="21.522367825593">
        <ele>11.4</ele>
        <time>2017-07-27T12:21:32Z</time>
      </trkpt>
      <trkpt lat="60.11027198125" lon="21.52233538764">
        <ele>11.4</ele>
        <time>2017-07-27T12:21:33Z</time>
      </trkpt>
      <trkpt lat="60.110268544671" lon="21.52231862384">
        <ele>11.4</ele>
        <time>2017-07-27T12:21:34Z</time>
      </trkpt>
      <trkpt lat="60.110266533015" lon="21.522286102068">
        <ele>11.4</ele>
        <time>2017-07-27T12:21:35Z</time>
      </trkpt>
      <trkpt lat="60.110265611006" lon="21.52226414149">
        <ele>11.4</ele>
        <time>2017-07-27T12:21:36Z</time>
      </trkpt>
      <trkpt lat="60.1102594084" lon="21.52223648122">
        <ele>11.4</ele>
        <time>2017-07-27T12:21:37Z</time>
      </trkpt>
      <trkpt lat="60.110260581866" lon="21.52220965914">
        <ele>11.4</ele>
        <time>2017-07-27T12:21:38Z</time>
      </trkpt>
      <trkpt lat="60.110253792527" lon="21.522186944191">
        <ele>11.4</ele>
        <time>2017-07-27T12:21:39Z</time>
      </trkpt>
      <trkpt lat="60.110254463079" lon="21.522171437676">
        <ele>11.4</ele>
        <time>2017-07-27T12:21:40Z</time>
      </trkpt>
      <trkpt lat="60.110252870518" lon="21.522157858998">
        <ele>11.4</ele>
        <time>2017-07-27T12:21:41Z</time>
      </trkpt>
      <trkpt lat="60.110241303496" lon="21.522127432701">
        <ele>11.4</ele>
        <time>2017-07-27T12:21:42Z</time>
      </trkpt>
      <trkpt lat="60.110239040383" lon="21.522115195127">
        <ele>11.4</ele>
        <time>2017-07-27T12:21:43Z</time>
      </trkpt>
      <trkpt lat="60.110229652655" lon="21.52208560702">
        <ele>11.4</ele>
        <time>2017-07-27T12:21:44Z</time>
      </trkpt>
      <trkpt lat="60.110225964619" lon="21.522073956179">
        <ele>11.4</ele>
        <time>2017-07-27T12:21:45Z</time>
      </trkpt>
      <trkpt lat="60.110218085633" lon="21.522040680036">
        <ele>11.4</ele>
        <time>2017-07-27T12:21:46Z</time>
      </trkpt>
      <trkpt lat="60.110212721217" lon="21.522030035023">
        <ele>11.4</ele>
        <time>2017-07-27T12:21:47Z</time>
      </trkpt>
      <trkpt lat="60.110207692077" lon="21.52200178802">
        <ele>11.4</ele>
        <time>2017-07-27T12:21:48Z</time>
      </trkpt>
      <trkpt lat="60.110205512783" lon="21.521980330356">
        <ele>11.4</ele>
        <time>2017-07-27T12:21:49Z</time>
      </trkpt>
      <trkpt lat="60.1102007351" lon="21.521952502448">
        <ele>11.4</ele>
        <time>2017-07-27T12:21:50Z</time>
      </trkpt>
      <trkpt lat="60.110202746756" lon="21.521930374232">
        <ele>11.4</ele>
        <time>2017-07-27T12:21:51Z</time>
      </trkpt>
      <trkpt lat="60.110197885254" lon="21.521902965419">
        <ele>11.4</ele>
        <time>2017-07-27T12:21:52Z</time>
      </trkpt>
      <trkpt lat="60.110201405652" lon="21.521882094488">
        <ele>11.4</ele>
        <time>2017-07-27T12:21:53Z</time>
      </trkpt>
      <trkpt lat="60.110195035408" lon="21.521857954616">
        <ele>11.4</ele>
        <time>2017-07-27T12:21:54Z</time>
      </trkpt>
      <trkpt lat="60.1102007351" lon="21.521831216355">
        <ele>11.4</ele>
        <time>2017-07-27T12:21:55Z</time>
      </trkpt>
      <trkpt lat="60.110195789779" lon="21.521806405931">
        <ele>11.4</ele>
        <time>2017-07-27T12:21:56Z</time>
      </trkpt>
      <trkpt lat="60.110196963245" lon="21.521788636303">
        <ele>11.4</ele>
        <time>2017-07-27T12:21:57Z</time>
      </trkpt>
      <trkpt lat="60.110195286865" lon="21.521774135616">
        <ele>11.4</ele>
        <time>2017-07-27T12:21:58Z</time>
      </trkpt>
      <trkpt lat="60.11019151501" lon="21.52174781645">
        <ele>11.4</ele>
        <time>2017-07-27T12:21:59Z</time>
      </trkpt>
      <trkpt lat="60.110189419535" lon="21.521727783709">
        <ele>11.4</ele>
        <time>2017-07-27T12:22:00Z</time>
      </trkpt>
      <trkpt lat="60.110189084259" lon="21.521698027964">
        <ele>11.4</ele>
        <time>2017-07-27T12:22:01Z</time>
      </trkpt>
      <trkpt lat="60.110191095915" lon="21.521674139549">
        <ele>11.4</ele>
        <time>2017-07-27T12:22:02Z</time>
      </trkpt>
      <trkpt lat="60.110191431191" lon="21.521646311641">
        <ele>11.4</ele>
        <time>2017-07-27T12:22:03Z</time>
      </trkpt>
      <trkpt lat="60.110193442847" lon="21.52163130804">
        <ele>11.4</ele>
        <time>2017-07-27T12:22:04Z</time>
      </trkpt>
      <trkpt lat="60.110193945761" lon="21.521600127372">
        <ele>11.4</ele>
        <time>2017-07-27T12:22:05Z</time>
      </trkpt>
      <trkpt lat="60.110200232186" lon="21.521579004984">
        <ele>11.4</ele>
        <time>2017-07-27T12:22:06Z</time>
      </trkpt>
      <trkpt lat="60.110200567462" lon="21.521547908135">
        <ele>11.4</ele>
        <time>2017-07-27T12:22:07Z</time>
      </trkpt>
      <trkpt lat="60.110207943534" lon="21.521528629765">
        <ele>11.4</ele>
        <time>2017-07-27T12:22:08Z</time>
      </trkpt>
      <trkpt lat="60.110205093688" lon="21.521501975323">
        <ele>11.4</ele>
        <time>2017-07-27T12:22:09Z</time>
      </trkpt>
      <trkpt lat="60.110214313778" lon="21.521475320881">
        <ele>11.4</ele>
        <time>2017-07-27T12:22:10Z</time>
      </trkpt>
      <trkpt lat="60.110210458104" lon="21.521449085534">
        <ele>11.4</ele>
        <time>2017-07-27T12:22:11Z</time>
      </trkpt>
      <trkpt lat="60.110218756185" lon="21.521423185463">
        <ele>11.4</ele>
        <time>2017-07-27T12:22:12Z</time>
      </trkpt>
      <trkpt lat="60.110212050665" lon="21.521395022279">
        <ele>11.4</ele>
        <time>2017-07-27T12:22:13Z</time>
      </trkpt>
      <trkpt lat="60.110219091461" lon="21.521369038389">
        <ele>11.4</ele>
        <time>2017-07-27T12:22:14Z</time>
      </trkpt>
      <trkpt lat="60.110212050665" lon="21.521342635404">
        <ele>11.4</ele>
        <time>2017-07-27T12:22:15Z</time>
      </trkpt>
      <trkpt lat="60.110220181108" lon="21.521318914627">
        <ele>11.4</ele>
        <time>2017-07-27T12:22:16Z</time>
      </trkpt>
      <trkpt lat="60.110214649054" lon="21.521293182194">
        <ele>11.4</ele>
        <time>2017-07-27T12:22:17Z</time>
      </trkpt>
      <trkpt lat="60.110219762013" lon="21.521277843317">
        <ele>11.4</ele>
        <time>2017-07-27T12:22:18Z</time>
      </trkpt>
      <trkpt lat="60.110220264927" lon="21.521241633509">
        <ele>11.4</ele>
        <time>2017-07-27T12:22:19Z</time>
      </trkpt>
      <trkpt lat="60.110225210248" lon="21.521222606596">
        <ele>11.4</ele>
        <time>2017-07-27T12:22:20Z</time>
      </trkpt>
      <trkpt lat="60.110226635171" lon="21.521188827539">
        <ele>11.4</ele>
        <time>2017-07-27T12:22:21Z</time>
      </trkpt>
      <trkpt lat="60.110236190537" lon="21.521173237205">
        <ele>11.4</ele>
        <time>2017-07-27T12:22:22Z</time>
      </trkpt>
      <trkpt lat="60.11023677727" lon="21.521143900555">
        <ele>11.4</ele>
        <time>2017-07-27T12:22:23Z</time>
      </trkpt>
      <trkpt lat="60.110249601577" lon="21.5211233649">
        <ele>11.4</ele>
        <time>2017-07-27T12:22:24Z</time>
      </trkpt>
      <trkpt lat="60.110249685396" lon="21.521094112069">
        <ele>11.4</ele>
        <time>2017-07-27T12:22:25Z</time>
      </trkpt>
      <trkpt lat="60.110263431712" lon="21.521071900034">
        <ele>11.4</ele>
        <time>2017-07-27T12:22:26Z</time>
      </trkpt>
      <trkpt lat="60.110265778644" lon="21.521039629719">
        <ele>11.4</ele>
        <time>2017-07-27T12:22:27Z</time>
      </trkpt>
      <trkpt lat="60.110274328182" lon="21.521020518987">
        <ele>11.4</ele>
        <time>2017-07-27T12:22:28Z</time>
      </trkpt>
      <trkpt lat="60.110277261847" lon="21.520992188165">
        <ele>11.4</ele>
        <time>2017-07-27T12:22:29Z</time>
      </trkpt>
      <trkpt lat="60.110284470281" lon="21.520966874827">
        <ele>11.4</ele>
        <time>2017-07-27T12:22:30Z</time>
      </trkpt>
      <trkpt lat="60.110290337611" lon="21.52093477215">
        <ele>11.4</ele>
        <time>2017-07-27T12:22:31Z</time>
      </trkpt>
      <trkpt lat="60.110293941828" lon="21.520913649762">
        <ele>11.4</ele>
        <time>2017-07-27T12:22:32Z</time>
      </trkpt>
      <trkpt lat="60.110301988452" lon="21.520882552913">
        <ele>11.4</ele>
        <time>2017-07-27T12:22:33Z</time>
      </trkpt>
      <trkpt lat="60.110300982624" lon="21.520861765801">
        <ele>11.4</ele>
        <time>2017-07-27T12:22:34Z</time>
      </trkpt>
      <trkpt lat="60.110310370352" lon="21.520830668952">
        <ele>11.4</ele>
        <time>2017-07-27T12:22:35Z</time>
      </trkpt>
      <trkpt lat="60.110308107239" lon="21.520807115813">
        <ele>11.4</ele>
        <time>2017-07-27T12:22:36Z</time>
      </trkpt>
      <trkpt lat="60.110320093356" lon="21.520774929317">
        <ele>11.4</ele>
        <time>2017-07-27T12:22:37Z</time>
      </trkpt>
      <trkpt lat="60.110314980397" lon="21.520750035074">
        <ele>11.4</ele>
        <time>2017-07-27T12:22:38Z</time>
      </trkpt>
      <trkpt lat="60.110324451944" lon="21.520723883546">
        <ele>11.4</ele>
        <time>2017-07-27T12:22:39Z</time>
      </trkpt>
      <trkpt lat="60.110322775564" lon="21.520694882172">
        <ele>11.4</ele>
        <time>2017-07-27T12:22:40Z</time>
      </trkpt>
      <trkpt lat="60.110332498568" lon="21.520673675965">
        <ele>11.4</ele>
        <time>2017-07-27T12:22:41Z</time>
      </trkpt>
      <trkpt lat="60.110333085301" lon="21.520639896908">
        <ele>11.4</ele>
        <time>2017-07-27T12:22:42Z</time>
      </trkpt>
      <trkpt lat="60.110339371726" lon="21.520621792004">
        <ele>11.4</ele>
        <time>2017-07-27T12:22:43Z</time>
      </trkpt>
      <trkpt lat="60.110341970115" lon="21.520589018775">
        <ele>11.4</ele>
        <time>2017-07-27T12:22:44Z</time>
      </trkpt>
      <trkpt lat="60.110348591816" lon="21.520568231663">
        <ele>11.4</ele>
        <time>2017-07-27T12:22:45Z</time>
      </trkpt>
      <trkpt lat="60.110349681463" lon="21.520536883357">
        <ele>11.4</ele>
        <time>2017-07-27T12:22:46Z</time>
      </trkpt>
      <trkpt lat="60.110355716431" lon="21.520525483973">
        <ele>11.4</ele>
        <time>2017-07-27T12:22:47Z</time>
      </trkpt>
      <trkpt lat="60.110362002856" lon="21.520488603613">
        <ele>11.4</ele>
        <time>2017-07-27T12:22:48Z</time>
      </trkpt>
      <trkpt lat="60.110369630385" lon="21.52047041489">
        <ele>11.4</ele>
        <time>2017-07-27T12:22:49Z</time>
      </trkpt>
      <trkpt lat="60.110372899326" lon="21.520437557842">
        <ele>11.4</ele>
        <time>2017-07-27T12:22:50Z</time>
      </trkpt>
      <trkpt lat="60.11038094595" lon="21.520420374947">
        <ele>11.4</ele>
        <time>2017-07-27T12:22:51Z</time>
      </trkpt>
      <trkpt lat="60.110385723633" lon="21.520389529555">
        <ele>11.4</ele>
        <time>2017-07-27T12:22:52Z</time>
      </trkpt>
      <trkpt lat="60.110385807452" lon="21.520370251185">
        <ele>11.4</ele>
        <time>2017-07-27T12:22:53Z</time>
      </trkpt>
      <trkpt lat="60.110393434981" lon="21.520341082173">
        <ele>11.4</ele>
        <time>2017-07-27T12:22:54Z</time>
      </trkpt>
      <trkpt lat="60.110392932067" lon="21.520318786319">
        <ele>11.4</ele>
        <time>2017-07-27T12:22:55Z</time>
      </trkpt>
      <trkpt lat="60.110401984519" lon="21.520285258719">
        <ele>11.4</ele>
        <time>2017-07-27T12:22:56Z</time>
      </trkpt>
      <trkpt lat="60.11039938613" lon="21.52026338196">
        <ele>11.4</ele>
        <time>2017-07-27T12:22:57Z</time>
      </trkpt>
      <trkpt lat="60.110409360591" lon="21.520230357274">
        <ele>11.4</ele>
        <time>2017-07-27T12:22:58Z</time>
      </trkpt>
      <trkpt lat="60.110405421098" lon="21.520212755284">
        <ele>11.4</ele>
        <time>2017-07-27T12:22:59Z</time>
      </trkpt>
      <trkpt lat="60.110416317568" lon="21.520181490797">
        <ele>11.4</ele>
        <time>2017-07-27T12:23:00Z</time>
      </trkpt>
      <trkpt lat="60.110411288428" lon="21.520155758364">
        <ele>11.4</ele>
        <time>2017-07-27T12:23:01Z</time>
      </trkpt>
      <trkpt lat="60.110421598165" lon="21.520131702311">
        <ele>11.4</ele>
        <time>2017-07-27T12:23:02Z</time>
      </trkpt>
      <trkpt lat="60.110416569025" lon="21.520101862747">
        <ele>11.4</ele>
        <time>2017-07-27T12:23:03Z</time>
      </trkpt>
      <trkpt lat="60.110424783287" lon="21.520082752015">
        <ele>11.4</ele>
        <time>2017-07-27T12:23:04Z</time>
      </trkpt>
      <trkpt lat="60.110425118563" lon="21.520051655166">
        <ele>11.4</ele>
        <time>2017-07-27T12:23:05Z</time>
      </trkpt>
      <trkpt lat="60.110426794943" lon="21.520031287149">
        <ele>11.4</ele>
        <time>2017-07-27T12:23:06Z</time>
      </trkpt>
      <trkpt lat="60.110431572626" lon="21.519994574427">
        <ele>11.4</ele>
        <time>2017-07-27T12:23:07Z</time>
      </trkpt>
      <trkpt lat="60.110430818255" lon="21.519978229722">
        <ele>11.4</ele>
        <time>2017-07-27T12:23:08Z</time>
      </trkpt>
      <trkpt lat="60.110439283974" lon="21.519948725434">
        <ele>11.4</ele>
        <time>2017-07-27T12:23:09Z</time>
      </trkpt>
      <trkpt lat="60.110436350309" lon="21.51992810596">
        <ele>11.4</ele>
        <time>2017-07-27T12:23:10Z</time>
      </trkpt>
      <trkpt lat="60.110446743865" lon="21.519898601672">
        <ele>11.4</ele>
        <time>2017-07-27T12:23:11Z</time>
      </trkpt>
      <trkpt lat="60.110445570399" lon="21.519874210343">
        <ele>11.4</ele>
        <time>2017-07-27T12:23:12Z</time>
      </trkpt>
      <trkpt lat="60.110458227068" lon="21.519844957512">
        <ele>11.4</ele>
        <time>2017-07-27T12:23:13Z</time>
      </trkpt>
      <trkpt lat="60.110456550688" lon="21.51981914126">
        <ele>11.4</ele>
        <time>2017-07-27T12:23:14Z</time>
      </trkpt>
      <trkpt lat="60.110467530977" lon="21.519798018872">
        <ele>11.4</ele>
        <time>2017-07-27T12:23:15Z</time>
      </trkpt>
      <trkpt lat="60.110468788262" lon="21.51976633529">
        <ele>11.4</ele>
        <time>2017-07-27T12:23:16Z</time>
      </trkpt>
      <trkpt lat="60.110477756895" lon="21.519750242042">
        <ele>11.4</ele>
        <time>2017-07-27T12:23:17Z</time>
      </trkpt>
      <trkpt lat="60.110480020008" lon="21.519715624795">
        <ele>11.4</ele>
        <time>2017-07-27T12:23:18Z</time>
      </trkpt>
      <trkpt lat="60.11048823427" lon="21.519698274262">
        <ele>11.4</ele>
        <time>2017-07-27T12:23:19Z</time>
      </trkpt>
      <trkpt lat="60.110491419392" lon="21.5196649143">
        <ele>11.4</ele>
        <time>2017-07-27T12:23:20Z</time>
      </trkpt>
      <trkpt lat="60.110495442704" lon="21.519646557939">
        <ele>11.4</ele>
        <time>2017-07-27T12:23:21Z</time>
      </trkpt>
      <trkpt lat="60.110499549835" lon="21.519614287624">
        <ele>11.4</ele>
        <time>2017-07-27T12:23:22Z</time>
      </trkpt>
      <trkpt lat="60.11050499807" lon="21.51959618272">
        <ele>11.4</ele>
        <time>2017-07-27T12:23:23Z</time>
      </trkpt>
      <trkpt lat="60.110507596459" lon="21.519565672604">
        <ele>11.4</ele>
        <time>2017-07-27T12:23:24Z</time>
      </trkpt>
      <trkpt lat="60.110512877056" lon="21.519547819157">
        <ele>11.4</ele>
        <time>2017-07-27T12:23:25Z</time>
      </trkpt>
      <trkpt lat="60.110515726902" lon="21.519517644317">
        <ele>11.4</ele>
        <time>2017-07-27T12:23:26Z</time>
      </trkpt>
      <trkpt lat="60.110517738558" lon="21.519496019015">
        <ele>11.4</ele>
        <time>2017-07-27T12:23:27Z</time>
      </trkpt>
      <trkpt lat="60.110518157653" lon="21.519473136428">
        <ele>11.4</ele>
        <time>2017-07-27T12:23:28Z</time>
      </trkpt>
      <trkpt lat="60.110521594232" lon="21.519450421479">
        <ele>11.4</ele>
        <time>2017-07-27T12:23:29Z</time>
      </trkpt>
      <trkpt lat="60.11052260006" lon="21.519421587743">
        <ele>11.4</ele>
        <time>2017-07-27T12:23:30Z</time>
      </trkpt>
      <trkpt lat="60.110527461562" lon="21.519397112595">
        <ele>11.4</ele>
        <time>2017-07-27T12:23:31Z</time>
      </trkpt>
      <trkpt lat="60.110532490702" lon="21.519377079854">
        <ele>11.4</ele>
        <time>2017-07-27T12:23:32Z</time>
      </trkpt>
      <trkpt lat="60.110542129887" lon="21.519349838679">
        <ele>11.4</ele>
        <time>2017-07-27T12:23:33Z</time>
      </trkpt>
      <trkpt lat="60.110541794611" lon="21.519330392671">
        <ele>11.4</ele>
        <time>2017-07-27T12:23:34Z</time>
      </trkpt>
      <trkpt lat="60.110553696909" lon="21.519304073505">
        <ele>11.4</ele>
        <time>2017-07-27T12:23:35Z</time>
      </trkpt>
      <trkpt lat="60.110554618918" lon="21.519281777651">
        <ele>11.4</ele>
        <time>2017-07-27T12:23:36Z</time>
      </trkpt>
      <trkpt lat="60.110567527044" lon="21.519253698286">
        <ele>11.4</ele>
        <time>2017-07-27T12:23:37Z</time>
      </trkpt>
      <trkpt lat="60.110568197596" lon="21.519233581726">
        <ele>11.4</ele>
        <time>2017-07-27T12:23:38Z</time>
      </trkpt>
      <trkpt lat="60.110580686627" lon="21.519206089094">
        <ele>11.4</ele>
        <time>2017-07-27T12:23:39Z</time>
      </trkpt>
      <trkpt lat="60.110580938084" lon="21.519185972534">
        <ele>11.4</ele>
        <time>2017-07-27T12:23:40Z</time>
      </trkpt>
      <trkpt lat="60.110594013848" lon="21.519155965332">
        <ele>11.4</ele>
        <time>2017-07-27T12:23:41Z</time>
      </trkpt>
      <trkpt lat="60.110593259477" lon="21.519137022238">
        <ele>11.4</ele>
        <time>2017-07-27T12:23:42Z</time>
      </trkpt>
      <trkpt lat="60.11060390449" lon="21.519102572629">
        <ele>11.4</ele>
        <time>2017-07-27T12:23:43Z</time>
      </trkpt>
      <trkpt lat="60.110603401576" lon="21.519087149933">
        <ele>11.4</ele>
        <time>2017-07-27T12:23:44Z</time>
      </trkpt>
      <trkpt lat="60.110613292218" lon="21.519054041428">
        <ele>11.4</ele>
        <time>2017-07-27T12:23:45Z</time>
      </trkpt>
      <trkpt lat="60.110612118752" lon="21.519032332307">
        <ele>11.4</ele>
        <time>2017-07-27T12:23:46Z</time>
      </trkpt>
      <trkpt lat="60.110622847584" lon="21.519004252942">
        <ele>11.4</ele>
        <time>2017-07-27T12:23:47Z</time>
      </trkpt>
      <trkpt lat="60.110622931403" lon="21.518974748654">
        <ele>11.4</ele>
        <time>2017-07-27T12:23:48Z</time>
      </trkpt>
      <trkpt lat="60.110632654407" lon="21.518953458628">
        <ele>11.4</ele>
        <time>2017-07-27T12:23:49Z</time>
      </trkpt>
      <trkpt lat="60.11063324114" lon="21.518918422286">
        <ele>11.4</ele>
        <time>2017-07-27T12:23:50Z</time>
      </trkpt>
      <trkpt lat="60.110642545049" lon="21.518898221907">
        <ele>11.4</ele>
        <time>2017-07-27T12:23:51Z</time>
      </trkpt>
      <trkpt lat="60.110645646352" lon="21.518862934108">
        <ele>11.4</ele>
        <time>2017-07-27T12:23:52Z</time>
      </trkpt>
      <trkpt lat="60.110652184234" lon="21.518844661566">
        <ele>11.4</ele>
        <time>2017-07-27T12:23:53Z</time>
      </trkpt>
      <trkpt lat="60.110656039908" lon="21.518810211957">
        <ele>11.4</ele>
        <time>2017-07-27T12:23:54Z</time>
      </trkpt>
      <trkpt lat="60.110662745428" lon="21.518789592483">
        <ele>11.4</ele>
        <time>2017-07-27T12:23:55Z</time>
      </trkpt>
      <trkpt lat="60.110669031853" lon="21.518753047399">
        <ele>11.4</ele>
        <time>2017-07-27T12:23:56Z</time>
      </trkpt>
      <trkpt lat="60.11067179788" lon="21.518731673554">
        <ele>11.4</ele>
        <time>2017-07-27T12:23:57Z</time>
      </trkpt>
      <trkpt lat="60.110676407925" lon="21.518697810678">
        <ele>11.4</ele>
        <time>2017-07-27T12:23:58Z</time>
      </trkpt>
      <trkpt lat="60.110678671038" lon="21.518676855928">
        <ele>11.4</ele>
        <time>2017-07-27T12:23:59Z</time>
      </trkpt>
      <trkpt lat="60.110680431237" lon="21.518642993052">
        <ele>11.4</ele>
        <time>2017-07-27T12:24:00Z</time>
      </trkpt>
      <trkpt lat="60.110685376558" lon="21.518624049958">
        <ele>11.4</ele>
        <time>2017-07-27T12:24:01Z</time>
      </trkpt>
      <trkpt lat="60.11068939987" lon="21.51858616377">
        <ele>11.4</ele>
        <time>2017-07-27T12:24:02Z</time>
      </trkpt>
      <trkpt lat="60.11069359082" lon="21.518571243988">
        <ele>11.4</ele>
        <time>2017-07-27T12:24:03Z</time>
      </trkpt>
      <trkpt lat="60.110702559453" lon="21.518544589546">
        <ele>11.4</ele>
        <time>2017-07-27T12:24:04Z</time>
      </trkpt>
      <trkpt lat="60.110710773715" lon="21.518521706959">
        <ele>11.4</ele>
        <time>2017-07-27T12:24:05Z</time>
      </trkpt>
      <trkpt lat="60.11071370738" lon="21.518488263178">
        <ele>11.4</ele>
        <time>2017-07-27T12:24:06Z</time>
      </trkpt>
      <trkpt lat="60.110727788972" lon="21.518472002292">
        <ele>11.4</ele>
        <time>2017-07-27T12:24:07Z</time>
      </trkpt>
      <trkpt lat="60.110730135904" lon="21.51844031871">
        <ele>11.4</ele>
        <time>2017-07-27T12:24:08Z</time>
      </trkpt>
      <trkpt lat="60.110742960211" lon="21.518422129987">
        <ele>11.4</ele>
        <time>2017-07-27T12:24:09Z</time>
      </trkpt>
      <trkpt lat="60.110746061514" lon="21.51839589464">
        <ele>11.4</ele>
        <time>2017-07-27T12:24:10Z</time>
      </trkpt>
      <trkpt lat="60.110750923016" lon="21.518371251854">
        <ele>11.4</ele>
        <time>2017-07-27T12:24:11Z</time>
      </trkpt>
      <trkpt lat="60.110754946328" lon="21.518345770878">
        <ele>11.4</ele>
        <time>2017-07-27T12:24:12Z</time>
      </trkpt>
      <trkpt lat="60.110760478382" lon="21.518321798644">
        <ele>11.4</ele>
        <time>2017-07-27T12:24:13Z</time>
      </trkpt>
      <trkpt lat="60.110764082599" lon="21.518292042899">
        <ele>11.4</ele>
        <time>2017-07-27T12:24:14Z</time>
      </trkpt>
      <trkpt lat="60.110770369024" lon="21.518269160312">
        <ele>11.4</ele>
        <time>2017-07-27T12:24:15Z</time>
      </trkpt>
      <trkpt lat="60.110778415648" lon="21.518246026268">
        <ele>11.4</ele>
        <time>2017-07-27T12:24:16Z</time>
      </trkpt>
      <trkpt lat="60.110783863883" lon="21.518214426505">
        <ele>11.4</ele>
        <time>2017-07-27T12:24:17Z</time>
      </trkpt>
      <trkpt lat="60.110791742869" lon="21.518194309945">
        <ele>11.4</ele>
        <time>2017-07-27T12:24:18Z</time>
      </trkpt>
      <trkpt lat="60.11079668819" lon="21.518165476209">
        <ele>11.4</ele>
        <time>2017-07-27T12:24:19Z</time>
      </trkpt>
      <trkpt lat="60.110801130597" lon="21.518136223378">
        <ele>11.4</ele>
        <time>2017-07-27T12:24:20Z</time>
      </trkpt>
      <trkpt lat="60.1108042319" lon="21.518117950836">
        <ele>11.4</ele>
        <time>2017-07-27T12:24:21Z</time>
      </trkpt>
      <trkpt lat="60.110811272696" lon="21.518084507055">
        <ele>11.4</ele>
        <time>2017-07-27T12:24:22Z</time>
      </trkpt>
      <trkpt lat="60.11081596656" lon="21.51806564778">
        <ele>11.4</ele>
        <time>2017-07-27T12:24:23Z</time>
      </trkpt>
      <trkpt lat="60.110825102831" lon="21.518035640578">
        <ele>11.4</ele>
        <time>2017-07-27T12:24:24Z</time>
      </trkpt>
      <trkpt lat="60.110835580206" lon="21.518013931457">
        <ele>11.4</ele>
        <time>2017-07-27T12:24:25Z</time>
      </trkpt>
      <trkpt lat="60.110841615174" lon="21.517980068581">
        <ele>11.4</ele>
        <time>2017-07-27T12:24:26Z</time>
      </trkpt>
      <trkpt lat="60.110854188024" lon="21.517963556238">
        <ele>11.4</ele>
        <time>2017-07-27T12:24:27Z</time>
      </trkpt>
      <trkpt lat="60.110858378974" lon="21.517930363914">
        <ele>11.4</ele>
        <time>2017-07-27T12:24:28Z</time>
      </trkpt>
      <trkpt lat="60.110869275444" lon="21.51791477358">
        <ele>11.4</ele>
        <time>2017-07-27T12:24:29Z</time>
      </trkpt>
      <trkpt lat="60.110875142774" lon="21.517878982867">
        <ele>11.4</ele>
        <time>2017-07-27T12:24:30Z</time>
      </trkpt>
      <trkpt lat="60.110887547986" lon="21.517863392533">
        <ele>11.4</ele>
        <time>2017-07-27T12:24:31Z</time>
      </trkpt>
      <trkpt lat="60.11089224185" lon="21.517827182725">
        <ele>11.4</ele>
        <time>2017-07-27T12:24:32Z</time>
      </trkpt>
      <trkpt lat="60.110902048673" lon="21.517809916011">
        <ele>11.4</ele>
        <time>2017-07-27T12:24:33Z</time>
      </trkpt>
      <trkpt lat="60.110906658718" lon="21.517776304592">
        <ele>11.4</ele>
        <time>2017-07-27T12:24:34Z</time>
      </trkpt>
      <trkpt lat="60.110915962627" lon="21.517759205516">
        <ele>11.4</ele>
        <time>2017-07-27T12:24:35Z</time>
      </trkpt>
      <trkpt lat="60.110921746138" lon="21.517722241337">
        <ele>11.4</ele>
        <time>2017-07-27T12:24:36Z</time>
      </trkpt>
      <trkpt lat="60.110931469142" lon="21.517705393718">
        <ele>11.4</ele>
        <time>2017-07-27T12:24:37Z</time>
      </trkpt>
      <trkpt lat="60.110937755567" lon="21.517672033756">
        <ele>11.4</ele>
        <time>2017-07-27T12:24:38Z</time>
      </trkpt>
      <trkpt lat="60.110945969829" lon="21.517657784526">
        <ele>11.4</ele>
        <time>2017-07-27T12:24:39Z</time>
      </trkpt>
      <trkpt lat="60.110954435548" lon="21.517625262754">
        <ele>11.4</ele>
        <time>2017-07-27T12:24:40Z</time>
      </trkpt>
      <trkpt lat="60.110959380869" lon="21.517606654936">
        <ele>11.4</ele>
        <time>2017-07-27T12:24:41Z</time>
      </trkpt>
      <trkpt lat="60.110970361158" lon="21.517573294974">
        <ele>11.4</ele>
        <time>2017-07-27T12:24:42Z</time>
      </trkpt>
      <trkpt lat="60.110970612615" lon="21.51755602826">
        <ele>11.4</ele>
        <time>2017-07-27T12:24:43Z</time>
      </trkpt>
      <trkpt lat="60.110981341447" lon="21.517524428497">
        <ele>11.4</ele>
        <time>2017-07-27T12:24:44Z</time>
      </trkpt>
      <trkpt lat="60.110980419438" lon="21.517502551738">
        <ele>11.4</ele>
        <time>2017-07-27T12:24:45Z</time>
      </trkpt>
      <trkpt lat="60.110993076107" lon="21.517473466545">
        <ele>11.4</ele>
        <time>2017-07-27T12:24:46Z</time>
      </trkpt>
      <trkpt lat="60.110990226261" lon="21.517450164863">
        <ele>11.4</ele>
        <time>2017-07-27T12:24:47Z</time>
      </trkpt>
      <trkpt lat="60.111002296197" lon="21.517422588412">
        <ele>11.4</ele>
        <time>2017-07-27T12:24:48Z</time>
      </trkpt>
      <trkpt lat="60.11100204474" lon="21.517391156287">
        <ele>11.4</ele>
        <time>2017-07-27T12:24:49Z</time>
      </trkpt>
      <trkpt lat="60.111011097192" lon="21.517367603148">
        <ele>11.4</ele>
        <time>2017-07-27T12:24:50Z</time>
      </trkpt>
      <trkpt lat="60.111014282314" lon="21.517337344489">
        <ele>11.4</ele>
        <time>2017-07-27T12:24:51Z</time>
      </trkpt>
      <trkpt lat="60.111017635074" lon="21.517307169649">
        <ele>11.4</ele>
        <time>2017-07-27T12:24:52Z</time>
      </trkpt>
      <trkpt lat="60.111020233463" lon="21.517289064745">
        <ele>11.4</ele>
        <time>2017-07-27T12:24:53Z</time>
      </trkpt>
      <trkpt lat="60.111025681698" lon="21.517248496349">
        <ele>11.4</ele>
        <time>2017-07-27T12:24:54Z</time>
      </trkpt>
      <trkpt lat="60.111029118277" lon="21.51723164873">
        <ele>11.4</ele>
        <time>2017-07-27T12:24:55Z</time>
      </trkpt>
      <trkpt lat="60.111034566512" lon="21.517188649583">
        <ele>11.4</ele>
        <time>2017-07-27T12:24:56Z</time>
      </trkpt>
      <trkpt lat="60.111036997263" lon="21.517172304878">
        <ele>11.4</ele>
        <time>2017-07-27T12:24:57Z</time>
      </trkpt>
      <trkpt lat="60.11104479243" lon="21.517132574672">
        <ele>11.4</ele>
        <time>2017-07-27T12:24:58Z</time>
      </trkpt>
      <trkpt lat="60.111048229009" lon="21.517117235795">
        <ele>11.4</ele>
        <time>2017-07-27T12:24:59Z</time>
      </trkpt>
      <trkpt lat="60.111059209298" lon="21.517085468394">
        <ele>11.4</ele>
        <time>2017-07-27T12:25:00Z</time>
      </trkpt>
      <trkpt lat="60.11106574718" lon="21.517059987418">
        <ele>11.4</ele>
        <time>2017-07-27T12:25:01Z</time>
      </trkpt>
      <trkpt lat="60.111072704157" lon="21.517043558894">
        <ele>11.4</ele>
        <time>2017-07-27T12:25:02Z</time>
      </trkpt>
      <trkpt lat="60.111083516808" lon="21.517025537809">
        <ele>10.4</ele>
        <time>2017-07-27T12:25:03Z</time>
      </trkpt>
      <trkpt lat="60.111086618111" lon="21.516999134824">
        <ele>8.6</ele>
        <time>2017-07-27T12:25:04Z</time>
      </trkpt>
      <trkpt lat="60.111102711359" lon="21.51698019173">
        <ele>8.8</ele>
        <time>2017-07-27T12:25:05Z</time>
      </trkpt>
      <trkpt lat="60.111104471558" lon="21.516953034374">
        <ele>9</ele>
        <time>2017-07-27T12:25:06Z</time>
      </trkpt>
      <trkpt lat="60.111096508753" lon="21.516925960837">
        <ele>9.4</ele>
        <time>2017-07-27T12:25:07Z</time>
      </trkpt>
      <trkpt lat="60.111105812662" lon="21.516914980548">
        <ele>9.6</ele>
        <time>2017-07-27T12:25:08Z</time>
      </trkpt>
      <trkpt lat="60.111113775467" lon="21.516880866215">
        <ele>9.8</ele>
        <time>2017-07-27T12:25:09Z</time>
      </trkpt>
      <trkpt lat="60.111120397168" lon="21.51686619789">
        <ele>10</ele>
        <time>2017-07-27T12:25:10Z</time>
      </trkpt>
      <trkpt lat="60.111128862887" lon="21.516830910091">
        <ele>10</ele>
        <time>2017-07-27T12:25:11Z</time>
      </trkpt>
      <trkpt lat="60.111136741873" lon="21.516813559558">
        <ele>10</ele>
        <time>2017-07-27T12:25:12Z</time>
      </trkpt>
      <trkpt lat="60.111147135429" lon="21.516791096066">
        <ele>10</ele>
        <time>2017-07-27T12:25:13Z</time>
      </trkpt>
      <trkpt lat="60.111160127374" lon="21.516767040013">
        <ele>10</ele>
        <time>2017-07-27T12:25:14Z</time>
      </trkpt>
      <trkpt lat="60.11116381541" lon="21.516739128286">
        <ele>10</ele>
        <time>2017-07-27T12:25:15Z</time>
      </trkpt>
      <trkpt lat="60.111179992477" lon="21.51671532369">
        <ele>10</ele>
        <time>2017-07-27T12:25:16Z</time>
      </trkpt>
      <trkpt lat="60.111184267246" lon="21.516696212958">
        <ele>10</ele>
        <time>2017-07-27T12:25:17Z</time>
      </trkpt>
      <trkpt lat="60.111190805128" lon="21.516667211584">
        <ele>10</ele>
        <time>2017-07-27T12:25:18Z</time>
      </trkpt>
      <trkpt lat="60.111199187028" lon="21.516650363965">
        <ele>10</ele>
        <time>2017-07-27T12:25:19Z</time>
      </trkpt>
      <trkpt lat="60.111208993851" lon="21.51661893184">
        <ele>10</ele>
        <time>2017-07-27T12:25:20Z</time>
      </trkpt>
      <trkpt lat="60.111216369923" lon="21.516599821108">
        <ele>10</ele>
        <time>2017-07-27T12:25:21Z</time>
      </trkpt>
      <trkpt lat="60.111225422375" lon="21.516567299336">
        <ele>10</ele>
        <time>2017-07-27T12:25:22Z</time>
      </trkpt>
      <trkpt lat="60.1112317088" lon="21.516550451717">
        <ele>10</ele>
        <time>2017-07-27T12:25:23Z</time>
      </trkpt>
      <trkpt lat="60.111240425976" lon="21.51651499628">
        <ele>10</ele>
        <time>2017-07-27T12:25:24Z</time>
      </trkpt>
      <trkpt lat="60.111247550591" lon="21.516497059014">
        <ele>10</ele>
        <time>2017-07-27T12:25:25Z</time>
      </trkpt>
      <trkpt lat="60.11125769269" lon="21.516460681568">
        <ele>10</ele>
        <time>2017-07-27T12:25:26Z</time>
      </trkpt>
      <trkpt lat="60.111264482029" lon="21.51644542651">
        <ele>10</ele>
        <time>2017-07-27T12:25:27Z</time>
      </trkpt>
      <trkpt lat="60.111275881413" lon="21.516414078204">
        <ele>10</ele>
        <time>2017-07-27T12:25:28Z</time>
      </trkpt>
      <trkpt lat="60.111284263313" lon="21.516398152594">
        <ele>10</ele>
        <time>2017-07-27T12:25:29Z</time>
      </trkpt>
      <trkpt lat="60.111298428724" lon="21.51637753312">
        <ele>10</ele>
        <time>2017-07-27T12:25:30Z</time>
      </trkpt>
      <trkpt lat="60.111308906099" lon="21.516363786804">
        <ele>10</ele>
        <time>2017-07-27T12:25:31Z</time>
      </trkpt>
      <trkpt lat="60.111322820053" lon="21.516337970552">
        <ele>10</ele>
        <time>2017-07-27T12:25:32Z</time>
      </trkpt>
      <trkpt lat="60.111332710695" lon="21.516331013575">
        <ele>10</ele>
        <time>2017-07-27T12:25:33Z</time>
      </trkpt>
      <trkpt lat="60.11134402626" lon="21.516312824852">
        <ele>10</ele>
        <time>2017-07-27T12:25:34Z</time>
      </trkpt>
      <trkpt lat="60.111355928558" lon="21.516290780455">
        <ele>10</ele>
        <time>2017-07-27T12:25:35Z</time>
      </trkpt>
      <trkpt lat="60.111364561915" lon="21.516278039967">
        <ele>10</ele>
        <time>2017-07-27T12:25:36Z</time>
      </trkpt>
      <trkpt lat="60.111379900792" lon="21.516250631154">
        <ele>10</ele>
        <time>2017-07-27T12:25:37Z</time>
      </trkpt>
      <trkpt lat="60.111387193045" lon="21.516241243426">
        <ele>10</ele>
        <time>2017-07-27T12:25:38Z</time>
      </trkpt>
      <trkpt lat="60.111402867198" lon="21.51621492426">
        <ele>11.6</ele>
        <time>2017-07-27T12:25:39Z</time>
      </trkpt>
      <trkpt lat="60.111409572718" lon="21.516205117437">
        <ele>12</ele>
        <time>2017-07-27T12:25:40Z</time>
      </trkpt>
      <trkpt lat="60.111427426165" lon="21.516179049728">
        <ele>13.8</ele>
        <time>2017-07-27T12:25:41Z</time>
      </trkpt>
      <trkpt lat="60.111435724246" lon="21.516169745819">
        <ele>13.8</ele>
        <time>2017-07-27T12:25:42Z</time>
      </trkpt>
      <trkpt lat="60.111453493874" lon="21.516151305639">
        <ele>13.8</ele>
        <time>2017-07-27T12:25:43Z</time>
      </trkpt>
      <trkpt lat="60.111464977077" lon="21.516147952879">
        <ele>13.8</ele>
        <time>2017-07-27T12:25:44Z</time>
      </trkpt>
      <trkpt lat="60.111478723393" lon="21.516134877115">
        <ele>13.8</ele>
        <time>2017-07-27T12:25:45Z</time>
      </trkpt>
      <trkpt lat="60.11149238589" lon="21.516114592917">
        <ele>13.8</ele>
        <time>2017-07-27T12:25:46Z</time>
      </trkpt>
      <trkpt lat="60.111501438342" lon="21.51611853241">
        <ele>13.8</ele>
        <time>2017-07-27T12:25:47Z</time>
      </trkpt>
      <trkpt lat="60.111517615409" lon="21.516093135253">
        <ele>13.8</ele>
        <time>2017-07-27T12:25:48Z</time>
      </trkpt>
      <trkpt lat="60.111531110268" lon="21.516087100285">
        <ele>13.8</ele>
        <time>2017-07-27T12:25:49Z</time>
      </trkpt>
      <trkpt lat="60.111545024222" lon="21.516074778892">
        <ele>13.8</ele>
        <time>2017-07-27T12:25:50Z</time>
      </trkpt>
      <trkpt lat="60.111553741398" lon="21.51606237368">
        <ele>13.8</ele>
        <time>2017-07-27T12:25:51Z</time>
      </trkpt>
      <trkpt lat="60.111566817162" lon="21.516050806658">
        <ele>13.8</ele>
        <time>2017-07-27T12:25:52Z</time>
      </trkpt>
      <trkpt lat="60.111576959261" lon="21.516038988179">
        <ele>13.8</ele>
        <time>2017-07-27T12:25:53Z</time>
      </trkpt>
      <trkpt lat="60.111589699749" lon="21.516025744777">
        <ele>13.8</ele>
        <time>2017-07-27T12:25:54Z</time>
      </trkpt>
      <trkpt lat="60.111602440237" lon="21.516012585194">
        <ele>13.8</ele>
        <time>2017-07-27T12:25:55Z</time>
      </trkpt>
      <trkpt lat="60.111614845449" lon="21.516002610733">
        <ele>13.8</ele>
        <time>2017-07-27T12:25:56Z</time>
      </trkpt>
      <trkpt lat="60.111623730263" lon="21.515997413955">
        <ele>13.8</ele>
        <time>2017-07-27T12:25:57Z</time>
      </trkpt>
      <trkpt lat="60.11163739276" lon="21.515979979603">
        <ele>13.8</ele>
        <time>2017-07-27T12:25:58Z</time>
      </trkpt>
      <trkpt lat="60.111647031945" lon="21.51598023106">
        <ele>13.8</ele>
        <time>2017-07-27T12:25:59Z</time>
      </trkpt>
      <trkpt lat="60.111658766605" lon="21.515960617414">
        <ele>13.8</ele>
        <time>2017-07-27T12:26:00Z</time>
      </trkpt>
      <trkpt lat="60.111674859853" lon="21.515964389269">
        <ele>13.8</ele>
        <time>2017-07-27T12:26:01Z</time>
      </trkpt>
      <trkpt lat="60.111682152106" lon="21.515945110899">
        <ele>13.8</ele>
        <time>2017-07-27T12:26:02Z</time>
      </trkpt>
      <trkpt lat="60.111696988069" lon="21.515933795334">
        <ele>13.8</ele>
        <time>2017-07-27T12:26:03Z</time>
      </trkpt>
      <trkpt lat="60.11170444796" lon="21.515924575244">
        <ele>13.8</ele>
        <time>2017-07-27T12:26:04Z</time>
      </trkpt>
      <trkpt lat="60.111717607543" lon="21.515909236367">
        <ele>13.8</ele>
        <time>2017-07-27T12:26:05Z</time>
      </trkpt>
      <trkpt lat="60.111726911452" lon="21.515898842811">
        <ele>13.8</ele>
        <time>2017-07-27T12:26:06Z</time>
      </trkpt>
      <trkpt lat="60.111741412139" lon="21.515880989364">
        <ele>13.8</ele>
        <time>2017-07-27T12:26:07Z</time>
      </trkpt>
      <trkpt lat="60.111750464591" lon="21.51586958998">
        <ele>13.8</ele>
        <time>2017-07-27T12:26:08Z</time>
      </trkpt>
      <trkpt lat="60.111763707993" lon="21.515852323266">
        <ele>13.8</ele>
        <time>2017-07-27T12:26:09Z</time>
      </trkpt>
      <trkpt lat="60.111773933911" lon="21.515840169511">
        <ele>13.8</ele>
        <time>2017-07-27T12:26:10Z</time>
      </trkpt>
      <trkpt lat="60.111789188969" lon="21.515824411539">
        <ele>13.8</ele>
        <time>2017-07-27T12:26:11Z</time>
      </trkpt>
      <trkpt lat="60.111798911973" lon="21.515810497585">
        <ele>13.8</ele>
        <time>2017-07-27T12:26:12Z</time>
      </trkpt>
      <trkpt lat="60.111814334669" lon="21.515797002726">
        <ele>13.8</ele>
        <time>2017-07-27T12:26:13Z</time>
      </trkpt>
      <trkpt lat="60.111825231139" lon="21.515786190075">
        <ele>13.8</ele>
        <time>2017-07-27T12:26:14Z</time>
      </trkpt>
      <trkpt lat="60.111838977455" lon="21.515773449587">
        <ele>13.8</ele>
        <time>2017-07-27T12:26:15Z</time>
      </trkpt>
      <trkpt lat="60.111851382667" lon="21.515765570601">
        <ele>13.8</ele>
        <time>2017-07-27T12:26:16Z</time>
      </trkpt>
      <trkpt lat="60.111860938033" lon="21.515766157334">
        <ele>13.8</ele>
        <time>2017-07-27T12:26:17Z</time>
      </trkpt>
      <trkpt lat="60.111874432892" lon="21.515761714927">
        <ele>13.8</ele>
        <time>2017-07-27T12:26:18Z</time>
      </trkpt>
      <trkpt lat="60.11188633519" lon="21.515746124593">
        <ele>13.8</ele>
        <time>2017-07-27T12:26:19Z</time>
      </trkpt>
      <trkpt lat="60.111899997687" lon="21.515749142077">
        <ele>13.8</ele>
        <time>2017-07-27T12:26:20Z</time>
      </trkpt>
      <trkpt lat="60.111911564709" lon="21.515735060485">
        <ele>13.8</ele>
        <time>2017-07-27T12:26:21Z</time>
      </trkpt>
      <trkpt lat="60.111924389016" lon="21.515721062712">
        <ele>13.8</ele>
        <time>2017-07-27T12:26:22Z</time>
      </trkpt>
      <trkpt lat="60.111931429812" lon="21.515717207038">
        <ele>13.8</ele>
        <time>2017-07-27T12:26:23Z</time>
      </trkpt>
      <trkpt lat="60.111948025974" lon="21.515697844849">
        <ele>13.8</ele>
        <time>2017-07-27T12:26:24Z</time>
      </trkpt>
      <trkpt lat="60.11195590496" lon="21.515693486261">
        <ele>13.8</ele>
        <time>2017-07-27T12:26:25Z</time>
      </trkpt>
      <trkpt lat="60.111973255493" lon="21.515671274226">
        <ele>13.8</ele>
        <time>2017-07-27T12:26:26Z</time>
      </trkpt>
      <trkpt lat="60.111979793375" lon="21.515665155439">
        <ele>13.8</ele>
        <time>2017-07-27T12:26:27Z</time>
      </trkpt>
      <trkpt lat="60.111995802804" lon="21.5156416023">
        <ele>13.8</ele>
        <time>2017-07-27T12:26:28Z</time>
      </trkpt>
      <trkpt lat="60.112000161392" lon="21.515639171549">
        <ele>13.8</ele>
        <time>2017-07-27T12:26:29Z</time>
      </trkpt>
      <trkpt lat="60.112021870513" lon="21.515613020021">
        <ele>13.8</ele>
        <time>2017-07-27T12:26:30Z</time>
      </trkpt>
      <trkpt lat="60.112031509698" lon="21.515607487967">
        <ele>13.8</ele>
        <time>2017-07-27T12:26:31Z</time>
      </trkpt>
      <trkpt lat="60.112047938222" lon="21.515586952312">
        <ele>13.8</ele>
        <time>2017-07-27T12:26:32Z</time>
      </trkpt>
      <trkpt lat="60.11205984052" lon="21.515579660059">
        <ele>13.8</ele>
        <time>2017-07-27T12:26:33Z</time>
      </trkpt>
      <trkpt lat="60.112076855777" lon="21.51556197425">
        <ele>13.8</ele>
        <time>2017-07-27T12:26:34Z</time>
      </trkpt>
      <trkpt lat="60.112088506618" lon="21.515556358377">
        <ele>13.8</ele>
        <time>2017-07-27T12:26:35Z</time>
      </trkpt>
      <trkpt lat="60.112106527703" lon="21.51554856321">
        <ele>13.8</ele>
        <time>2017-07-27T12:26:36Z</time>
      </trkpt>
      <trkpt lat="60.112121279847" lon="21.51554353407">
        <ele>13.8</ele>
        <time>2017-07-27T12:26:37Z</time>
      </trkpt>
      <trkpt lat="60.112137456914" lon="21.515528865745">
        <ele>13.8</ele>
        <time>2017-07-27T12:26:38Z</time>
      </trkpt>
      <trkpt lat="60.112150113583" lon="21.515527943736">
        <ele>13.8</ele>
        <time>2017-07-27T12:26:39Z</time>
      </trkpt>
      <trkpt lat="60.112165787736" lon="21.515513107773">
        <ele>13.8</ele>
        <time>2017-07-27T12:26:40Z</time>
      </trkpt>
      <trkpt lat="60.112178192948" lon="21.515504474416">
        <ele>13.2</ele>
        <time>2017-07-27T12:26:41Z</time>
      </trkpt>
      <trkpt lat="60.11219059816" lon="21.515488381168">
        <ele>13.2</ele>
        <time>2017-07-27T12:26:42Z</time>
      </trkpt>
      <trkpt lat="60.112202751915" lon="21.515481340372">
        <ele>13.2</ele>
        <time>2017-07-27T12:26:43Z</time>
      </trkpt>
      <trkpt lat="60.112216246774" lon="21.515465750038">
        <ele>13.2</ele>
        <time>2017-07-27T12:26:44Z</time>
      </trkpt>
      <trkpt lat="60.112228987262" lon="21.515456781405">
        <ele>13.2</ele>
        <time>2017-07-27T12:26:45Z</time>
      </trkpt>
      <trkpt lat="60.112243571768" lon="21.515439011777">
        <ele>13.2</ele>
        <time>2017-07-27T12:26:46Z</time>
      </trkpt>
      <trkpt lat="60.112254635876" lon="21.515430546058">
        <ele>13.2</ele>
        <time>2017-07-27T12:26:47Z</time>
      </trkpt>
      <trkpt lat="60.112269220382" lon="21.515414536629">
        <ele>13.2</ele>
        <time>2017-07-27T12:26:48Z</time>
      </trkpt>
      <trkpt lat="60.112283385793" lon="21.51540439453">
        <ele>13.2</ele>
        <time>2017-07-27T12:26:49Z</time>
      </trkpt>
      <trkpt lat="60.112296042462" lon="21.515392492232">
        <ele>13.2</ele>
        <time>2017-07-27T12:26:50Z</time>
      </trkpt>
      <trkpt lat="60.112313309176" lon="21.515386205807">
        <ele>13.2</ele>
        <time>2017-07-27T12:26:51Z</time>
      </trkpt>
      <trkpt lat="60.112328648053" lon="21.515382769228">
        <ele>13.2</ele>
        <time>2017-07-27T12:26:52Z</time>
      </trkpt>
      <trkpt lat="60.112340215075" lon="21.515364496686">
        <ele>13.2</ele>
        <time>2017-07-27T12:26:53Z</time>
      </trkpt>
      <trkpt lat="60.112356895056" lon="21.515369944921">
        <ele>13.2</ele>
        <time>2017-07-27T12:26:54Z</time>
      </trkpt>
      <trkpt lat="60.112369048811" lon="21.515347984343">
        <ele>13.2</ele>
        <time>2017-07-27T12:26:55Z</time>
      </trkpt>
      <trkpt lat="60.112389500647" lon="21.515355192777">
        <ele>13.2</ele>
        <time>2017-07-27T12:26:56Z</time>
      </trkpt>
      <trkpt lat="60.112397966366" lon="21.515331974914">
        <ele>13.2</ele>
        <time>2017-07-27T12:26:57Z</time>
      </trkpt>
      <trkpt lat="60.112415652175" lon="21.515326861955">
        <ele>13.2</ele>
        <time>2017-07-27T12:26:58Z</time>
      </trkpt>
      <trkpt lat="60.11242361498" lon="21.515320659349">
        <ele>13.2</ele>
        <time>2017-07-27T12:26:59Z</time>
      </trkpt>
      <trkpt lat="60.112442138979" lon="21.515316719856">
        <ele>13.2</ele>
        <time>2017-07-27T12:27:00Z</time>
      </trkpt>
      <trkpt lat="60.112455214743" lon="21.515311439259">
        <ele>13.2</ele>
        <time>2017-07-27T12:27:01Z</time>
      </trkpt>
      <trkpt lat="60.112470385982" lon="21.51529291526">
        <ele>13.2</ele>
        <time>2017-07-27T12:27:02Z</time>
      </trkpt>
      <trkpt lat="60.112480695719" lon="21.515290316871">
        <ele>13.2</ele>
        <time>2017-07-27T12:27:03Z</time>
      </trkpt>
      <trkpt lat="60.11249569932" lon="21.515279755677">
        <ele>13.2</ele>
        <time>2017-07-27T12:27:04Z</time>
      </trkpt>
      <trkpt lat="60.112506763428" lon="21.515263830067">
        <ele>13.2</ele>
        <time>2017-07-27T12:27:05Z</time>
      </trkpt>
      <trkpt lat="60.112515983518" lon="21.515258633289">
        <ele>13.2</ele>
        <time>2017-07-27T12:27:06Z</time>
      </trkpt>
      <trkpt lat="60.112530819481" lon="21.51525184395">
        <ele>13.2</ele>
        <time>2017-07-27T12:27:07Z</time>
      </trkpt>
      <trkpt lat="60.112545739263" lon="21.515242372403">
        <ele>13.2</ele>
        <time>2017-07-27T12:27:08Z</time>
      </trkpt>
      <trkpt lat="60.112554037344" lon="21.515224854232">
        <ele>13.2</ele>
        <time>2017-07-27T12:27:09Z</time>
      </trkpt>
      <trkpt lat="60.112568370393" lon="21.515208006613">
        <ele>13.2</ele>
        <time>2017-07-27T12:27:10Z</time>
      </trkpt>
      <trkpt lat="60.112575997922" lon="21.515203899482">
        <ele>13.2</ele>
        <time>2017-07-27T12:27:11Z</time>
      </trkpt>
      <trkpt lat="60.11259460574" lon="21.515183363827">
        <ele>13.2</ele>
        <time>2017-07-27T12:27:12Z</time>
      </trkpt>
      <trkpt lat="60.112604077287" lon="21.515178418506">
        <ele>13.2</ele>
        <time>2017-07-27T12:27:13Z</time>
      </trkpt>
      <trkpt lat="60.112617404508" lon="21.515170874796">
        <ele>13.2</ele>
        <time>2017-07-27T12:27:14Z</time>
      </trkpt>
      <trkpt lat="60.112634419765" lon="21.515165342742">
        <ele>13.2</ele>
        <time>2017-07-27T12:27:15Z</time>
      </trkpt>
      <trkpt lat="60.112646405882" lon="21.515150842055">
        <ele>13.2</ele>
        <time>2017-07-27T12:27:16Z</time>
      </trkpt>
      <trkpt lat="60.112658224361" lon="21.515129803486">
        <ele>13.2</ele>
        <time>2017-07-27T12:27:17Z</time>
      </trkpt>
      <trkpt lat="60.112669539926" lon="21.515114548428">
        <ele>13.2</ele>
        <time>2017-07-27T12:27:18Z</time>
      </trkpt>
      <trkpt lat="60.112691165228" lon="21.515113794057">
        <ele>13.2</ele>
        <time>2017-07-27T12:27:19Z</time>
      </trkpt>
      <trkpt lat="60.112702145517" lon="21.515093090764">
        <ele>13.2</ele>
        <time>2017-07-27T12:27:20Z</time>
      </trkpt>
      <trkpt lat="60.112712706711" lon="21.515080769371">
        <ele>13.2</ele>
        <time>2017-07-27T12:27:21Z</time>
      </trkpt>
      <trkpt lat="60.112729051416" lon="21.515068867073">
        <ele>13.2</ele>
        <time>2017-07-27T12:27:22Z</time>
      </trkpt>
      <trkpt lat="60.112738103868" lon="21.515062161553">
        <ele>13.2</ele>
        <time>2017-07-27T12:27:23Z</time>
      </trkpt>
      <trkpt lat="60.11275637641" lon="21.515046655038">
        <ele>13.2</ele>
        <time>2017-07-27T12:27:24Z</time>
      </trkpt>
      <trkpt lat="60.112765680319" lon="21.515035926206">
        <ele>13.2</ele>
        <time>2017-07-27T12:27:25Z</time>
      </trkpt>
      <trkpt lat="60.112784120499" lon="21.515018324216">
        <ele>13.2</ele>
        <time>2017-07-27T12:27:26Z</time>
      </trkpt>
      <trkpt lat="60.112797363901" lon="21.515003572072">
        <ele>13.2</ele>
        <time>2017-07-27T12:27:27Z</time>
      </trkpt>
      <trkpt lat="60.112807003086" lon="21.514992256507">
        <ele>13.2</ele>
        <time>2017-07-27T12:27:28Z</time>
      </trkpt>
      <trkpt lat="60.112822090506" lon="21.514975911802">
        <ele>13.2</ele>
        <time>2017-07-27T12:27:29Z</time>
      </trkpt>
      <trkpt lat="60.112833322252" lon="21.514964177142">
        <ele>13.2</ele>
        <time>2017-07-27T12:27:30Z</time>
      </trkpt>
      <trkpt lat="60.112852349165" lon="21.514945653143">
        <ele>13.2</ele>
        <time>2017-07-27T12:27:31Z</time>
      </trkpt>
      <trkpt lat="60.112861904531" lon="21.514938696166">
        <ele>14</ele>
        <time>2017-07-27T12:27:32Z</time>
      </trkpt>
      <trkpt lat="60.11287875215" lon="21.514932745017">
        <ele>14</ele>
        <time>2017-07-27T12:27:33Z</time>
      </trkpt>
      <trkpt lat="60.112893085199" lon="21.514926793868">
        <ele>14</ele>
        <time>2017-07-27T12:27:34Z</time>
      </trkpt>
      <trkpt lat="60.112905825687" lon="21.514908269869">
        <ele>14</ele>
        <time>2017-07-27T12:27:35Z</time>
      </trkpt>
      <trkpt lat="60.112924182048" lon="21.514915143027">
        <ele>14</ele>
        <time>2017-07-27T12:27:36Z</time>
      </trkpt>
      <trkpt lat="60.112934827061" lon="21.514893769182">
        <ele>14</ele>
        <time>2017-07-27T12:27:37Z</time>
      </trkpt>
      <trkpt lat="60.112954356888" lon="21.514898882141">
        <ele>14</ele>
        <time>2017-07-27T12:27:38Z</time>
      </trkpt>
      <trkpt lat="60.112962152055" lon="21.51488136397">
        <ele>14</ele>
        <time>2017-07-27T12:27:39Z</time>
      </trkpt>
      <trkpt lat="60.112982603891" lon="21.514881950703">
        <ele>14</ele>
        <time>2017-07-27T12:27:40Z</time>
      </trkpt>
      <trkpt lat="60.112989477049" lon="21.514865857455">
        <ele>14</ele>
        <time>2017-07-27T12:27:41Z</time>
      </trkpt>
      <trkpt lat="60.11301034798" lon="21.514860325401">
        <ele>14</ele>
        <time>2017-07-27T12:27:42Z</time>
      </trkpt>
      <trkpt lat="60.1130170535" lon="21.514849680388">
        <ele>14</ele>
        <time>2017-07-27T12:27:43Z</time>
      </trkpt>
      <trkpt lat="60.113033733481" lon="21.514838783918">
        <ele>14</ele>
        <time>2017-07-27T12:27:44Z</time>
      </trkpt>
      <trkpt lat="60.113043372666" lon="21.514828474181">
        <ele>14</ele>
        <time>2017-07-27T12:27:45Z</time>
      </trkpt>
      <trkpt lat="60.113054939688" lon="21.514817829168">
        <ele>14</ele>
        <time>2017-07-27T12:27:46Z</time>
      </trkpt>
      <trkpt lat="60.11306650671" lon="21.514809698725">
        <ele>14</ele>
        <time>2017-07-27T12:27:47Z</time>
      </trkpt>
      <trkpt lat="60.113076062076" lon="21.514799556626">
        <ele>13.2</ele>
        <time>2017-07-27T12:27:48Z</time>
      </trkpt>
      <trkpt lat="60.113091233315" lon="21.514786564681">
        <ele>11.4</ele>
        <time>2017-07-27T12:27:49Z</time>
      </trkpt>
      <trkpt lat="60.113101207776" lon="21.514780026799">
        <ele>11.6</ele>
        <time>2017-07-27T12:27:50Z</time>
      </trkpt>
      <trkpt lat="60.113118223033" lon="21.514772650727">
        <ele>11.6</ele>
        <time>2017-07-27T12:27:51Z</time>
      </trkpt>
      <trkpt lat="60.113128448951" lon="21.514766783397">
        <ele>11.6</ele>
        <time>2017-07-27T12:27:52Z</time>
      </trkpt>
      <trkpt lat="60.113146218579" lon="21.514765526112">
        <ele>11.8</ele>
        <time>2017-07-27T12:27:53Z</time>
      </trkpt>
      <trkpt lat="60.113158959067" lon="21.514752450348">
        <ele>11.8</ele>
        <time>2017-07-27T12:27:54Z</time>
      </trkpt>
      <trkpt lat="60.113171783374" lon="21.514760329334">
        <ele>11.8</ele>
        <time>2017-07-27T12:27:55Z</time>
      </trkpt>
      <trkpt lat="60.113184188586" lon="21.514744236086">
        <ele>11.8</ele>
        <time>2017-07-27T12:27:56Z</time>
      </trkpt>
      <trkpt lat="60.113201622938" lon="21.514751779796">
        <ele>11.8</ele>
        <time>2017-07-27T12:27:57Z</time>
      </trkpt>
      <trkpt lat="60.113208663734" lon="21.514734177806">
        <ele>11.8</ele>
        <time>2017-07-27T12:27:58Z</time>
      </trkpt>
      <trkpt lat="60.113225176077" lon="21.514733339616">
        <ele>11.8</ele>
        <time>2017-07-27T12:27:59Z</time>
      </trkpt>
      <trkpt lat="60.113232971244" lon="21.514719258024">
        <ele>11.8</ele>
        <time>2017-07-27T12:28:00Z</time>
      </trkpt>
      <trkpt lat="60.113253003985" lon="21.514712133409">
        <ele>11.8</ele>
        <time>2017-07-27T12:28:01Z</time>
      </trkpt>
      <trkpt lat="60.113256943478" lon="21.514699225283">
        <ele>11.8</ele>
        <time>2017-07-27T12:28:02Z</time>
      </trkpt>
      <trkpt lat="60.113276305667" lon="21.514691011021">
        <ele>11.8</ele>
        <time>2017-07-27T12:28:03Z</time>
      </trkpt>
      <trkpt lat="60.113280580436" lon="21.514674833954">
        <ele>11.8</ele>
        <time>2017-07-27T12:28:04Z</time>
      </trkpt>
      <trkpt lat="60.113298098607" lon="21.514663686027">
        <ele>11.8</ele>
        <time>2017-07-27T12:28:05Z</time>
      </trkpt>
      <trkpt lat="60.113303379204" lon="21.514644407657">
        <ele>11.8</ele>
        <time>2017-07-27T12:28:06Z</time>
      </trkpt>
      <trkpt lat="60.11332215466" lon="21.514632337721">
        <ele>11.8</ele>
        <time>2017-07-27T12:28:07Z</time>
      </trkpt>
      <trkpt lat="60.11332634561" lon="21.51461565774">
        <ele>11.8</ele>
        <time>2017-07-27T12:28:08Z</time>
      </trkpt>
      <trkpt lat="60.113343277048" lon="21.514604006899">
        <ele>11.8</ele>
        <time>2017-07-27T12:28:09Z</time>
      </trkpt>
      <trkpt lat="60.113348557645" lon="21.514585399081">
        <ele>11.8</ele>
        <time>2017-07-27T12:28:10Z</time>
      </trkpt>
      <trkpt lat="60.113367249282" lon="21.514574670249">
        <ele>11.8</ele>
        <time>2017-07-27T12:28:11Z</time>
      </trkpt>
      <trkpt lat="60.113372362241" lon="21.514552206757">
        <ele>11.8</ele>
        <time>2017-07-27T12:28:12Z</time>
      </trkpt>
      <trkpt lat="60.11339340081" lon="21.514543154305">
        <ele>11.8</ele>
        <time>2017-07-27T12:28:13Z</time>
      </trkpt>
      <trkpt lat="60.113397005027" lon="21.514522534831">
        <ele>11.8</ele>
        <time>2017-07-27T12:28:14Z</time>
      </trkpt>
      <trkpt lat="60.113416702492" lon="21.514514152931">
        <ele>11.8</ele>
        <time>2017-07-27T12:28:15Z</time>
      </trkpt>
      <trkpt lat="60.11342189927" lon="21.514492192353">
        <ele>11.8</ele>
        <time>2017-07-27T12:28:16Z</time>
      </trkpt>
      <trkpt lat="60.11343950126" lon="21.514487666127">
        <ele>11.8</ele>
        <time>2017-07-27T12:28:17Z</time>
      </trkpt>
      <trkpt lat="60.113447296427" lon="21.514463023341">
        <ele>11.8</ele>
        <time>2017-07-27T12:28:18Z</time>
      </trkpt>
      <trkpt lat="60.11346380877" lon="21.514460676409">
        <ele>11.8</ele>
        <time>2017-07-27T12:28:19Z</time>
      </trkpt>
      <trkpt lat="60.113470011376" lon="21.514437039451">
        <ele>11.8</ele>
        <time>2017-07-27T12:28:20Z</time>
      </trkpt>
      <trkpt lat="60.1134864399" lon="21.514431088302">
        <ele>11.8</ele>
        <time>2017-07-27T12:28:21Z</time>
      </trkpt>
      <trkpt lat="60.113493396877" lon="21.514404350041">
        <ele>11.8</ele>
        <time>2017-07-27T12:28:22Z</time>
      </trkpt>
      <trkpt lat="60.113508735754" lon="21.514398817987">
        <ele>11.8</ele>
        <time>2017-07-27T12:28:23Z</time>
      </trkpt>
      <trkpt lat="60.113515525093" lon="21.514375600124">
        <ele>11.8</ele>
        <time>2017-07-27T12:28:24Z</time>
      </trkpt>
      <trkpt lat="60.113532288893" lon="21.514368643147">
        <ele>11.8</ele>
        <time>2017-07-27T12:28:25Z</time>
      </trkpt>
      <trkpt lat="60.113538659137" lon="21.514341821067">
        <ele>11.8</ele>
        <time>2017-07-27T12:28:26Z</time>
      </trkpt>
      <trkpt lat="60.11355517148" lon="21.514332768615">
        <ele>11.4</ele>
        <time>2017-07-27T12:28:27Z</time>
      </trkpt>
      <trkpt lat="60.113560284439" lon="21.514307539096">
        <ele>11</ele>
        <time>2017-07-27T12:28:28Z</time>
      </trkpt>
      <trkpt lat="60.113575790954" lon="21.514296894083">
        <ele>10.6</ele>
        <time>2017-07-27T12:28:29Z</time>
      </trkpt>
      <trkpt lat="60.113581071551" lon="21.51426780889">
        <ele>10.2</ele>
        <time>2017-07-27T12:28:30Z</time>
      </trkpt>
      <trkpt lat="60.113595823695" lon="21.514250625995">
        <ele>9.8</ele>
        <time>2017-07-27T12:28:31Z</time>
      </trkpt>
      <trkpt lat="60.113599008817" lon="21.514226989037">
        <ele>9.8</ele>
        <time>2017-07-27T12:28:32Z</time>
      </trkpt>
      <trkpt lat="60.113603199767" lon="21.514215589653">
        <ele>9.8</ele>
        <time>2017-07-27T12:28:33Z</time>
      </trkpt>
      <trkpt lat="60.113609486192" lon="21.514194299627">
        <ele>9.8</ele>
        <time>2017-07-27T12:28:34Z</time>
      </trkpt>
      <trkpt lat="60.11361552116" lon="21.514169237746">
        <ele>9.8</ele>
        <time>2017-07-27T12:28:35Z</time>
      </trkpt>
      <trkpt lat="60.113627088182" lon="21.514150127014">
        <ele>10</ele>
        <time>2017-07-27T12:28:36Z</time>
      </trkpt>
      <trkpt lat="60.113625160345" lon="21.514126406237">
        <ele>10</ele>
        <time>2017-07-27T12:28:37Z</time>
      </trkpt>
      <trkpt lat="60.113635134806" lon="21.514103439831">
        <ele>10</ele>
        <time>2017-07-27T12:28:38Z</time>
      </trkpt>
      <trkpt lat="60.113630776218" lon="21.514084161461">
        <ele>10</ele>
        <time>2017-07-27T12:28:39Z</time>
      </trkpt>
      <trkpt lat="60.113638319928" lon="21.514053567526">
        <ele>10</ele>
        <time>2017-07-27T12:28:40Z</time>
      </trkpt>
      <trkpt lat="60.113634548073" lon="21.514036636088">
        <ele>10</ele>
        <time>2017-07-27T12:28:41Z</time>
      </trkpt>
      <trkpt lat="60.113639577213" lon="21.514002689393">
        <ele>10</ele>
        <time>2017-07-27T12:28:42Z</time>
      </trkpt>
      <trkpt lat="60.113634464254" lon="21.513987937249">
        <ele>10</ele>
        <time>2017-07-27T12:28:43Z</time>
      </trkpt>
      <trkpt lat="60.113637230281" lon="21.513954242011">
        <ele>10</ele>
        <time>2017-07-27T12:28:44Z</time>
      </trkpt>
      <trkpt lat="60.113630273304" lon="21.513937226754">
        <ele>10</ele>
        <time>2017-07-27T12:28:45Z</time>
      </trkpt>
      <trkpt lat="60.113630273304" lon="21.513900933127">
        <ele>10</ele>
        <time>2017-07-27T12:28:46Z</time>
      </trkpt>
      <trkpt lat="60.113624238336" lon="21.513890791028">
        <ele>10</ele>
        <time>2017-07-27T12:28:47Z</time>
      </trkpt>
      <trkpt lat="60.113620969395" lon="21.513853156297">
        <ele>10</ele>
        <time>2017-07-27T12:28:48Z</time>
      </trkpt>
      <trkpt lat="60.113612252219" lon="21.513847456605">
        <ele>10</ele>
        <time>2017-07-27T12:28:49Z</time>
      </trkpt>
      <trkpt lat="60.113605211423" lon="21.513812420263">
        <ele>10</ele>
        <time>2017-07-27T12:28:50Z</time>
      </trkpt>
      <trkpt lat="60.113595572238" lon="21.51380931896">
        <ele>10</ele>
        <time>2017-07-27T12:28:51Z</time>
      </trkpt>
      <trkpt lat="60.113589285813" lon="21.513776545731">
        <ele>10</ele>
        <time>2017-07-27T12:28:52Z</time>
      </trkpt>
      <trkpt lat="60.113578724619" lon="21.513775204627">
        <ele>10</ele>
        <time>2017-07-27T12:28:53Z</time>
      </trkpt>
      <trkpt lat="60.11357193528" lon="21.513746789986">
        <ele>10</ele>
        <time>2017-07-27T12:28:54Z</time>
      </trkpt>
      <trkpt lat="60.11355936243" lon="21.513742934312">
        <ele>10</ele>
        <time>2017-07-27T12:28:55Z</time>
      </trkpt>
      <trkpt lat="60.113551902539" lon="21.513717537155">
        <ele>10</ele>
        <time>2017-07-27T12:28:56Z</time>
      </trkpt>
      <trkpt lat="60.113537737128" lon="21.513713010929">
        <ele>10</ele>
        <time>2017-07-27T12:28:57Z</time>
      </trkpt>
      <trkpt lat="60.113529271409" lon="21.51369448693">
        <ele>10</ele>
        <time>2017-07-27T12:28:58Z</time>
      </trkpt>
      <trkpt lat="60.113515692731" lon="21.513694151654">
        <ele>10</ele>
        <time>2017-07-27T12:28:59Z</time>
      </trkpt>
      <trkpt lat="60.113505466813" lon="21.513677974587">
        <ele>10</ele>
        <time>2017-07-27T12:29:00Z</time>
      </trkpt>
      <trkpt lat="60.113491385221" lon="21.513680070062">
        <ele>10</ele>
        <time>2017-07-27T12:29:01Z</time>
      </trkpt>
      <trkpt lat="60.113482751864" lon="21.513669257411">
        <ele>10</ele>
        <time>2017-07-27T12:29:02Z</time>
      </trkpt>
      <trkpt lat="60.113466910073" lon="21.51366682666">
        <ele>10</ele>
        <time>2017-07-27T12:29:03Z</time>
      </trkpt>
      <trkpt lat="60.113457522345" lon="21.513664731185">
        <ele>10</ele>
        <time>2017-07-27T12:29:04Z</time>
      </trkpt>
      <trkpt lat="60.113443021658" lon="21.513659785864">
        <ele>10</ele>
        <time>2017-07-27T12:29:05Z</time>
      </trkpt>
      <trkpt lat="60.113433131016" lon="21.513662384253">
        <ele>10</ele>
        <time>2017-07-27T12:29:06Z</time>
      </trkpt>
      <trkpt lat="60.113418378872" lon="21.51365844476">
        <ele>10</ele>
        <time>2017-07-27T12:29:07Z</time>
      </trkpt>
      <trkpt lat="60.113408823506" lon="21.513662887167">
        <ele>10</ele>
        <time>2017-07-27T12:29:08Z</time>
      </trkpt>
      <trkpt lat="60.113395663923" lon="21.513672023438">
        <ele>10</ele>
        <time>2017-07-27T12:29:09Z</time>
      </trkpt>
      <trkpt lat="60.113387617299" lon="21.513671939619">
        <ele>10</ele>
        <time>2017-07-27T12:29:10Z</time>
      </trkpt>
      <trkpt lat="60.113371104956" lon="21.513683171365">
        <ele>10</ele>
        <time>2017-07-27T12:29:11Z</time>
      </trkpt>
      <trkpt lat="60.113363896522" lon="21.513684847745">
        <ele>10</ele>
        <time>2017-07-27T12:29:12Z</time>
      </trkpt>
      <trkpt lat="60.11334646217" lon="21.513696330948">
        <ele>10</ele>
        <time>2017-07-27T12:29:13Z</time>
      </trkpt>
      <trkpt lat="60.113339086098" lon="21.513697923509">
        <ele>10</ele>
        <time>2017-07-27T12:29:14Z</time>
      </trkpt>
      <trkpt lat="60.113324333954" lon="21.5136970015">
        <ele>10</ele>
        <time>2017-07-27T12:29:15Z</time>
      </trkpt>
      <trkpt lat="60.113311928742" lon="21.513695995672">
        <ele>10</ele>
        <time>2017-07-27T12:29:16Z</time>
      </trkpt>
      <trkpt lat="60.113299942625" lon="21.513710077264">
        <ele>10</ele>
        <time>2017-07-27T12:29:17Z</time>
      </trkpt>
      <trkpt lat="60.11328611249" lon="21.513701695364">
        <ele>10</ele>
        <time>2017-07-27T12:29:18Z</time>
      </trkpt>
      <trkpt lat="60.113274294011" lon="21.513714938766">
        <ele>10</ele>
        <time>2017-07-27T12:29:19Z</time>
      </trkpt>
      <trkpt lat="60.113263146084" lon="21.513709993445">
        <ele>10</ele>
        <time>2017-07-27T12:29:20Z</time>
      </trkpt>
      <trkpt lat="60.113251662881" lon="21.513724829408">
        <ele>10</ele>
        <time>2017-07-27T12:29:21Z</time>
      </trkpt>
      <trkpt lat="60.113237748927" lon="21.513719213535">
        <ele>10</ele>
        <time>2017-07-27T12:29:22Z</time>
      </trkpt>
      <trkpt lat="60.113228947932" lon="21.513733630403">
        <ele>10</ele>
        <time>2017-07-27T12:29:23Z</time>
      </trkpt>
      <trkpt lat="60.113214782521" lon="21.513735725878">
        <ele>10.6</ele>
        <time>2017-07-27T12:29:24Z</time>
      </trkpt>
      <trkpt lat="60.11320480806" lon="21.513749723651">
        <ele>10.6</ele>
        <time>2017-07-27T12:29:25Z</time>
      </trkpt>
      <trkpt lat="60.113196929074" lon="21.513767158003">
        <ele>10.6</ele>
        <time>2017-07-27T12:29:26Z</time>
      </trkpt>
      <trkpt lat="60.113191732296" lon="21.513780066129">
        <ele>10.6</ele>
        <time>2017-07-27T12:29:27Z</time>
      </trkpt>
      <trkpt lat="60.113183350396" lon="21.51380261344">
        <ele>10.6</ele>
        <time>2017-07-27T12:29:28Z</time>
      </trkpt>
      <trkpt lat="60.113180835826" lon="21.513810911521">
        <ele>10.6</ele>
        <time>2017-07-27T12:29:29Z</time>
      </trkpt>
      <trkpt lat="60.113171029003" lon="21.51385039027">
        <ele>10.6</ele>
        <time>2017-07-27T12:29:30Z</time>
      </trkpt>
      <trkpt lat="60.113165832225" lon="21.513865226233">
        <ele>10.6</ele>
        <time>2017-07-27T12:29:31Z</time>
      </trkpt>
      <trkpt lat="60.113157617963" lon="21.513887689725">
        <ele>10.6</ele>
        <time>2017-07-27T12:29:32Z</time>
      </trkpt>
      <trkpt lat="60.11314948752" lon="21.513908644475">
        <ele>10.6</ele>
        <time>2017-07-27T12:29:33Z</time>
      </trkpt>
      <trkpt lat="60.113144206923" lon="21.513939070772">
        <ele>10.6</ele>
        <time>2017-07-27T12:29:34Z</time>
      </trkpt>
      <trkpt lat="60.113134651557" lon="21.513953990554">
        <ele>10.6</ele>
        <time>2017-07-27T12:29:35Z</time>
      </trkpt>
      <trkpt lat="60.113127191666" lon="21.51398533886">
        <ele>10.6</ele>
        <time>2017-07-27T12:29:36Z</time>
      </trkpt>
      <trkpt lat="60.113124928553" lon="21.51400377904">
        <ele>10.6</ele>
        <time>2017-07-27T12:29:37Z</time>
      </trkpt>
      <trkpt lat="60.113121491974" lon="21.514031020215">
        <ele>10.6</ele>
        <time>2017-07-27T12:29:38Z</time>
      </trkpt>
      <trkpt lat="60.113115708463" lon="21.514051388232">
        <ele>10.6</ele>
        <time>2017-07-27T12:29:39Z</time>
      </trkpt>
      <trkpt lat="60.113111936608" lon="21.514077707398">
        <ele>10.6</ele>
        <time>2017-07-27T12:29:40Z</time>
      </trkpt>
      <trkpt lat="60.113106320735" lon="21.514103942745">
        <ele>10.6</ele>
        <time>2017-07-27T12:29:41Z</time>
      </trkpt>
      <trkpt lat="60.113101123957" lon="21.514129926635">
        <ele>10.6</ele>
        <time>2017-07-27T12:29:42Z</time>
      </trkpt>
      <trkpt lat="60.113094334618" lon="21.514155994344">
        <ele>10.6</ele>
        <time>2017-07-27T12:29:43Z</time>
      </trkpt>
      <trkpt lat="60.113090311306" lon="21.514177871103">
        <ele>10.6</ele>
        <time>2017-07-27T12:29:44Z</time>
      </trkpt>
      <trkpt lat="60.113083773424" lon="21.514209638504">
        <ele>10.6</ele>
        <time>2017-07-27T12:29:45Z</time>
      </trkpt>
      <trkpt lat="60.113080001569" lon="21.514229671245">
        <ele>10.6</ele>
        <time>2017-07-27T12:29:46Z</time>
      </trkpt>
      <trkpt lat="60.113077235542" lon="21.514257080058">
        <ele>10.6</ele>
        <time>2017-07-27T12:29:47Z</time>
      </trkpt>
      <trkpt lat="60.113073882782" lon="21.514274095315">
        <ele>10.6</ele>
        <time>2017-07-27T12:29:48Z</time>
      </trkpt>
      <trkpt lat="60.113069943289" lon="21.514309299295">
        <ele>10.6</ele>
        <time>2017-07-27T12:29:49Z</time>
      </trkpt>
      <trkpt lat="60.113068099271" lon="21.514325476362">
        <ele>10.6</ele>
        <time>2017-07-27T12:29:50Z</time>
      </trkpt>
      <trkpt lat="60.113065081787" lon="21.514366212396">
        <ele>10.6</ele>
        <time>2017-07-27T12:29:51Z</time>
      </trkpt>
      <trkpt lat="60.11306231576" lon="21.51438264092">
        <ele>10.6</ele>
        <time>2017-07-27T12:29:52Z</time>
      </trkpt>
      <trkpt lat="60.113059465914" lon="21.514418347814">
        <ele>10.6</ele>
        <time>2017-07-27T12:29:53Z</time>
      </trkpt>
      <trkpt lat="60.113057538077" lon="21.51443796146">
        <ele>10.6</ele>
        <time>2017-07-27T12:29:54Z</time>
      </trkpt>
      <trkpt lat="60.113055107326" lon="21.514469728861">
        <ele>10.6</ele>
        <time>2017-07-27T12:29:55Z</time>
      </trkpt>
      <trkpt lat="60.113051922204" lon="21.514501999176">
        <ele>10.6</ele>
        <time>2017-07-27T12:29:56Z</time>
      </trkpt>
      <trkpt lat="60.113049239996" lon="21.514527228695">
        <ele>10.6</ele>
        <time>2017-07-27T12:29:57Z</time>
      </trkpt>
      <trkpt lat="60.113043624123" lon="21.514563354684">
        <ele>10.6</ele>
        <time>2017-07-27T12:29:58Z</time>
      </trkpt>
      <trkpt lat="60.113041612467" lon="21.514583052149">
        <ele>10.6</ele>
        <time>2017-07-27T12:29:59Z</time>
      </trkpt>
      <trkpt lat="60.113034739309" lon="21.51462487783">
        <ele>10.6</ele>
        <time>2017-07-27T12:30:00Z</time>
      </trkpt>
      <trkpt lat="60.113032057101" lon="21.514642060725">
        <ele>10.6</ele>
        <time>2017-07-27T12:30:01Z</time>
      </trkpt>
      <trkpt lat="60.11302627359" lon="21.514677432343">
        <ele>10.6</ele>
        <time>2017-07-27T12:30:02Z</time>
      </trkpt>
      <trkpt lat="60.113021579726" lon="21.51470031493">
        <ele>10.6</ele>
        <time>2017-07-27T12:30:03Z</time>
      </trkpt>
      <trkpt lat="60.113016299129" lon="21.514728310476">
        <ele>10.6</ele>
        <time>2017-07-27T12:30:04Z</time>
      </trkpt>
      <trkpt lat="60.113009342152" lon="21.514756306022">
        <ele>10.6</ele>
        <time>2017-07-27T12:30:05Z</time>
      </trkpt>
      <trkpt lat="60.113002133718" lon="21.514781200265">
        <ele>10.6</ele>
        <time>2017-07-27T12:30:06Z</time>
      </trkpt>
      <trkpt lat="60.112991656343" lon="21.514814895503">
        <ele>10.6</ele>
        <time>2017-07-27T12:30:07Z</time>
      </trkpt>
      <trkpt lat="60.112986543384" lon="21.514830318199">
        <ele>10.6</ele>
        <time>2017-07-27T12:30:08Z</time>
      </trkpt>
      <trkpt lat="60.112973551439" lon="21.514863594342">
        <ele>10.6</ele>
        <time>2017-07-27T12:30:09Z</time>
      </trkpt>
      <trkpt lat="60.112965756272" lon="21.514881615427">
        <ele>10.6</ele>
        <time>2017-07-27T12:30:10Z</time>
      </trkpt>
      <trkpt lat="60.112952177594" lon="21.514908521326">
        <ele>10.6</ele>
        <time>2017-07-27T12:30:11Z</time>
      </trkpt>
      <trkpt lat="60.112942706047" lon="21.514921848547">
        <ele>10.6</ele>
        <time>2017-07-27T12:30:12Z</time>
      </trkpt>
      <trkpt lat="60.112928289179" lon="21.514937019786">
        <ele>10.6</ele>
        <time>2017-07-27T12:30:13Z</time>
      </trkpt>
      <trkpt lat="60.112916805976" lon="21.514945569324">
        <ele>10.6</ele>
        <time>2017-07-27T12:30:14Z</time>
      </trkpt>
      <trkpt lat="60.11290305966" lon="21.514967026988">
        <ele>10.6</ele>
        <time>2017-07-27T12:30:15Z</time>
      </trkpt>
      <trkpt lat="60.112894007208" lon="21.514975073612">
        <ele>10.6</ele>
        <time>2017-07-27T12:30:16Z</time>
      </trkpt>
      <trkpt lat="60.11288629586" lon="21.514986472996">
        <ele>10.6</ele>
        <time>2017-07-27T12:30:17Z</time>
      </trkpt>
      <trkpt lat="60.112872130449" lon="21.514999129665">
        <ele>10.6</ele>
        <time>2017-07-27T12:30:18Z</time>
      </trkpt>
      <trkpt lat="60.112863077997" lon="21.51500960704">
        <ele>10.6</ele>
        <time>2017-07-27T12:30:19Z</time>
      </trkpt>
      <trkpt lat="60.112849583138" lon="21.515017737483">
        <ele>10.6</ele>
        <time>2017-07-27T12:30:20Z</time>
      </trkpt>
      <trkpt lat="60.112838016116" lon="21.51502469446">
        <ele>10.6</ele>
        <time>2017-07-27T12:30:21Z</time>
      </trkpt>
      <trkpt lat="60.11282259342" lon="21.515025029736">
        <ele>10.6</ele>
        <time>2017-07-27T12:30:22Z</time>
      </trkpt>
      <trkpt lat="60.112815636443" lon="21.515036596758">
        <ele>10.6</ele>
        <time>2017-07-27T12:30:23Z</time>
      </trkpt>
      <trkpt lat="60.112800046109" lon="21.515041877355">
        <ele>10.6</ele>
        <time>2017-07-27T12:30:24Z</time>
      </trkpt>
      <trkpt lat="60.11279158039" lon="21.515048834332">
        <ele>10.6</ele>
        <time>2017-07-27T12:30:25Z</time>
      </trkpt>
      <trkpt lat="60.112779678092" lon="21.515062999743">
        <ele>10.6</ele>
        <time>2017-07-27T12:30:26Z</time>
      </trkpt>
      <trkpt lat="60.11277314021" lon="21.515064424666">
        <ele>10.6</ele>
        <time>2017-07-27T12:30:27Z</time>
      </trkpt>
      <trkpt lat="60.112760483541" lon="21.515070459634">
        <ele>10.6</ele>
        <time>2017-07-27T12:30:28Z</time>
      </trkpt>
      <trkpt lat="60.112747575415" lon="21.515076410783">
        <ele>10.6</ele>
        <time>2017-07-27T12:30:29Z</time>
      </trkpt>
      <trkpt lat="60.112740953714" lon="21.515088899814">
        <ele>10.6</ele>
        <time>2017-07-27T12:30:30Z</time>
      </trkpt>
      <trkpt lat="60.112727375036" lon="21.515099125732">
        <ele>10.6</ele>
        <time>2017-07-27T12:30:31Z</time>
      </trkpt>
      <trkpt lat="60.112721675344" lon="21.515109267831">
        <ele>10.6</ele>
        <time>2017-07-27T12:30:32Z</time>
      </trkpt>
      <trkpt lat="60.112714215453" lon="21.515127288916">
        <ele>10.6</ele>
        <time>2017-07-27T12:30:33Z</time>
      </trkpt>
      <trkpt lat="60.112707677571" lon="21.515131479866">
        <ele>10.6</ele>
        <time>2017-07-27T12:30:34Z</time>
      </trkpt>
      <trkpt lat="60.112694853264" lon="21.515151344969">
        <ele>10.6</ele>
        <time>2017-07-27T12:30:35Z</time>
      </trkpt>
      <trkpt lat="60.112688315382" lon="21.515160145964">
        <ele>10.6</ele>
        <time>2017-07-27T12:30:36Z</time>
      </trkpt>
      <trkpt lat="60.112679514387" lon="21.515170455701">
        <ele>10.6</ele>
        <time>2017-07-27T12:30:37Z</time>
      </trkpt>
      <trkpt lat="60.112664846062" lon="21.51518814151">
        <ele>10.6</ele>
        <time>2017-07-27T12:30:38Z</time>
      </trkpt>
      <trkpt lat="60.112657553809" lon="21.51519484703">
        <ele>10.6</ele>
        <time>2017-07-27T12:30:39Z</time>
      </trkpt>
      <trkpt lat="60.112645232416" lon="21.515213035753">
        <ele>10.6</ele>
        <time>2017-07-27T12:30:40Z</time>
      </trkpt>
      <trkpt lat="60.112633413937" lon="21.515217813436">
        <ele>10.6</ele>
        <time>2017-07-27T12:30:41Z</time>
      </trkpt>
      <trkpt lat="60.112624110028" lon="21.515231308295">
        <ele>10.6</ele>
        <time>2017-07-27T12:30:42Z</time>
      </trkpt>
      <trkpt lat="60.112609441703" lon="21.515224518956">
        <ele>10.6</ele>
        <time>2017-07-27T12:30:43Z</time>
      </trkpt>
      <trkpt lat="60.112603239097" lon="21.515237091806">
        <ele>10.6</ele>
        <time>2017-07-27T12:30:44Z</time>
      </trkpt>
      <trkpt lat="60.112588403134" lon="21.515240696023">
        <ele>10.6</ele>
        <time>2017-07-27T12:30:45Z</time>
      </trkpt>
      <trkpt lat="60.112579602139" lon="21.515251676312">
        <ele>10.6</ele>
        <time>2017-07-27T12:30:46Z</time>
      </trkpt>
      <trkpt lat="60.112571639334" lon="21.515260477307">
        <ele>10.6</ele>
        <time>2017-07-27T12:30:47Z</time>
      </trkpt>
      <trkpt lat="60.112556132819" lon="21.515281432057">
        <ele>10.6</ele>
        <time>2017-07-27T12:30:48Z</time>
      </trkpt>
      <trkpt lat="60.112548672928" lon="21.515288221396">
        <ele>10.6</ele>
        <time>2017-07-27T12:30:49Z</time>
      </trkpt>
      <trkpt lat="60.11253425606" lon="21.515313702372">
        <ele>10.6</ele>
        <time>2017-07-27T12:30:50Z</time>
      </trkpt>
      <trkpt lat="60.11252587416" lon="21.515323425376">
        <ele>11.2</ele>
        <time>2017-07-27T12:30:51Z</time>
      </trkpt>
      <trkpt lat="60.112511038197" lon="21.515345637411">
        <ele>11.8</ele>
        <time>2017-07-27T12:30:52Z</time>
      </trkpt>
      <trkpt lat="60.112504416496" lon="21.515354773682">
        <ele>11.6</ele>
        <time>2017-07-27T12:30:53Z</time>
      </trkpt>
      <trkpt lat="60.112489412895" lon="21.515377488631">
        <ele>11.4</ele>
        <time>2017-07-27T12:30:54Z</time>
      </trkpt>
      <trkpt lat="60.112481198633" lon="21.515387211635">
        <ele>11</ele>
        <time>2017-07-27T12:30:55Z</time>
      </trkpt>
      <trkpt lat="60.11246468629" lon="21.515410680955">
        <ele>10.8</ele>
        <time>2017-07-27T12:30:56Z</time>
      </trkpt>
      <trkpt lat="60.1124554662" lon="21.515417721751">
        <ele>10.4</ele>
        <time>2017-07-27T12:30:57Z</time>
      </trkpt>
      <trkpt lat="60.112439875866" lon="21.51543624575">
        <ele>10.4</ele>
        <time>2017-07-27T12:30:58Z</time>
      </trkpt>
      <trkpt lat="60.112429063215" lon="21.51544378946">
        <ele>10.4</ele>
        <time>2017-07-27T12:30:59Z</time>
      </trkpt>
      <trkpt lat="60.112414897804" lon="21.515449153876">
        <ele>10.4</ele>
        <time>2017-07-27T12:31:00Z</time>
      </trkpt>
      <trkpt lat="60.112396373805" lon="21.515456697586">
        <ele>10.4</ele>
        <time>2017-07-27T12:31:01Z</time>
      </trkpt>
      <trkpt lat="60.112385728792" lon="21.51546055326">
        <ele>10.4</ele>
        <time>2017-07-27T12:31:02Z</time>
      </trkpt>
      <trkpt lat="60.112368545897" lon="21.515473880481">
        <ele>10.4</ele>
        <time>2017-07-27T12:31:03Z</time>
      </trkpt>
      <trkpt lat="60.112356727418" lon="21.515470443902">
        <ele>10.4</ele>
        <time>2017-07-27T12:31:04Z</time>
      </trkpt>
      <trkpt lat="60.112342981102" lon="21.51548486077">
        <ele>10.4</ele>
        <time>2017-07-27T12:31:05Z</time>
      </trkpt>
      <trkpt lat="60.112328145139" lon="21.515498355629">
        <ele>10.4</ele>
        <time>2017-07-27T12:31:06Z</time>
      </trkpt>
      <trkpt lat="60.112318673592" lon="21.515502881855">
        <ele>10.4</ele>
        <time>2017-07-27T12:31:07Z</time>
      </trkpt>
      <trkpt lat="60.112301323059" lon="21.515516041438">
        <ele>10.4</ele>
        <time>2017-07-27T12:31:08Z</time>
      </trkpt>
      <trkpt lat="60.112289253123" lon="21.515519310379">
        <ele>10.4</ele>
        <time>2017-07-27T12:31:09Z</time>
      </trkpt>
      <trkpt lat="60.112273998065" lon="21.515530374487">
        <ele>10.4</ele>
        <time>2017-07-27T12:31:10Z</time>
      </trkpt>
      <trkpt lat="60.112257904817" lon="21.515537750559">
        <ele>10.4</ele>
        <time>2017-07-27T12:31:11Z</time>
      </trkpt>
      <trkpt lat="60.112244912872" lon="21.515543953165">
        <ele>10.4</ele>
        <time>2017-07-27T12:31:12Z</time>
      </trkpt>
      <trkpt lat="60.112225634502" lon="21.515550574866">
        <ele>10.4</ele>
        <time>2017-07-27T12:31:13Z</time>
      </trkpt>
      <trkpt lat="60.112213899842" lon="21.515545881002">
        <ele>10.4</ele>
        <time>2017-07-27T12:31:14Z</time>
      </trkpt>
      <trkpt lat="60.112195962576" lon="21.515559627318">
        <ele>10.4</ele>
        <time>2017-07-27T12:31:15Z</time>
      </trkpt>
      <trkpt lat="60.112181713346" lon="21.515551413056">
        <ele>10.4</ele>
        <time>2017-07-27T12:31:16Z</time>
      </trkpt>
      <trkpt lat="60.112171655066" lon="21.515565662286">
        <ele>10.4</ele>
        <time>2017-07-27T12:31:17Z</time>
      </trkpt>
      <trkpt lat="60.112154053076" lon="21.515564656458">
        <ele>10.4</ele>
        <time>2017-07-27T12:31:18Z</time>
      </trkpt>
      <trkpt lat="60.112147263737" lon="21.515580079154">
        <ele>10.4</ele>
        <time>2017-07-27T12:31:19Z</time>
      </trkpt>
      <trkpt lat="60.112133182145" lon="21.51559466366">
        <ele>10.4</ele>
        <time>2017-07-27T12:31:20Z</time>
      </trkpt>
      <trkpt lat="60.112125973711" lon="21.515602375008">
        <ele>10.4</ele>
        <time>2017-07-27T12:31:21Z</time>
      </trkpt>
      <trkpt lat="60.112110383377" lon="21.515625341414">
        <ele>10.4</ele>
        <time>2017-07-27T12:31:22Z</time>
      </trkpt>
      <trkpt lat="60.11210426459" lon="21.515631041106">
        <ele>10.4</ele>
        <time>2017-07-27T12:31:23Z</time>
      </trkpt>
      <trkpt lat="60.112088758075" lon="21.515657108815">
        <ele>10.4</ele>
        <time>2017-07-27T12:31:24Z</time>
      </trkpt>
      <trkpt lat="60.112079035071" lon="21.515667334733">
        <ele>10.4</ele>
        <time>2017-07-27T12:31:25Z</time>
      </trkpt>
      <trkpt lat="60.112066126945" lon="21.51569021732">
        <ele>10.4</ele>
        <time>2017-07-27T12:31:26Z</time>
      </trkpt>
      <trkpt lat="60.112055398113" lon="21.515702706351">
        <ele>10.4</ele>
        <time>2017-07-27T12:31:27Z</time>
      </trkpt>
      <trkpt lat="60.112041735616" lon="21.515721397988">
        <ele>10.4</ele>
        <time>2017-07-27T12:31:28Z</time>
      </trkpt>
      <trkpt lat="60.112031006784" lon="21.515731037173">
        <ele>10.4</ele>
        <time>2017-07-27T12:31:29Z</time>
      </trkpt>
      <trkpt lat="60.112019439762" lon="21.515744029118">
        <ele>10.4</ele>
        <time>2017-07-27T12:31:30Z</time>
      </trkpt>
      <trkpt lat="60.112004687618" lon="21.515755177045">
        <ele>10.4</ele>
        <time>2017-07-27T12:31:31Z</time>
      </trkpt>
      <trkpt lat="60.111998987926" lon="21.515770432103">
        <ele>10.4</ele>
        <time>2017-07-27T12:31:32Z</time>
      </trkpt>
      <trkpt lat="60.111985828343" lon="21.51578912374">
        <ele>10.4</ele>
        <time>2017-07-27T12:31:33Z</time>
      </trkpt>
      <trkpt lat="60.111977446443" lon="21.515795996898">
        <ele>10.8</ele>
        <time>2017-07-27T12:31:34Z</time>
      </trkpt>
      <trkpt lat="60.111966382335" lon="21.515813850345">
        <ele>12.2</ele>
        <time>2017-07-27T12:31:35Z</time>
      </trkpt>
      <trkpt lat="60.111953055114" lon="21.515828770127">
        <ele>12.4</ele>
        <time>2017-07-27T12:31:36Z</time>
      </trkpt>
      <trkpt lat="60.111943080653" lon="21.515841845891">
        <ele>12.2</ele>
        <time>2017-07-27T12:31:37Z</time>
      </trkpt>
      <trkpt lat="60.111926735948" lon="21.515859447881">
        <ele>11.8</ele>
        <time>2017-07-27T12:31:38Z</time>
      </trkpt>
      <trkpt lat="60.111919108419" lon="21.515867662143">
        <ele>11.6</ele>
        <time>2017-07-27T12:31:39Z</time>
      </trkpt>
      <trkpt lat="60.111901506429" lon="21.515881073183">
        <ele>11.4</ele>
        <time>2017-07-27T12:31:40Z</time>
      </trkpt>
      <trkpt lat="60.111889520312" lon="21.515886269961">
        <ele>11.2</ele>
        <time>2017-07-27T12:31:41Z</time>
      </trkpt>
      <trkpt lat="60.111879294394" lon="21.515901022105">
        <ele>11.2</ele>
        <time>2017-07-27T12:31:42Z</time>
      </trkpt>
      <trkpt lat="60.111860770395" lon="21.515909068729">
        <ele>11.2</ele>
        <time>2017-07-27T12:31:43Z</time>
      </trkpt>
      <trkpt lat="60.111851801762" lon="21.515914936059">
        <ele>11.2</ele>
        <time>2017-07-27T12:31:44Z</time>
      </trkpt>
      <trkpt lat="60.111835959971" lon="21.515929436746">
        <ele>11.2</ele>
        <time>2017-07-27T12:31:45Z</time>
      </trkpt>
      <trkpt lat="60.111826488424" lon="21.515936477542">
        <ele>11.2</ele>
        <time>2017-07-27T12:31:46Z</time>
      </trkpt>
      <trkpt lat="60.111814837583" lon="21.515949134211">
        <ele>11.2</ele>
        <time>2017-07-27T12:31:47Z</time>
      </trkpt>
      <trkpt lat="60.111803773475" lon="21.51595843812">
        <ele>11.2</ele>
        <time>2017-07-27T12:31:48Z</time>
      </trkpt>
      <trkpt lat="60.111791871177" lon="21.515972854988">
        <ele>11.2</ele>
        <time>2017-07-27T12:31:49Z</time>
      </trkpt>
      <trkpt lat="60.111779633603" lon="21.515985344019">
        <ele>11.2</ele>
        <time>2017-07-27T12:31:50Z</time>
      </trkpt>
      <trkpt lat="60.111767396029" lon="21.516000431439">
        <ele>11.2</ele>
        <time>2017-07-27T12:31:51Z</time>
      </trkpt>
      <trkpt lat="60.111755661369" lon="21.516013926298">
        <ele>11.2</ele>
        <time>2017-07-27T12:31:52Z</time>
      </trkpt>
      <trkpt lat="60.111744932537" lon="21.516028762261">
        <ele>11.2</ele>
        <time>2017-07-27T12:31:53Z</time>
      </trkpt>
      <trkpt lat="60.111732862601" lon="21.516040916016">
        <ele>11.2</ele>
        <time>2017-07-27T12:31:54Z</time>
      </trkpt>
      <trkpt lat="60.111721379398" lon="21.516055835798">
        <ele>11.2</ele>
        <time>2017-07-27T12:31:55Z</time>
      </trkpt>
      <trkpt lat="60.111707213987" lon="21.516069330657">
        <ele>11.2</ele>
        <time>2017-07-27T12:31:56Z</time>
      </trkpt>
      <trkpt lat="60.111697323345" lon="21.516081735869">
        <ele>11.2</ele>
        <time>2017-07-27T12:31:57Z</time>
      </trkpt>
      <trkpt lat="60.111682152106" lon="21.516100595144">
        <ele>11.2</ele>
        <time>2017-07-27T12:31:58Z</time>
      </trkpt>
      <trkpt lat="60.111673602568" lon="21.516111072519">
        <ele>11.2</ele>
        <time>2017-07-27T12:31:59Z</time>
      </trkpt>
      <trkpt lat="60.1116591857" lon="21.516134122744">
        <ele>11.2</ele>
        <time>2017-07-27T12:32:00Z</time>
      </trkpt>
      <trkpt lat="60.1116508038" lon="21.516145270671">
        <ele>11.2</ele>
        <time>2017-07-27T12:32:01Z</time>
      </trkpt>
      <trkpt lat="60.111635548742" lon="21.516171841294">
        <ele>11.2</ele>
        <time>2017-07-27T12:32:02Z</time>
      </trkpt>
      <trkpt lat="60.111626831566" lon="21.516185419972">
        <ele>11.2</ele>
        <time>2017-07-27T12:32:03Z</time>
      </trkpt>
      <trkpt lat="60.111611995603" lon="21.51621408607">
        <ele>11.2</ele>
        <time>2017-07-27T12:32:04Z</time>
      </trkpt>
      <trkpt lat="60.111602440237" lon="21.516226910377">
        <ele>11.2</ele>
        <time>2017-07-27T12:32:05Z</time>
      </trkpt>
      <trkpt lat="60.111588191007" lon="21.516253732457">
        <ele>11.2</ele>
        <time>2017-07-27T12:32:06Z</time>
      </trkpt>
      <trkpt lat="60.111577126899" lon="21.516265802393">
        <ele>11.2</ele>
        <time>2017-07-27T12:32:07Z</time>
      </trkpt>
      <trkpt lat="60.111563212945" lon="21.516287679152">
        <ele>11.2</ele>
        <time>2017-07-27T12:32:08Z</time>
      </trkpt>
      <trkpt lat="60.111551562104" lon="21.516298491803">
        <ele>11.2</ele>
        <time>2017-07-27T12:32:09Z</time>
      </trkpt>
      <trkpt lat="60.111537731969" lon="21.51631718344">
        <ele>11.2</ele>
        <time>2017-07-27T12:32:10Z</time>
      </trkpt>
      <trkpt lat="60.11152423711" lon="21.516329923928">
        <ele>11.2</ele>
        <time>2017-07-27T12:32:11Z</time>
      </trkpt>
      <trkpt lat="60.11151250245" lon="21.516347190642">
        <ele>11.2</ele>
        <time>2017-07-27T12:32:12Z</time>
      </trkpt>
      <trkpt lat="60.111498588496" lon="21.516363619166">
        <ele>11.2</ele>
        <time>2017-07-27T12:32:13Z</time>
      </trkpt>
      <trkpt lat="60.111487524388" lon="21.516379460957">
        <ele>11.2</ele>
        <time>2017-07-27T12:32:14Z</time>
      </trkpt>
      <trkpt lat="60.111474029529" lon="21.516397146766">
        <ele>11.2</ele>
        <time>2017-07-27T12:32:15Z</time>
      </trkpt>
      <trkpt lat="60.111462127231" lon="21.516415084032">
        <ele>11.2</ele>
        <time>2017-07-27T12:32:16Z</time>
      </trkpt>
      <trkpt lat="60.111449219105" lon="21.516430590547">
        <ele>11.2</ele>
        <time>2017-07-27T12:32:17Z</time>
      </trkpt>
      <trkpt lat="60.111438154997" lon="21.516448611632">
        <ele>11.2</ele>
        <time>2017-07-27T12:32:18Z</time>
      </trkpt>
      <trkpt lat="60.111428348174" lon="21.516464788699">
        <ele>11.2</ele>
        <time>2017-07-27T12:32:19Z</time>
      </trkpt>
      <trkpt lat="60.111423402853" lon="21.516474344065">
        <ele>11.2</ele>
        <time>2017-07-27T12:32:20Z</time>
      </trkpt>
      <trkpt lat="60.111411416736" lon="21.516494628263">
        <ele>11.2</ele>
        <time>2017-07-27T12:32:21Z</time>
      </trkpt>
      <trkpt lat="60.111406471415" lon="21.516500411774">
        <ele>11.4</ele>
        <time>2017-07-27T12:32:22Z</time>
      </trkpt>
      <trkpt lat="60.111394652936" lon="21.516514409547">
        <ele>11.8</ele>
        <time>2017-07-27T12:32:23Z</time>
      </trkpt>
      <trkpt lat="60.111387360683" lon="21.516528826415">
        <ele>12.2</ele>
        <time>2017-07-27T12:32:24Z</time>
      </trkpt>
      <trkpt lat="60.111376464213" lon="21.516548942975">
        <ele>12</ele>
        <time>2017-07-27T12:32:25Z</time>
      </trkpt>
      <trkpt lat="60.111369591055" lon="21.51656109673">
        <ele>11.8</ele>
        <time>2017-07-27T12:32:26Z</time>
      </trkpt>
      <trkpt lat="60.111361041517" lon="21.516581800023">
        <ele>11.6</ele>
        <time>2017-07-27T12:32:27Z</time>
      </trkpt>
      <trkpt lat="60.111355258006" lon="21.516590014285">
        <ele>11.4</ele>
        <time>2017-07-27T12:32:28Z</time>
      </trkpt>
      <trkpt lat="60.111346708468" lon="21.516610298483">
        <ele>11</ele>
        <time>2017-07-27T12:32:29Z</time>
      </trkpt>
      <trkpt lat="60.111339500034" lon="21.51662479917">
        <ele>10.8</ele>
        <time>2017-07-27T12:32:30Z</time>
      </trkpt>
      <trkpt lat="60.111328016831" lon="21.516643155531">
        <ele>10.8</ele>
        <time>2017-07-27T12:32:31Z</time>
      </trkpt>
      <trkpt lat="60.11131636599" lon="21.516658662046">
        <ele>10.8</ele>
        <time>2017-07-27T12:32:32Z</time>
      </trkpt>
      <trkpt lat="60.111312342678" lon="21.516685903221">
        <ele>10.8</ele>
        <time>2017-07-27T12:32:33Z</time>
      </trkpt>
      <trkpt lat="60.111304547511" lon="21.516705349229">
        <ele>10.8</ele>
        <time>2017-07-27T12:32:34Z</time>
      </trkpt>
      <trkpt lat="60.111299266914" lon="21.516720185192">
        <ele>10.8</ele>
        <time>2017-07-27T12:32:35Z</time>
      </trkpt>
      <trkpt lat="60.111289292453" lon="21.516748432195">
        <ele>10.8</ele>
        <time>2017-07-27T12:32:36Z</time>
      </trkpt>
      <trkpt lat="60.111283006028" lon="21.516761088864">
        <ele>10.8</ele>
        <time>2017-07-27T12:32:37Z</time>
      </trkpt>
      <trkpt lat="60.111273031567" lon="21.516791179885">
        <ele>10.8</ele>
        <time>2017-07-27T12:32:38Z</time>
      </trkpt>
      <trkpt lat="60.111266577504" lon="21.516803752735">
        <ele>10.8</ele>
        <time>2017-07-27T12:32:39Z</time>
      </trkpt>
      <trkpt lat="60.111257860328" lon="21.516832837928">
        <ele>10.8</ele>
        <time>2017-07-27T12:32:40Z</time>
      </trkpt>
      <trkpt lat="60.111249729885" lon="21.516850188461">
        <ele>10.8</ele>
        <time>2017-07-27T12:32:41Z</time>
      </trkpt>
      <trkpt lat="60.111240845071" lon="21.516877848731">
        <ele>10.8</ele>
        <time>2017-07-27T12:32:42Z</time>
      </trkpt>
      <trkpt lat="60.111232127895" lon="21.516894193436">
        <ele>10.8</ele>
        <time>2017-07-27T12:32:43Z</time>
      </trkpt>
      <trkpt lat="60.111223913633" lon="21.516917243661">
        <ele>10.8</ele>
        <time>2017-07-27T12:32:44Z</time>
      </trkpt>
      <trkpt lat="60.111212095154" lon="21.516940629162">
        <ele>10.8</ele>
        <time>2017-07-27T12:32:45Z</time>
      </trkpt>
      <trkpt lat="60.111204216168" lon="21.516959572256">
        <ele>10.8</ele>
        <time>2017-07-27T12:32:46Z</time>
      </trkpt>
      <trkpt lat="60.111192984422" lon="21.516983628309">
        <ele>10.8</ele>
        <time>2017-07-27T12:32:47Z</time>
      </trkpt>
      <trkpt lat="60.111184267246" lon="21.517002571403">
        <ele>10.8</ele>
        <time>2017-07-27T12:32:48Z</time>
      </trkpt>
      <trkpt lat="60.111172867862" lon="21.517027717103">
        <ele>10.8</ele>
        <time>2017-07-27T12:32:49Z</time>
      </trkpt>
      <trkpt lat="60.111164318324" lon="21.517043391256">
        <ele>10.8</ele>
        <time>2017-07-27T12:32:50Z</time>
      </trkpt>
      <trkpt lat="60.111151074922" lon="21.517070632431">
        <ele>10.8</ele>
        <time>2017-07-27T12:32:51Z</time>
      </trkpt>
      <trkpt lat="60.111142944479" lon="21.51708496548">
        <ele>10.8</ele>
        <time>2017-07-27T12:32:52Z</time>
      </trkpt>
      <trkpt lat="60.111131209819" lon="21.517111200827">
        <ele>10.8</ele>
        <time>2017-07-27T12:32:53Z</time>
      </trkpt>
      <trkpt lat="60.111123079376" lon="21.517121929659">
        <ele>10.8</ele>
        <time>2017-07-27T12:32:54Z</time>
      </trkpt>
      <trkpt lat="60.111109081603" lon="21.517139783106">
        <ele>10.8</ele>
        <time>2017-07-27T12:32:55Z</time>
      </trkpt>
      <trkpt lat="60.111100615884" lon="21.51715537344">
        <ele>10.8</ele>
        <time>2017-07-27T12:32:56Z</time>
      </trkpt>
      <trkpt lat="60.111087791577" lon="21.517167275738">
        <ele>10.8</ele>
        <time>2017-07-27T12:32:57Z</time>
      </trkpt>
      <trkpt lat="60.111083013894" lon="21.517189236316">
        <ele>10.8</ele>
        <time>2017-07-27T12:32:58Z</time>
      </trkpt>
      <trkpt lat="60.111070608682" lon="21.517197115302">
        <ele>10.8</ele>
        <time>2017-07-27T12:32:59Z</time>
      </trkpt>
      <trkpt lat="60.111064573714" lon="21.517211029256">
        <ele>10.8</ele>
        <time>2017-07-27T12:33:00Z</time>
      </trkpt>
      <trkpt lat="60.11105736528" lon="21.517230894359">
        <ele>10.8</ele>
        <time>2017-07-27T12:33:01Z</time>
      </trkpt>
      <trkpt lat="60.111052922873" lon="21.5172425452">
        <ele>10.8</ele>
        <time>2017-07-27T12:33:02Z</time>
      </trkpt>
      <trkpt lat="60.111046720267" lon="21.517267858538">
        <ele>10.8</ele>
        <time>2017-07-27T12:33:03Z</time>
      </trkpt>
      <trkpt lat="60.111043618964" lon="21.517283784148">
        <ele>10.8</ele>
        <time>2017-07-27T12:33:04Z</time>
      </trkpt>
      <trkpt lat="60.111036829625" lon="21.517313875169">
        <ele>10.8</ele>
        <time>2017-07-27T12:33:05Z</time>
      </trkpt>
      <trkpt lat="60.111033476865" lon="21.517329633141">
        <ele>10.8</ele>
        <time>2017-07-27T12:33:06Z</time>
      </trkpt>
      <trkpt lat="60.111026519888" lon="21.517364418026">
        <ele>10.8</ele>
        <time>2017-07-27T12:33:07Z</time>
      </trkpt>
      <trkpt lat="60.111022664214" lon="21.51737917017">
        <ele>10.8</ele>
        <time>2017-07-27T12:33:08Z</time>
      </trkpt>
      <trkpt lat="60.111018221807" lon="21.517409847924">
        <ele>10.8</ele>
        <time>2017-07-27T12:33:09Z</time>
      </trkpt>
      <trkpt lat="60.111011683925" lon="21.517431473226">
        <ele>10.8</ele>
        <time>2017-07-27T12:33:10Z</time>
      </trkpt>
      <trkpt lat="60.111007325337" lon="21.517457708573">
        <ele>10.8</ele>
        <time>2017-07-27T12:33:11Z</time>
      </trkpt>
      <trkpt lat="60.110999278713" lon="21.517484698291">
        <ele>10.8</ele>
        <time>2017-07-27T12:33:12Z</time>
      </trkpt>
      <trkpt lat="60.110995925953" lon="21.517507329421">
        <ele>10.8</ele>
        <time>2017-07-27T12:33:13Z</time>
      </trkpt>
      <trkpt lat="60.110988717519" lon="21.517535408786">
        <ele>10.8</ele>
        <time>2017-07-27T12:33:14Z</time>
      </trkpt>
      <trkpt lat="60.110984861845" lon="21.517556950269">
        <ele>10.8</ele>
        <time>2017-07-27T12:33:15Z</time>
      </trkpt>
      <trkpt lat="60.110977318135" lon="21.517589974955">
        <ele>10.8</ele>
        <time>2017-07-27T12:33:16Z</time>
      </trkpt>
      <trkpt lat="60.110972875728" lon="21.517604978556">
        <ele>10.8</ele>
        <time>2017-07-27T12:33:17Z</time>
      </trkpt>
      <trkpt lat="60.110965499656" lon="21.517642613287">
        <ele>10.8</ele>
        <time>2017-07-27T12:33:18Z</time>
      </trkpt>
      <trkpt lat="60.110960386697" lon="21.517656694879">
        <ele>10.8</ele>
        <time>2017-07-27T12:33:19Z</time>
      </trkpt>
      <trkpt lat="60.110952842987" lon="21.517693156144">
        <ele>10.8</ele>
        <time>2017-07-27T12:33:20Z</time>
      </trkpt>
      <trkpt lat="60.1109467242" lon="21.517711680143">
        <ele>10.8</ele>
        <time>2017-07-27T12:33:21Z</time>
      </trkpt>
      <trkpt lat="60.110940437775" lon="21.517743112268">
        <ele>10.8</ele>
        <time>2017-07-27T12:33:22Z</time>
      </trkpt>
      <trkpt lat="60.110934067531" lon="21.517764234656">
        <ele>10.8</ele>
        <time>2017-07-27T12:33:23Z</time>
      </trkpt>
      <trkpt lat="60.110928619296" lon="21.517793571306">
        <ele>10.8</ele>
        <time>2017-07-27T12:33:24Z</time>
      </trkpt>
      <trkpt lat="60.110921159405" lon="21.517823327051">
        <ele>10.8</ele>
        <time>2017-07-27T12:33:25Z</time>
      </trkpt>
      <trkpt lat="60.110916381722" lon="21.517848808027">
        <ele>10.8</ele>
        <time>2017-07-27T12:33:26Z</time>
      </trkpt>
      <trkpt lat="60.110908921831" lon="21.517879066686">
        <ele>10.8</ele>
        <time>2017-07-27T12:33:27Z</time>
      </trkpt>
      <trkpt lat="60.110904730881" lon="21.517904044748">
        <ele>10.8</ele>
        <time>2017-07-27T12:33:28Z</time>
      </trkpt>
      <trkpt lat="60.11089810918" lon="21.51793321376">
        <ele>10.8</ele>
        <time>2017-07-27T12:33:29Z</time>
      </trkpt>
      <trkpt lat="60.110894002049" lon="21.517957185994">
        <ele>10.8</ele>
        <time>2017-07-27T12:33:30Z</time>
      </trkpt>
      <trkpt lat="60.110887715624" lon="21.517995407458">
        <ele>10.8</ele>
        <time>2017-07-27T12:33:31Z</time>
      </trkpt>
      <trkpt lat="60.110885201054" lon="21.518015440199">
        <ele>10.8</ele>
        <time>2017-07-27T12:33:32Z</time>
      </trkpt>
      <trkpt lat="60.110877908801" lon="21.518055673319">
        <ele>10.8</ele>
        <time>2017-07-27T12:33:33Z</time>
      </trkpt>
      <trkpt lat="60.110875058955" lon="21.518073778223">
        <ele>10.8</ele>
        <time>2017-07-27T12:33:34Z</time>
      </trkpt>
      <trkpt lat="60.110868018159" lon="21.518110323307">
        <ele>10.8</ele>
        <time>2017-07-27T12:33:35Z</time>
      </trkpt>
      <trkpt lat="60.110863324295" lon="21.518129266401">
        <ele>10.8</ele>
        <time>2017-07-27T12:33:36Z</time>
      </trkpt>
      <trkpt lat="60.110857456965" lon="21.518166649675">
        <ele>10.8</ele>
        <time>2017-07-27T12:33:37Z</time>
      </trkpt>
      <trkpt lat="60.110853768929" lon="21.518185257493">
        <ele>10.8</ele>
        <time>2017-07-27T12:33:38Z</time>
      </trkpt>
      <trkpt lat="60.110849745617" lon="21.518220629111">
        <ele>10.8</ele>
        <time>2017-07-27T12:33:39Z</time>
      </trkpt>
      <trkpt lat="60.110845638486" lon="21.518245271897">
        <ele>10.8</ele>
        <time>2017-07-27T12:33:40Z</time>
      </trkpt>
      <trkpt lat="60.110842956278" lon="21.518277877488">
        <ele>10.8</ele>
        <time>2017-07-27T12:33:41Z</time>
      </trkpt>
      <trkpt lat="60.11083943588" lon="21.518308052328">
        <ele>10.8</ele>
        <time>2017-07-27T12:33:42Z</time>
      </trkpt>
      <trkpt lat="60.110837256586" lon="21.518337891892">
        <ele>10.8</ele>
        <time>2017-07-27T12:33:43Z</time>
      </trkpt>
      <trkpt lat="60.110832981817" lon="21.518367647637">
        <ele>10.8</ele>
        <time>2017-07-27T12:33:44Z</time>
      </trkpt>
      <trkpt lat="60.110830467247" lon="21.518396397554">
        <ele>10.8</ele>
        <time>2017-07-27T12:33:45Z</time>
      </trkpt>
      <trkpt lat="60.110825605745" lon="21.518433110276">
        <ele>10.8</ele>
        <time>2017-07-27T12:33:46Z</time>
      </trkpt>
      <trkpt lat="60.110822085347" lon="21.518452221008">
        <ele>10.8</ele>
        <time>2017-07-27T12:33:47Z</time>
      </trkpt>
      <trkpt lat="60.110815212189" lon="21.518492537947">
        <ele>10.8</ele>
        <time>2017-07-27T12:33:48Z</time>
      </trkpt>
      <trkpt lat="60.110812278524" lon="21.518510223756">
        <ele>10.8</ele>
        <time>2017-07-27T12:33:49Z</time>
      </trkpt>
      <trkpt lat="60.110806159737" lon="21.518549115772">
        <ele>10.8</ele>
        <time>2017-07-27T12:33:50Z</time>
      </trkpt>
      <trkpt lat="60.110801884968" lon="21.518569148513">
        <ele>10.8</ele>
        <time>2017-07-27T12:33:51Z</time>
      </trkpt>
      <trkpt lat="60.110797694018" lon="21.518602676113">
        <ele>10.8</ele>
        <time>2017-07-27T12:33:52Z</time>
      </trkpt>
      <trkpt lat="60.110791910507" lon="21.518624888148">
        <ele>10.8</ele>
        <time>2017-07-27T12:33:53Z</time>
      </trkpt>
      <trkpt lat="60.110788054833" lon="21.518655062988">
        <ele>10.8</ele>
        <time>2017-07-27T12:33:54Z</time>
      </trkpt>
      <trkpt lat="60.110781852227" lon="21.518681382154">
        <ele>10.8</ele>
        <time>2017-07-27T12:33:55Z</time>
      </trkpt>
      <trkpt lat="60.110777242182" lon="21.518711724632">
        <ele>10.8</ele>
        <time>2017-07-27T12:33:56Z</time>
      </trkpt>
      <trkpt lat="60.110770452843" lon="21.518739720178">
        <ele>10.8</ele>
        <time>2017-07-27T12:33:57Z</time>
      </trkpt>
      <trkpt lat="60.110766597169" lon="21.518764530602">
        <ele>10.8</ele>
        <time>2017-07-27T12:33:58Z</time>
      </trkpt>
      <trkpt lat="60.110759137278" lon="21.518794705442">
        <ele>10.8</ele>
        <time>2017-07-27T12:33:59Z</time>
      </trkpt>
      <trkpt lat="60.110754359595" lon="21.518815744011">
        <ele>10.8</ele>
        <time>2017-07-27T12:34:00Z</time>
      </trkpt>
      <trkpt lat="60.110743798401" lon="21.518850277439">
        <ele>10.8</ele>
        <time>2017-07-27T12:34:01Z</time>
      </trkpt>
      <trkpt lat="60.11073885308" lon="21.518867963248">
        <ele>10.8</ele>
        <time>2017-07-27T12:34:02Z</time>
      </trkpt>
      <trkpt lat="60.110728459524" lon="21.5189021614">
        <ele>10.8</ele>
        <time>2017-07-27T12:34:03Z</time>
      </trkpt>
      <trkpt lat="60.110722256918" lon="21.518918422286">
        <ele>10.8</ele>
        <time>2017-07-27T12:34:04Z</time>
      </trkpt>
      <trkpt lat="60.11071119281" lon="21.518949351497">
        <ele>10.8</ele>
        <time>2017-07-27T12:34:05Z</time>
      </trkpt>
      <trkpt lat="60.110703062367" lon="21.518966953487">
        <ele>10.8</ele>
        <time>2017-07-27T12:34:06Z</time>
      </trkpt>
      <trkpt lat="60.110692165897" lon="21.518985561305">
        <ele>10.8</ele>
        <time>2017-07-27T12:34:07Z</time>
      </trkpt>
      <trkpt lat="60.110678168124" lon="21.519008192435">
        <ele>10.8</ele>
        <time>2017-07-27T12:34:08Z</time>
      </trkpt>
      <trkpt lat="60.110676072649" lon="21.519027386986">
        <ele>10.8</ele>
        <time>2017-07-27T12:34:09Z</time>
      </trkpt>
      <trkpt lat="60.110658805935" lon="21.519047503546">
        <ele>10.8</ele>
        <time>2017-07-27T12:34:10Z</time>
      </trkpt>
      <trkpt lat="60.110655620813" lon="21.519066027545">
        <ele>10.8</ele>
        <time>2017-07-27T12:34:11Z</time>
      </trkpt>
      <trkpt lat="60.11064916675" lon="21.519093603996">
        <ele>10.8</ele>
        <time>2017-07-27T12:34:12Z</time>
      </trkpt>
      <trkpt lat="60.11064413761" lon="21.519107098855">
        <ele>10.8</ele>
        <time>2017-07-27T12:34:13Z</time>
      </trkpt>
      <trkpt lat="60.110638773194" lon="21.519141297007">
        <ele>10.8</ele>
        <time>2017-07-27T12:34:14Z</time>
      </trkpt>
      <trkpt lat="60.110634498425" lon="21.519159318092">
        <ele>10.8</ele>
        <time>2017-07-27T12:34:15Z</time>
      </trkpt>
      <trkpt lat="60.11063156476" lon="21.519190666398">
        <ele>10.8</ele>
        <time>2017-07-27T12:34:16Z</time>
      </trkpt>
      <trkpt lat="60.110628128181" lon="21.519214219537">
        <ele>10.8</ele>
        <time>2017-07-27T12:34:17Z</time>
      </trkpt>
      <trkpt lat="60.110625948887" lon="21.519242717997">
        <ele>10.8</ele>
        <time>2017-07-27T12:34:18Z</time>
      </trkpt>
      <trkpt lat="60.110623266679" lon="21.519276748511">
        <ele>10.8</ele>
        <time>2017-07-27T12:34:19Z</time>
      </trkpt>
      <trkpt lat="60.110620835928" lon="21.519299547279">
        <ele>10.8</ele>
        <time>2017-07-27T12:34:20Z</time>
      </trkpt>
      <trkpt lat="60.110617902263" lon="21.519341624417">
        <ele>10.8</ele>
        <time>2017-07-27T12:34:21Z</time>
      </trkpt>
      <trkpt lat="60.110615722969" lon="21.51936065133">
        <ele>10.8</ele>
        <time>2017-07-27T12:34:22Z</time>
      </trkpt>
      <trkpt lat="60.110612956942" lon="21.519396190586">
        <ele>10.8</ele>
        <time>2017-07-27T12:34:23Z</time>
      </trkpt>
      <trkpt lat="60.110609436544" lon="21.519420079001">
        <ele>10.8</ele>
        <time>2017-07-27T12:34:24Z</time>
      </trkpt>
      <trkpt lat="60.110607341069" lon="21.51944949947">
        <ele>10.8</ele>
        <time>2017-07-27T12:34:25Z</time>
      </trkpt>
      <trkpt lat="60.110601641377" lon="21.519481769785">
        <ele>10.8</ele>
        <time>2017-07-27T12:34:26Z</time>
      </trkpt>
      <trkpt lat="60.110598540074" lon="21.519505071467">
        <ele>10.8</ele>
        <time>2017-07-27T12:34:27Z</time>
      </trkpt>
      <trkpt lat="60.110589822898" lon="21.519532396461">
        <ele>10.8</ele>
        <time>2017-07-27T12:34:28Z</time>
      </trkpt>
      <trkpt lat="60.110582195369" lon="21.519551255736">
        <ele>10.8</ele>
        <time>2017-07-27T12:34:29Z</time>
      </trkpt>
      <trkpt lat="60.110576579496" lon="21.51958025711">
        <ele>10.8</ele>
        <time>2017-07-27T12:34:30Z</time>
      </trkpt>
      <trkpt lat="60.110572472365" lon="21.519605486629">
        <ele>10.8</ele>
        <time>2017-07-27T12:34:31Z</time>
      </trkpt>
      <trkpt lat="60.110570209252" lon="21.519619316764">
        <ele>10.8</ele>
        <time>2017-07-27T12:34:32Z</time>
      </trkpt>
      <trkpt lat="60.110560989162" lon="21.519655778029">
        <ele>10.8</ele>
        <time>2017-07-27T12:34:33Z</time>
      </trkpt>
      <trkpt lat="60.110558139316" lon="21.519669859621">
        <ele>10.8</ele>
        <time>2017-07-27T12:34:34Z</time>
      </trkpt>
      <trkpt lat="60.110549757416" lon="21.519703554859">
        <ele>10.8</ele>
        <time>2017-07-27T12:34:35Z</time>
      </trkpt>
      <trkpt lat="60.110544309181" lon="21.519723755238">
        <ele>10.8</ele>
        <time>2017-07-27T12:34:36Z</time>
      </trkpt>
      <trkpt lat="60.110534418539" lon="21.519746134911">
        <ele>10.8</ele>
        <time>2017-07-27T12:34:37Z</time>
      </trkpt>
      <trkpt lat="60.110525449906" lon="21.519770023326">
        <ele>10.8</ele>
        <time>2017-07-27T12:34:38Z</time>
      </trkpt>
      <trkpt lat="60.110522432422" lon="21.519784440194">
        <ele>10.8</ele>
        <time>2017-07-27T12:34:39Z</time>
      </trkpt>
      <trkpt lat="60.110515307807" lon="21.519811346093">
        <ele>10.8</ele>
        <time>2017-07-27T12:34:40Z</time>
      </trkpt>
      <trkpt lat="60.110505165708" lon="21.519823835124">
        <ele>10.8</ele>
        <time>2017-07-27T12:34:41Z</time>
      </trkpt>
      <trkpt lat="60.110499801292" lon="21.519847555901">
        <ele>10.8</ele>
        <time>2017-07-27T12:34:42Z</time>
      </trkpt>
      <trkpt lat="60.11049493979" lon="21.519871360497">
        <ele>10.8</ele>
        <time>2017-07-27T12:34:43Z</time>
      </trkpt>
      <trkpt lat="60.110493347229" lon="21.519886867012">
        <ele>10.8</ele>
        <time>2017-07-27T12:34:44Z</time>
      </trkpt>
      <trkpt lat="60.110487563718" lon="21.51992056225">
        <ele>10.8</ele>
        <time>2017-07-27T12:34:45Z</time>
      </trkpt>
      <trkpt lat="60.110483791863" lon="21.519936655498">
        <ele>10.8</ele>
        <time>2017-07-27T12:34:46Z</time>
      </trkpt>
      <trkpt lat="60.110480355284" lon="21.519970769831">
        <ele>10.8</ele>
        <time>2017-07-27T12:34:47Z</time>
      </trkpt>
      <trkpt lat="60.110475996696" lon="21.519992730409">
        <ele>10.8</ele>
        <time>2017-07-27T12:34:48Z</time>
      </trkpt>
      <trkpt lat="60.11047314685" lon="21.520022150878">
        <ele>10.8</ele>
        <time>2017-07-27T12:34:49Z</time>
      </trkpt>
      <trkpt lat="60.110468452986" lon="21.520054924107">
        <ele>10.8</ele>
        <time>2017-07-27T12:34:50Z</time>
      </trkpt>
      <trkpt lat="60.110464262036" lon="21.520077471418">
        <ele>10.8</ele>
        <time>2017-07-27T12:34:51Z</time>
      </trkpt>
      <trkpt lat="60.110459149077" lon="21.52011669871">
        <ele>10.8</ele>
        <time>2017-07-27T12:34:52Z</time>
      </trkpt>
      <trkpt lat="60.11045386848" lon="21.520133965424">
        <ele>10.8</ele>
        <time>2017-07-27T12:34:53Z</time>
      </trkpt>
      <trkpt lat="60.110449342254" lon="21.52016866649">
        <ele>10.8</ele>
        <time>2017-07-27T12:34:54Z</time>
      </trkpt>
      <trkpt lat="60.110443391105" lon="21.520196242941">
        <ele>10.8</ele>
        <time>2017-07-27T12:34:55Z</time>
      </trkpt>
      <trkpt lat="60.11043878106" lon="21.520223567935">
        <ele>10.8</ele>
        <time>2017-07-27T12:34:56Z</time>
      </trkpt>
      <trkpt lat="60.110430650617" lon="21.520258688096">
        <ele>10.8</ele>
        <time>2017-07-27T12:34:57Z</time>
      </trkpt>
      <trkpt lat="60.110426627305" lon="21.520277547371">
        <ele>10.8</ele>
        <time>2017-07-27T12:34:58Z</time>
      </trkpt>
      <trkpt lat="60.110420508518" lon="21.520308057487">
        <ele>10.8</ele>
        <time>2017-07-27T12:34:59Z</time>
      </trkpt>
      <trkpt lat="60.110412042799" lon="21.520337477956">
        <ele>10.8</ele>
        <time>2017-07-27T12:35:00Z</time>
      </trkpt>
      <trkpt lat="60.110406846021" lon="21.520358851801">
        <ele>10.8</ele>
        <time>2017-07-27T12:35:01Z</time>
      </trkpt>
      <trkpt lat="60.110396368646" lon="21.520380309465">
        <ele>10.8</ele>
        <time>2017-07-27T12:35:02Z</time>
      </trkpt>
      <trkpt lat="60.110383041425" lon="21.520406125717">
        <ele>10.8</ele>
        <time>2017-07-27T12:35:03Z</time>
      </trkpt>
      <trkpt lat="60.110381867959" lon="21.52043101996">
        <ele>10.8</ele>
        <time>2017-07-27T12:35:04Z</time>
      </trkpt>
      <trkpt lat="60.110368540738" lon="21.520458847868">
        <ele>10.8</ele>
        <time>2017-07-27T12:35:05Z</time>
      </trkpt>
      <trkpt lat="60.110361080847" lon="21.520480640808">
        <ele>10.8</ele>
        <time>2017-07-27T12:35:06Z</time>
      </trkpt>
      <trkpt lat="60.110355884069" lon="21.520513078761">
        <ele>10.8</ele>
        <time>2017-07-27T12:35:07Z</time>
      </trkpt>
      <trkpt lat="60.110344484685" lon="21.520535709891">
        <ele>10.8</ele>
        <time>2017-07-27T12:35:08Z</time>
      </trkpt>
      <trkpt lat="60.110344819961" lon="21.520560268858">
        <ele>10.8</ele>
        <time>2017-07-27T12:35:09Z</time>
      </trkpt>
      <trkpt lat="60.110337443889" lon="21.520594634648">
        <ele>10.8</ele>
        <time>2017-07-27T12:35:10Z</time>
      </trkpt>
      <trkpt lat="60.110336186604" lon="21.520615589398">
        <ele>10.8</ele>
        <time>2017-07-27T12:35:11Z</time>
      </trkpt>
      <trkpt lat="60.110335599871" lon="21.52064811117">
        <ele>10.8</ele>
        <time>2017-07-27T12:35:12Z</time>
      </trkpt>
      <trkpt lat="60.110333085301" lon="21.520669736472">
        <ele>10.8</ele>
        <time>2017-07-27T12:35:13Z</time>
      </trkpt>
      <trkpt lat="60.110332666206" lon="21.520698067294">
        <ele>10.8</ele>
        <time>2017-07-27T12:35:14Z</time>
      </trkpt>
      <trkpt lat="60.110331157464" lon="21.520730924342">
        <ele>10.8</ele>
        <time>2017-07-27T12:35:15Z</time>
      </trkpt>
      <trkpt lat="60.110331995654" lon="21.52075288492">
        <ele>10.8</ele>
        <time>2017-07-27T12:35:16Z</time>
      </trkpt>
      <trkpt lat="60.110333420577" lon="21.520789597642">
        <ele>10.8</ele>
        <time>2017-07-27T12:35:17Z</time>
      </trkpt>
      <trkpt lat="60.110333588215" lon="21.520816419722">
        <ele>10.8</ele>
        <time>2017-07-27T12:35:18Z</time>
      </trkpt>
      <trkpt lat="60.110333839672" lon="21.520845756372">
        <ele>10.8</ele>
        <time>2017-07-27T12:35:19Z</time>
      </trkpt>
      <trkpt lat="60.110333085301" lon="21.520884229293">
        <ele>10.8</ele>
        <time>2017-07-27T12:35:20Z</time>
      </trkpt>
      <trkpt lat="60.110332750025" lon="21.520906944242">
        <ele>10.8</ele>
        <time>2017-07-27T12:35:21Z</time>
      </trkpt>
      <trkpt lat="60.110331828016" lon="21.520950027208">
        <ele>10.8</ele>
        <time>2017-07-27T12:35:22Z</time>
      </trkpt>
      <trkpt lat="60.110330319274" lon="21.520970227587">
        <ele>10.8</ele>
        <time>2017-07-27T12:35:23Z</time>
      </trkpt>
      <trkpt lat="60.110328810532" lon="21.521005263929">
        <ele>10.8</ele>
        <time>2017-07-27T12:35:24Z</time>
      </trkpt>
      <trkpt lat="60.110324451944" lon="21.521036779873">
        <ele>10.8</ele>
        <time>2017-07-27T12:35:25Z</time>
      </trkpt>
      <trkpt lat="60.110321685917" lon="21.521063266677">
        <ele>10.8</ele>
        <time>2017-07-27T12:35:26Z</time>
      </trkpt>
      <trkpt lat="60.110315399492" lon="21.521100147037">
        <ele>10.8</ele>
        <time>2017-07-27T12:35:27Z</time>
      </trkpt>
      <trkpt lat="60.110311040904" lon="21.521120179778">
        <ele>10.8</ele>
        <time>2017-07-27T12:35:28Z</time>
      </trkpt>
      <trkpt lat="60.11030383247" lon="21.521153120645">
        <ele>10.8</ele>
        <time>2017-07-27T12:35:29Z</time>
      </trkpt>
      <trkpt lat="60.110298468054" lon="21.521171393187">
        <ele>10.8</ele>
        <time>2017-07-27T12:35:30Z</time>
      </trkpt>
      <trkpt lat="60.110290337611" lon="21.521210369022">
        <ele>10.8</ele>
        <time>2017-07-27T12:35:31Z</time>
      </trkpt>
      <trkpt lat="60.110284386462" lon="21.521227887193">
        <ele>10.8</ele>
        <time>2017-07-27T12:35:32Z</time>
      </trkpt>
      <trkpt lat="60.110278435313" lon="21.521260408965">
        <ele>10.8</ele>
        <time>2017-07-27T12:35:33Z</time>
      </trkpt>
      <trkpt lat="60.110273322354" lon="21.521281196077">
        <ele>10.8</ele>
        <time>2017-07-27T12:35:34Z</time>
      </trkpt>
      <trkpt lat="60.110268879947" lon="21.5213077667">
        <ele>10.8</ele>
        <time>2017-07-27T12:35:35Z</time>
      </trkpt>
      <trkpt lat="60.110263431712" lon="21.521337773902">
        <ele>10.8</ele>
        <time>2017-07-27T12:35:36Z</time>
      </trkpt>
      <trkpt lat="60.110259743676" lon="21.521355375892">
        <ele>10.8</ele>
        <time>2017-07-27T12:35:37Z</time>
      </trkpt>
      <trkpt lat="60.110252619061" lon="21.521392004795">
        <ele>10.8</ele>
        <time>2017-07-27T12:35:38Z</time>
      </trkpt>
      <trkpt lat="60.110248679568" lon="21.521407930405">
        <ele>10.8</ele>
        <time>2017-07-27T12:35:39Z</time>
      </trkpt>
      <trkpt lat="60.110244153342" lon="21.521442799109">
        <ele>10.8</ele>
        <time>2017-07-27T12:35:40Z</time>
      </trkpt>
      <trkpt lat="60.110238956564" lon="21.521462328936">
        <ele>10.8</ele>
        <time>2017-07-27T12:35:41Z</time>
      </trkpt>
      <trkpt lat="60.110234681795" lon="21.521493341966">
        <ele>10.8</ele>
        <time>2017-07-27T12:35:42Z</time>
      </trkpt>
      <trkpt lat="60.110228982103" lon="21.521520918417">
        <ele>10.8</ele>
        <time>2017-07-27T12:35:43Z</time>
      </trkpt>
      <trkpt lat="60.110227054266" lon="21.521542627538">
        <ele>10.8</ele>
        <time>2017-07-27T12:35:44Z</time>
      </trkpt>
      <trkpt lat="60.110221354574" lon="21.521578166794">
        <ele>10.8</ele>
        <time>2017-07-27T12:35:45Z</time>
      </trkpt>
      <trkpt lat="60.110217750357" lon="21.521596523155">
        <ele>10.8</ele>
        <time>2017-07-27T12:35:46Z</time>
      </trkpt>
      <trkpt lat="60.110210709561" lon="21.521616388258">
        <ele>10.8</ele>
        <time>2017-07-27T12:35:47Z</time>
      </trkpt>
      <trkpt lat="60.110202830575" lon="21.521655112636">
        <ele>10.8</ele>
        <time>2017-07-27T12:35:48Z</time>
      </trkpt>
      <trkpt lat="60.110201824747" lon="21.521673301359">
        <ele>10.8</ele>
        <time>2017-07-27T12:35:49Z</time>
      </trkpt>
      <trkpt lat="60.110196208874" lon="21.521705990769">
        <ele>10.8</ele>
        <time>2017-07-27T12:35:50Z</time>
      </trkpt>
      <trkpt lat="60.110192856114" lon="21.521727364614">
        <ele>10.8</ele>
        <time>2017-07-27T12:35:51Z</time>
      </trkpt>
      <trkpt lat="60.110194448675" lon="21.521757539454">
        <ele>10.8</ele>
        <time>2017-07-27T12:35:52Z</time>
      </trkpt>
      <trkpt lat="60.110189084259" lon="21.521784864448">
        <ele>10.8</ele>
        <time>2017-07-27T12:35:53Z</time>
      </trkpt>
      <trkpt lat="60.11019486777" lon="21.521804142818">
        <ele>10.8</ele>
        <time>2017-07-27T12:35:54Z</time>
      </trkpt>
      <trkpt lat="60.110191347372" lon="21.521838927703">
        <ele>10.8</ele>
        <time>2017-07-27T12:35:55Z</time>
      </trkpt>
      <trkpt lat="60.110197885254" lon="21.521856362055">
        <ele>10.8</ele>
        <time>2017-07-27T12:35:56Z</time>
      </trkpt>
      <trkpt lat="60.110201405652" lon="21.521889973474">
        <ele>10.8</ele>
        <time>2017-07-27T12:35:57Z</time>
      </trkpt>
      <trkpt lat="60.110207859715" lon="21.521904641799">
        <ele>10.8</ele>
        <time>2017-07-27T12:35:58Z</time>
      </trkpt>
      <trkpt lat="60.110216828348" lon="21.52192886549">
        <ele>10.8</ele>
        <time>2017-07-27T12:35:59Z</time>
      </trkpt>
      <trkpt lat="60.110221270755" lon="21.521944204367">
        <ele>10.8</ele>
        <time>2017-07-27T12:36:00Z</time>
      </trkpt>
      <trkpt lat="60.110233005415" lon="21.521970188257">
        <ele>10.8</ele>
        <time>2017-07-27T12:36:01Z</time>
      </trkpt>
      <trkpt lat="60.110236944908" lon="21.521983264021">
        <ele>10.8</ele>
        <time>2017-07-27T12:36:02Z</time>
      </trkpt>
      <trkpt lat="60.110250439767" lon="21.522005224599">
        <ele>10.8</ele>
        <time>2017-07-27T12:36:03Z</time>
      </trkpt>
      <trkpt lat="60.110257145287" lon="21.52202609553">
        <ele>10.8</ele>
        <time>2017-07-27T12:36:04Z</time>
      </trkpt>
      <trkpt lat="60.110264186083" lon="21.522042524054">
        <ele>10.8</ele>
        <time>2017-07-27T12:36:05Z</time>
      </trkpt>
      <trkpt lat="60.110277597123" lon="21.522073620903">
        <ele>10.8</ele>
        <time>2017-07-27T12:36:06Z</time>
      </trkpt>
      <trkpt lat="60.110285727566" lon="21.522079069138">
        <ele>10.8</ele>
        <time>2017-07-27T12:36:07Z</time>
      </trkpt>
      <trkpt lat="60.110299222425" lon="21.522100359164">
        <ele>10.8</ele>
        <time>2017-07-27T12:36:08Z</time>
      </trkpt>
      <trkpt lat="60.11030383247" lon="21.522110082168">
        <ele>10.8</ele>
        <time>2017-07-27T12:36:09Z</time>
      </trkpt>
      <trkpt lat="60.110320847727" lon="21.522134557316">
        <ele>10.8</ele>
        <time>2017-07-27T12:36:10Z</time>
      </trkpt>
      <trkpt lat="60.110327050333" lon="21.522145369967">
        <ele>10.8</ele>
        <time>2017-07-27T12:36:11Z</time>
      </trkpt>
      <trkpt lat="60.110336354242" lon="21.522167833459">
        <ele>10.8</ele>
        <time>2017-07-27T12:36:12Z</time>
      </trkpt>
      <trkpt lat="60.110346496341" lon="21.522194404082">
        <ele>10.8</ele>
        <time>2017-07-27T12:36:13Z</time>
      </trkpt>
      <trkpt lat="60.110358817734" lon="21.522200271412">
        <ele>10.8</ele>
        <time>2017-07-27T12:36:14Z</time>
      </trkpt>
      <trkpt lat="60.110371139127" lon="21.522233296098">
        <ele>10.8</ele>
        <time>2017-07-27T12:36:15Z</time>
      </trkpt>
      <trkpt lat="60.11038094595" lon="21.522241342722">
        <ele>10.8</ele>
        <time>2017-07-27T12:36:16Z</time>
      </trkpt>
      <trkpt lat="60.110393686438" lon="21.522253328839">
        <ele>10.8</ele>
        <time>2017-07-27T12:36:17Z</time>
      </trkpt>
      <trkpt lat="60.110401816881" lon="21.52226665606">
        <ele>10.8</ele>
        <time>2017-07-27T12:36:18Z</time>
      </trkpt>
      <trkpt lat="60.1104186645" lon="21.522281324385">
        <ele>10.8</ele>
        <time>2017-07-27T12:36:19Z</time>
      </trkpt>
      <trkpt lat="60.110429896246" lon="21.522290460656">
        <ele>10.8</ele>
        <time>2017-07-27T12:36:20Z</time>
      </trkpt>
      <trkpt lat="60.110440625078" lon="21.52230605099">
        <ele>10.8</ele>
        <time>2017-07-27T12:36:21Z</time>
      </trkpt>
      <trkpt lat="60.110452862652" lon="21.522318875297">
        <ele>10.8</ele>
        <time>2017-07-27T12:36:22Z</time>
      </trkpt>
      <trkpt lat="60.110467698615" lon="21.522330945233">
        <ele>10.8</ele>
        <time>2017-07-27T12:36:23Z</time>
      </trkpt>
      <trkpt lat="60.110476751067" lon="21.522340919694">
        <ele>10.8</ele>
        <time>2017-07-27T12:36:24Z</time>
      </trkpt>
      <trkpt lat="60.110496364713" lon="21.52235718058">
        <ele>10.8</ele>
        <time>2017-07-27T12:36:25Z</time>
      </trkpt>
      <trkpt lat="60.11050667445" lon="21.522368328507">
        <ele>10.8</ele>
        <time>2017-07-27T12:36:26Z</time>
      </trkpt>
      <trkpt lat="60.110521258956" lon="21.522384421755">
        <ele>10.8</ele>
        <time>2017-07-27T12:36:27Z</time>
      </trkpt>
      <trkpt lat="60.110532155426" lon="21.522405208867">
        <ele>10.8</ele>
        <time>2017-07-27T12:36:28Z</time>
      </trkpt>
      <trkpt lat="60.110541626973" lon="21.522422475581">
        <ele>10.8</ele>
        <time>2017-07-27T12:36:29Z</time>
      </trkpt>
      <trkpt lat="60.110558809868" lon="21.522438736467">
        <ele>10.8</ele>
        <time>2017-07-27T12:36:30Z</time>
      </trkpt>
      <trkpt lat="60.110565683026" lon="21.522462624882">
        <ele>10.8</ele>
        <time>2017-07-27T12:36:31Z</time>
      </trkpt>
      <trkpt lat="60.110578339695" lon="21.522473353714">
        <ele>10.8</ele>
        <time>2017-07-27T12:36:32Z</time>
      </trkpt>
      <trkpt lat="60.110592421287" lon="21.522487686763">
        <ele>10.8</ele>
        <time>2017-07-27T12:36:33Z</time>
      </trkpt>
      <trkpt lat="60.110601222282" lon="21.522496403939">
        <ele>10.8</ele>
        <time>2017-07-27T12:36:34Z</time>
      </trkpt>
      <trkpt lat="60.110617231711" lon="21.522511575178">
        <ele>10.8</ele>
        <time>2017-07-27T12:36:35Z</time>
      </trkpt>
      <trkpt lat="60.110627541448" lon="21.522520208535">
        <ele>10.8</ele>
        <time>2017-07-27T12:36:36Z</time>
      </trkpt>
      <trkpt lat="60.110647909465" lon="21.522533787213">
        <ele>10.8</ele>
        <time>2017-07-27T12:36:37Z</time>
      </trkpt>
      <trkpt lat="60.110655956089" lon="21.522542504389">
        <ele>10.8</ele>
        <time>2017-07-27T12:36:38Z</time>
      </trkpt>
      <trkpt lat="60.110674396269" lon="21.522554574325">
        <ele>10.8</ele>
        <time>2017-07-27T12:36:39Z</time>
      </trkpt>
      <trkpt lat="60.110687304395" lon="21.522567985365">
        <ele>10.8</ele>
        <time>2017-07-27T12:36:40Z</time>
      </trkpt>
      <trkpt lat="60.11070113453" lon="21.52257846274">
        <ele>10.8</ele>
        <time>2017-07-27T12:36:41Z</time>
      </trkpt>
      <trkpt lat="60.110717730692" lon="21.52260025568">
        <ele>10.8</ele>
        <time>2017-07-27T12:36:42Z</time>
      </trkpt>
      <trkpt lat="60.11072795661" lon="21.522609894865">
        <ele>10.8</ele>
        <time>2017-07-27T12:36:43Z</time>
      </trkpt>
      <trkpt lat="60.110744133677" lon="21.522633364185">
        <ele>10.8</ele>
        <time>2017-07-27T12:36:44Z</time>
      </trkpt>
      <trkpt lat="60.110752934672" lon="21.522650044166">
        <ele>10.8</ele>
        <time>2017-07-27T12:36:45Z</time>
      </trkpt>
      <trkpt lat="60.110770201386" lon="21.522675273685">
        <ele>10.8</ele>
        <time>2017-07-27T12:36:46Z</time>
      </trkpt>
      <trkpt lat="60.110777828915" lon="21.522691450752">
        <ele>10.8</ele>
        <time>2017-07-27T12:36:47Z</time>
      </trkpt>
      <trkpt lat="60.110791575231" lon="21.522714333339">
        <ele>10.8</ele>
        <time>2017-07-27T12:36:48Z</time>
      </trkpt>
      <trkpt lat="60.110801298235" lon="21.522737970297">
        <ele>10.8</ele>
        <time>2017-07-27T12:36:49Z</time>
      </trkpt>
      <trkpt lat="60.110809847773" lon="21.522768480413">
        <ele>10.8</ele>
        <time>2017-07-27T12:36:50Z</time>
      </trkpt>
      <trkpt lat="60.110824935193" lon="21.522785328032">
        <ele>10.8</ele>
        <time>2017-07-27T12:36:51Z</time>
      </trkpt>
      <trkpt lat="60.110830383428" lon="21.52281818508">
        <ele>10.8</ele>
        <time>2017-07-27T12:36:52Z</time>
      </trkpt>
      <trkpt lat="60.110843878287" lon="21.522827991903">
        <ele>10.8</ele>
        <time>2017-07-27T12:36:53Z</time>
      </trkpt>
      <trkpt lat="60.110853936567" lon="21.522861854779">
        <ele>10.8</ele>
        <time>2017-07-27T12:36:54Z</time>
      </trkpt>
      <trkpt lat="60.110866006503" lon="21.522869482308">
        <ele>10.8</ele>
        <time>2017-07-27T12:36:55Z</time>
      </trkpt>
      <trkpt lat="60.110881513018" lon="21.522884737366">
        <ele>10.8</ele>
        <time>2017-07-27T12:36:56Z</time>
      </trkpt>
      <trkpt lat="60.11088888909" lon="21.522896807302">
        <ele>10.8</ele>
        <time>2017-07-27T12:36:57Z</time>
      </trkpt>
      <trkpt lat="60.110906574899" lon="21.522910972713">
        <ele>10.8</ele>
        <time>2017-07-27T12:36:58Z</time>
      </trkpt>
      <trkpt lat="60.110916633179" lon="21.522920779536">
        <ele>10.8</ele>
        <time>2017-07-27T12:36:59Z</time>
      </trkpt>
      <trkpt lat="60.110931133866" lon="21.522932430377">
        <ele>10.8</ele>
        <time>2017-07-27T12:37:00Z</time>
      </trkpt>
      <trkpt lat="60.11094923877" lon="21.52294475177">
        <ele>10.8</ele>
        <time>2017-07-27T12:37:01Z</time>
      </trkpt>
      <trkpt lat="60.110959799964" lon="21.522950870557">
        <ele>10.8</ele>
        <time>2017-07-27T12:37:02Z</time>
      </trkpt>
      <trkpt lat="60.110980000343" lon="21.522961431751">
        <ele>10.8</ele>
        <time>2017-07-27T12:37:03Z</time>
      </trkpt>
      <trkpt lat="60.110990226261" lon="21.522972244402">
        <ele>10.8</ele>
        <time>2017-07-27T12:37:04Z</time>
      </trkpt>
      <trkpt lat="60.111005313681" lon="21.522980123388">
        <ele>10.8</ele>
        <time>2017-07-27T12:37:05Z</time>
      </trkpt>
      <trkpt lat="60.111024508232" lon="21.522991019858">
        <ele>10.8</ele>
        <time>2017-07-27T12:37:06Z</time>
      </trkpt>
      <trkpt lat="60.111035069426" lon="21.52300007231">
        <ele>10.8</ele>
        <time>2017-07-27T12:37:07Z</time>
      </trkpt>
      <trkpt lat="60.111055521262" lon="21.523013818626">
        <ele>10.8</ele>
        <time>2017-07-27T12:37:08Z</time>
      </trkpt>
      <trkpt lat="60.111065160447" lon="21.523023709268">
        <ele>10.8</ele>
        <time>2017-07-27T12:37:09Z</time>
      </trkpt>
      <trkpt lat="60.111082678618" lon="21.523036449756">
        <ele>10.8</ele>
        <time>2017-07-27T12:37:10Z</time>
      </trkpt>
      <trkpt lat="60.111094664735" lon="21.523052459185">
        <ele>10.8</ele>
        <time>2017-07-27T12:37:11Z</time>
      </trkpt>
      <trkpt lat="60.111113021096" lon="21.523066624596">
        <ele>10.8</ele>
        <time>2017-07-27T12:37:12Z</time>
      </trkpt>
      <trkpt lat="60.111125174851" lon="21.523081292921">
        <ele>10.8</ele>
        <time>2017-07-27T12:37:13Z</time>
      </trkpt>
      <trkpt lat="60.111139256443" lon="21.523095290694">
        <ele>10.8</ele>
        <time>2017-07-27T12:37:14Z</time>
      </trkpt>
      <trkpt lat="60.111153002759" lon="21.52311322796">
        <ele>10.8</ele>
        <time>2017-07-27T12:37:15Z</time>
      </trkpt>
      <trkpt lat="60.111166916713" lon="21.523127393371">
        <ele>10.8</ele>
        <time>2017-07-27T12:37:16Z</time>
      </trkpt>
      <trkpt lat="60.111178399916" lon="21.523144324809">
        <ele>10.8</ele>
        <time>2017-07-27T12:37:17Z</time>
      </trkpt>
      <trkpt lat="60.111193319698" lon="21.52315849022">
        <ele>10.8</ele>
        <time>2017-07-27T12:37:18Z</time>
      </trkpt>
      <trkpt lat="60.111207066014" lon="21.523177852409">
        <ele>10.8</ele>
        <time>2017-07-27T12:37:19Z</time>
      </trkpt>
      <trkpt lat="60.111220225597" lon="21.523192185458">
        <ele>10.8</ele>
        <time>2017-07-27T12:37:20Z</time>
      </trkpt>
      <trkpt lat="60.111234726284" lon="21.523211128552">
        <ele>10.8</ele>
        <time>2017-07-27T12:37:21Z</time>
      </trkpt>
      <trkpt lat="60.111247885867" lon="21.523224455773">
        <ele>10.8</ele>
        <time>2017-07-27T12:37:22Z</time>
      </trkpt>
      <trkpt lat="60.111260793993" lon="21.52324314741">
        <ele>10.8</ele>
        <time>2017-07-27T12:37:23Z</time>
      </trkpt>
      <trkpt lat="60.111273953576" lon="21.523256306993">
        <ele>10.8</ele>
        <time>2017-07-27T12:37:24Z</time>
      </trkpt>
      <trkpt lat="60.111286358788" lon="21.523278770485">
        <ele>10.8</ele>
        <time>2017-07-27T12:37:25Z</time>
      </trkpt>
      <trkpt lat="60.111298344905" lon="21.523302239805">
        <ele>10.8</ele>
        <time>2017-07-27T12:37:26Z</time>
      </trkpt>
      <trkpt lat="60.111314941067" lon="21.523308610049">
        <ele>10.8</ele>
        <time>2017-07-27T12:37:27Z</time>
      </trkpt>
      <trkpt lat="60.111326256632" lon="21.523335599767">
        <ele>10.8</ele>
        <time>2017-07-27T12:37:28Z</time>
      </trkpt>
      <trkpt lat="60.111338075111" lon="21.523338281975">
        <ele>10.8</ele>
        <time>2017-07-27T12:37:29Z</time>
      </trkpt>
      <trkpt lat="60.111352994893" lon="21.523350938644">
        <ele>10.8</ele>
        <time>2017-07-27T12:37:30Z</time>
      </trkpt>
      <trkpt lat="60.111367830856" lon="21.52336049401">
        <ele>10.8</ele>
        <time>2017-07-27T12:37:31Z</time>
      </trkpt>
      <trkpt lat="60.111376296575" lon="21.523369043548">
        <ele>10.8</ele>
        <time>2017-07-27T12:37:32Z</time>
      </trkpt>
      <trkpt lat="60.111393647108" lon="21.523377593086">
        <ele>11.4</ele>
        <time>2017-07-27T12:37:33Z</time>
      </trkpt>
      <trkpt lat="60.111405968501" lon="21.523381700217">
        <ele>13</ele>
        <time>2017-07-27T12:37:34Z</time>
      </trkpt>
      <trkpt lat="60.111417451704" lon="21.52339318342">
        <ele>13</ele>
        <time>2017-07-27T12:37:35Z</time>
      </trkpt>
      <trkpt lat="60.11143455078" lon="21.523400559492">
        <ele>12.6</ele>
        <time>2017-07-27T12:37:36Z</time>
      </trkpt>
      <trkpt lat="60.111443687051" lon="21.523407851745">
        <ele>12</ele>
        <time>2017-07-27T12:37:37Z</time>
      </trkpt>
      <trkpt lat="60.111461624317" lon="21.523413551437">
        <ele>11.6</ele>
        <time>2017-07-27T12:37:38Z</time>
      </trkpt>
      <trkpt lat="60.111472101692" lon="21.52342084369">
        <ele>11.2</ele>
        <time>2017-07-27T12:37:39Z</time>
      </trkpt>
      <trkpt lat="60.111486770017" lon="21.52342754921">
        <ele>11</ele>
        <time>2017-07-27T12:37:40Z</time>
      </trkpt>
      <trkpt lat="60.111501941256" lon="21.52343760749">
        <ele>11</ele>
        <time>2017-07-27T12:37:41Z</time>
      </trkpt>
      <trkpt lat="60.111513592097" lon="21.523444732105">
        <ele>11</ele>
        <time>2017-07-27T12:37:42Z</time>
      </trkpt>
      <trkpt lat="60.11152842806" lon="21.523462669371">
        <ele>11</ele>
        <time>2017-07-27T12:37:43Z</time>
      </trkpt>
      <trkpt lat="60.11153932453" lon="21.523479600809">
        <ele>11</ele>
        <time>2017-07-27T12:37:44Z</time>
      </trkpt>
      <trkpt lat="60.11155441195" lon="21.523479768447">
        <ele>11</ele>
        <time>2017-07-27T12:37:45Z</time>
      </trkpt>
      <trkpt lat="60.111567236257" lon="21.523509105097">
        <ele>11</ele>
        <time>2017-07-27T12:37:46Z</time>
      </trkpt>
      <trkpt lat="60.111577797451" lon="21.523514301875">
        <ele>11</ele>
        <time>2017-07-27T12:37:47Z</time>
      </trkpt>
      <trkpt lat="60.111595147984" lon="21.52353232296">
        <ele>11</ele>
        <time>2017-07-27T12:37:48Z</time>
      </trkpt>
      <trkpt lat="60.111607720834" lon="21.523535927177">
        <ele>11</ele>
        <time>2017-07-27T12:37:49Z</time>
      </trkpt>
      <trkpt lat="60.111619455494" lon="21.523541459231">
        <ele>11</ele>
        <time>2017-07-27T12:37:50Z</time>
      </trkpt>
      <trkpt lat="60.111638985321" lon="21.523551936606">
        <ele>11</ele>
        <time>2017-07-27T12:37:51Z</time>
      </trkpt>
      <trkpt lat="60.111648708325" lon="21.523560402325">
        <ele>11</ele>
        <time>2017-07-27T12:37:52Z</time>
      </trkpt>
      <trkpt lat="60.111666980867" lon="21.523566772569">
        <ele>11</ele>
        <time>2017-07-27T12:37:53Z</time>
      </trkpt>
      <trkpt lat="60.111679721355" lon="21.523576244116">
        <ele>11</ele>
        <time>2017-07-27T12:37:54Z</time>
      </trkpt>
      <trkpt lat="60.111696485155" lon="21.523583368731">
        <ele>11</ele>
        <time>2017-07-27T12:37:55Z</time>
      </trkpt>
      <trkpt lat="60.11171534443" lon="21.52359518721">
        <ele>11</ele>
        <time>2017-07-27T12:37:56Z</time>
      </trkpt>
      <trkpt lat="60.111725654167" lon="21.523604239662">
        <ele>11</ele>
        <time>2017-07-27T12:37:57Z</time>
      </trkpt>
      <trkpt lat="60.111745686908" lon="21.523615555227">
        <ele>11</ele>
        <time>2017-07-27T12:37:58Z</time>
      </trkpt>
      <trkpt lat="60.111754990817" lon="21.523623266575">
        <ele>11</ele>
        <time>2017-07-27T12:37:59Z</time>
      </trkpt>
      <trkpt lat="60.111777035214" lon="21.523635504149">
        <ele>11</ele>
        <time>2017-07-27T12:38:00Z</time>
      </trkpt>
      <trkpt lat="60.111786925856" lon="21.52364547861">
        <ele>11</ele>
        <time>2017-07-27T12:38:01Z</time>
      </trkpt>
      <trkpt lat="60.11180754533" lon="21.523655788347">
        <ele>11</ele>
        <time>2017-07-27T12:38:02Z</time>
      </trkpt>
      <trkpt lat="60.111818609438" lon="21.523665762808">
        <ele>11</ele>
        <time>2017-07-27T12:38:03Z</time>
      </trkpt>
      <trkpt lat="60.111837384894" lon="21.523676659278">
        <ele>11</ele>
        <time>2017-07-27T12:38:04Z</time>
      </trkpt>
      <trkpt lat="60.111848700459" lon="21.523685544092">
        <ele>11</ele>
        <time>2017-07-27T12:38:05Z</time>
      </trkpt>
      <trkpt lat="60.111869739028" lon="21.5236966082">
        <ele>11</ele>
        <time>2017-07-27T12:38:06Z</time>
      </trkpt>
      <trkpt lat="60.111879294394" lon="21.523706834118">
        <ele>11</ele>
        <time>2017-07-27T12:38:07Z</time>
      </trkpt>
      <trkpt lat="60.111899494773" lon="21.523716138027">
        <ele>11</ele>
        <time>2017-07-27T12:38:08Z</time>
      </trkpt>
      <trkpt lat="60.111909972148" lon="21.523726447764">
        <ele>11</ele>
        <time>2017-07-27T12:38:09Z</time>
      </trkpt>
      <trkpt lat="60.111927574138" lon="21.52373767951">
        <ele>11</ele>
        <time>2017-07-27T12:38:10Z</time>
      </trkpt>
      <trkpt lat="60.111940230807" lon="21.523748408342">
        <ele>11</ele>
        <time>2017-07-27T12:38:11Z</time>
      </trkpt>
      <trkpt lat="60.111956072598" lon="21.523757293156">
        <ele>11</ele>
        <time>2017-07-27T12:38:12Z</time>
      </trkpt>
      <trkpt lat="60.111970740923" lon="21.523774643689">
        <ele>11</ele>
        <time>2017-07-27T12:38:13Z</time>
      </trkpt>
      <trkpt lat="60.111984068144" lon="21.523793167688">
        <ele>11</ele>
        <time>2017-07-27T12:38:14Z</time>
      </trkpt>
      <trkpt lat="60.112000580487" lon="21.523796855724">
        <ele>11</ele>
        <time>2017-07-27T12:38:15Z</time>
      </trkpt>
      <trkpt lat="60.112013572432" lon="21.523822504338">
        <ele>11</ele>
        <time>2017-07-27T12:38:16Z</time>
      </trkpt>
      <trkpt lat="60.112025223273" lon="21.523825940917">
        <ele>11</ele>
        <time>2017-07-27T12:38:17Z</time>
      </trkpt>
      <trkpt lat="60.112042741444" lon="21.523835831559">
        <ele>11</ele>
        <time>2017-07-27T12:38:18Z</time>
      </trkpt>
      <trkpt lat="60.112052967362" lon="21.523842704717">
        <ele>11</ele>
        <time>2017-07-27T12:38:19Z</time>
      </trkpt>
      <trkpt lat="60.112073419198" lon="21.523853014454">
        <ele>11</ele>
        <time>2017-07-27T12:38:20Z</time>
      </trkpt>
      <trkpt lat="60.112084231849" lon="21.523860641983">
        <ele>11</ele>
        <time>2017-07-27T12:38:21Z</time>
      </trkpt>
      <trkpt lat="60.112101582382" lon="21.523871286996">
        <ele>11</ele>
        <time>2017-07-27T12:38:22Z</time>
      </trkpt>
      <trkpt lat="60.112114658146" lon="21.523878746887">
        <ele>11</ele>
        <time>2017-07-27T12:38:23Z</time>
      </trkpt>
      <trkpt lat="60.112128655919" lon="21.523885033312">
        <ele>11</ele>
        <time>2017-07-27T12:38:24Z</time>
      </trkpt>
      <trkpt lat="60.112144832986" lon="21.523896181239">
        <ele>11</ele>
        <time>2017-07-27T12:38:25Z</time>
      </trkpt>
      <trkpt lat="60.112159249854" lon="21.523902635302">
        <ele>11</ele>
        <time>2017-07-27T12:38:26Z</time>
      </trkpt>
      <trkpt lat="60.112173499084" lon="21.523913196496">
        <ele>11</ele>
        <time>2017-07-27T12:38:27Z</time>
      </trkpt>
      <trkpt lat="60.112186826305" lon="21.523919399102">
        <ele>11</ele>
        <time>2017-07-27T12:38:28Z</time>
      </trkpt>
      <trkpt lat="60.112199231517" lon="21.523934737979">
        <ele>11</ele>
        <time>2017-07-27T12:38:29Z</time>
      </trkpt>
      <trkpt lat="60.112210463263" lon="21.523948149019">
        <ele>11</ele>
        <time>2017-07-27T12:38:30Z</time>
      </trkpt>
      <trkpt lat="60.1122291549" lon="21.523951669417">
        <ele>11</ele>
        <time>2017-07-27T12:38:31Z</time>
      </trkpt>
      <trkpt lat="60.112242733578" lon="21.523977234212">
        <ele>11</ele>
        <time>2017-07-27T12:38:32Z</time>
      </trkpt>
      <trkpt lat="60.112256647532" lon="21.523978994411">
        <ele>11</ele>
        <time>2017-07-27T12:38:33Z</time>
      </trkpt>
      <trkpt lat="60.11226771164" lon="21.523992405451">
        <ele>11</ele>
        <time>2017-07-27T12:38:34Z</time>
      </trkpt>
      <trkpt lat="60.112284307802" lon="21.524002631369">
        <ele>11</ele>
        <time>2017-07-27T12:38:35Z</time>
      </trkpt>
      <trkpt lat="60.112293108797" lon="21.524011851459">
        <ele>11</ele>
        <time>2017-07-27T12:38:36Z</time>
      </trkpt>
      <trkpt lat="60.112311800434" lon="21.52402266411">
        <ele>11</ele>
        <time>2017-07-27T12:38:37Z</time>
      </trkpt>
      <trkpt lat="60.112322864542" lon="21.524031968019">
        <ele>11</ele>
        <time>2017-07-27T12:38:38Z</time>
      </trkpt>
      <trkpt lat="60.112337616686" lon="21.52404110429">
        <ele>11</ele>
        <time>2017-07-27T12:38:39Z</time>
      </trkpt>
      <trkpt lat="60.112355386314" lon="21.52405200076">
        <ele>11</ele>
        <time>2017-07-27T12:38:40Z</time>
      </trkpt>
      <trkpt lat="60.112365444594" lon="21.52406122085">
        <ele>11</ele>
        <time>2017-07-27T12:38:41Z</time>
      </trkpt>
      <trkpt lat="60.112386315525" lon="21.524074212795">
        <ele>11</ele>
        <time>2017-07-27T12:38:42Z</time>
      </trkpt>
      <trkpt lat="60.112396625262" lon="21.524084271075">
        <ele>11</ele>
        <time>2017-07-27T12:38:43Z</time>
      </trkpt>
      <trkpt lat="60.112414897804" lon="21.52409810121">
        <ele>11</ele>
        <time>2017-07-27T12:38:44Z</time>
      </trkpt>
      <trkpt lat="60.11242696774" lon="21.52411235044">
        <ele>11</ele>
        <time>2017-07-27T12:38:45Z</time>
      </trkpt>
      <trkpt lat="60.112439875866" lon="21.524127018765">
        <ele>11</ele>
        <time>2017-07-27T12:38:46Z</time>
      </trkpt>
      <trkpt lat="60.112454544191" lon="21.524150488085">
        <ele>11</ele>
        <time>2017-07-27T12:38:47Z</time>
      </trkpt>
      <trkpt lat="60.112467117041" lon="21.524162474202">
        <ele>11</ele>
        <time>2017-07-27T12:38:48Z</time>
      </trkpt>
      <trkpt lat="60.112483294108" lon="21.524172951577">
        <ele>11</ele>
        <time>2017-07-27T12:38:49Z</time>
      </trkpt>
      <trkpt lat="60.112496202234" lon="21.524196420897">
        <ele>11</ele>
        <time>2017-07-27T12:38:50Z</time>
      </trkpt>
      <trkpt lat="60.112510619102" lon="21.52420203677">
        <ele>11</ele>
        <time>2017-07-27T12:38:51Z</time>
      </trkpt>
      <trkpt lat="60.112526544712" lon="21.52420874229">
        <ele>11</ele>
        <time>2017-07-27T12:38:52Z</time>
      </trkpt>
      <trkpt lat="60.112537105906" lon="21.524216034543">
        <ele>11</ele>
        <time>2017-07-27T12:38:53Z</time>
      </trkpt>
      <trkpt lat="60.112556216638" lon="21.524223997348">
        <ele>11</ele>
        <time>2017-07-27T12:38:54Z</time>
      </trkpt>
      <trkpt lat="60.112566861651" lon="21.524233133619">
        <ele>11</ele>
        <time>2017-07-27T12:38:55Z</time>
      </trkpt>
      <trkpt lat="60.112586307659" lon="21.524238246578">
        <ele>11</ele>
        <time>2017-07-27T12:38:56Z</time>
      </trkpt>
      <trkpt lat="60.112600053975" lon="21.524246963754">
        <ele>11</ele>
        <time>2017-07-27T12:38:57Z</time>
      </trkpt>
      <trkpt lat="60.112615392852" lon="21.52425065179">
        <ele>11</ele>
        <time>2017-07-27T12:38:58Z</time>
      </trkpt>
      <trkpt lat="60.112633078661" lon="21.524259536604">
        <ele>11</ele>
        <time>2017-07-27T12:38:59Z</time>
      </trkpt>
      <trkpt lat="60.112646489701" lon="21.524266828857">
        <ele>11</ele>
        <time>2017-07-27T12:39:00Z</time>
      </trkpt>
      <trkpt lat="60.11266836646" lon="21.524277976784">
        <ele>11</ele>
        <time>2017-07-27T12:39:01Z</time>
      </trkpt>
      <trkpt lat="60.112677670369" lon="21.524286610141">
        <ele>11</ele>
        <time>2017-07-27T12:39:02Z</time>
      </trkpt>
      <trkpt lat="60.112699882404" lon="21.524299518267">
        <ele>11</ele>
        <time>2017-07-27T12:39:03Z</time>
      </trkpt>
      <trkpt lat="60.112709605408" lon="21.524310414737">
        <ele>11</ele>
        <time>2017-07-27T12:39:04Z</time>
      </trkpt>
      <trkpt lat="60.112728883778" lon="21.524323658139">
        <ele>11</ele>
        <time>2017-07-27T12:39:05Z</time>
      </trkpt>
      <trkpt lat="60.112739277334" lon="21.524336314808">
        <ele>11</ele>
        <time>2017-07-27T12:39:06Z</time>
      </trkpt>
      <trkpt lat="60.112759477713" lon="21.524351318409">
        <ele>11</ele>
        <time>2017-07-27T12:39:07Z</time>
      </trkpt>
      <trkpt lat="60.112769033079" lon="21.524363388345">
        <ele>11</ele>
        <time>2017-07-27T12:39:08Z</time>
      </trkpt>
      <trkpt lat="60.112786970345" lon="21.524377469937">
        <ele>11</ele>
        <time>2017-07-27T12:39:09Z</time>
      </trkpt>
      <trkpt lat="60.112798202091" lon="21.524392054443">
        <ele>11</ele>
        <time>2017-07-27T12:39:10Z</time>
      </trkpt>
      <trkpt lat="60.11281504971" lon="21.524406890406">
        <ele>11</ele>
        <time>2017-07-27T12:39:11Z</time>
      </trkpt>
      <trkpt lat="60.112827454922" lon="21.524421307274">
        <ele>11</ele>
        <time>2017-07-27T12:39:12Z</time>
      </trkpt>
      <trkpt lat="60.112843799627" lon="21.524436562332">
        <ele>11</ele>
        <time>2017-07-27T12:39:13Z</time>
      </trkpt>
      <trkpt lat="60.112853690269" lon="21.524450224829">
        <ele>11</ele>
        <time>2017-07-27T12:39:14Z</time>
      </trkpt>
      <trkpt lat="60.112871962811" lon="21.524464725516">
        <ele>11</ele>
        <time>2017-07-27T12:39:15Z</time>
      </trkpt>
      <trkpt lat="60.112882859281" lon="21.52447863947">
        <ele>11</ele>
        <time>2017-07-27T12:39:16Z</time>
      </trkpt>
      <trkpt lat="60.112899203986" lon="21.524489871216">
        <ele>11</ele>
        <time>2017-07-27T12:39:17Z</time>
      </trkpt>
      <trkpt lat="60.112911273922" lon="21.524504204265">
        <ele>11</ele>
        <time>2017-07-27T12:39:18Z</time>
      </trkpt>
      <trkpt lat="60.112928456817" lon="21.524515938925">
        <ele>11</ele>
        <time>2017-07-27T12:39:19Z</time>
      </trkpt>
      <trkpt lat="60.112939604744" lon="21.524530104336">
        <ele>11</ele>
        <time>2017-07-27T12:39:20Z</time>
      </trkpt>
      <trkpt lat="60.112958044924" lon="21.524541168444">
        <ele>11</ele>
        <time>2017-07-27T12:39:21Z</time>
      </trkpt>
      <trkpt lat="60.112968354661" lon="21.52455323838">
        <ele>11</ele>
        <time>2017-07-27T12:39:22Z</time>
      </trkpt>
      <trkpt lat="60.112986711022" lon="21.524563631936">
        <ele>11</ele>
        <time>2017-07-27T12:39:23Z</time>
      </trkpt>
      <trkpt lat="60.112996769302" lon="21.524575366596">
        <ele>11</ele>
        <time>2017-07-27T12:39:24Z</time>
      </trkpt>
      <trkpt lat="60.113016131491" lon="21.524588358541">
        <ele>11</ele>
        <time>2017-07-27T12:39:25Z</time>
      </trkpt>
      <trkpt lat="60.113025770676" lon="21.524598249183">
        <ele>11</ele>
        <time>2017-07-27T12:39:26Z</time>
      </trkpt>
      <trkpt lat="60.113045384322" lon="21.524608139825">
        <ele>11</ele>
        <time>2017-07-27T12:39:27Z</time>
      </trkpt>
      <trkpt lat="60.113056196973" lon="21.524619203933">
        <ele>11</ele>
        <time>2017-07-27T12:39:28Z</time>
      </trkpt>
      <trkpt lat="60.113072206402" lon="21.524626496186">
        <ele>11</ele>
        <time>2017-07-27T12:39:29Z</time>
      </trkpt>
      <trkpt lat="60.113084695433" lon="21.524636554466">
        <ele>11</ele>
        <time>2017-07-27T12:39:30Z</time>
      </trkpt>
      <trkpt lat="60.113103470889" lon="21.524644768728">
        <ele>11</ele>
        <time>2017-07-27T12:39:31Z</time>
      </trkpt>
      <trkpt lat="60.113112104246" lon="21.524653234447">
        <ele>11</ele>
        <time>2017-07-27T12:39:32Z</time>
      </trkpt>
      <trkpt lat="60.11313272372" lon="21.524661197252">
        <ele>11</ele>
        <time>2017-07-27T12:39:33Z</time>
      </trkpt>
      <trkpt lat="60.113141357077" lon="21.524667567496">
        <ele>11</ele>
        <time>2017-07-27T12:39:34Z</time>
      </trkpt>
      <trkpt lat="60.11316038399" lon="21.524675530301">
        <ele>11</ele>
        <time>2017-07-27T12:39:35Z</time>
      </trkpt>
      <trkpt lat="60.113171615736" lon="21.524682235821">
        <ele>11</ele>
        <time>2017-07-27T12:39:36Z</time>
      </trkpt>
      <trkpt lat="60.113190139735" lon="21.524690785359">
        <ele>11</ele>
        <time>2017-07-27T12:39:37Z</time>
      </trkpt>
      <trkpt lat="60.113201371481" lon="21.524695143947">
        <ele>11</ele>
        <time>2017-07-27T12:39:38Z</time>
      </trkpt>
      <trkpt lat="60.113219560204" lon="21.524701430372">
        <ele>11</ele>
        <time>2017-07-27T12:39:39Z</time>
      </trkpt>
      <trkpt lat="60.113229869941" lon="21.524705369865">
        <ele>11</ele>
        <time>2017-07-27T12:39:40Z</time>
      </trkpt>
      <trkpt lat="60.113250992329" lon="21.524710315186">
        <ele>11</ele>
        <time>2017-07-27T12:39:41Z</time>
      </trkpt>
      <trkpt lat="60.113262810808" lon="21.524714003222">
        <ele>11</ele>
        <time>2017-07-27T12:39:42Z</time>
      </trkpt>
      <trkpt lat="60.113284017015" lon="21.524718445629">
        <ele>11</ele>
        <time>2017-07-27T12:39:43Z</time>
      </trkpt>
      <trkpt lat="60.113293907657" lon="21.52472255276">
        <ele>11</ele>
        <time>2017-07-27T12:39:44Z</time>
      </trkpt>
      <trkpt lat="60.113315281502" lon="21.524726995167">
        <ele>11</ele>
        <time>2017-07-27T12:39:45Z</time>
      </trkpt>
      <trkpt lat="60.113326429429" lon="21.524732024307">
        <ele>11</ele>
        <time>2017-07-27T12:39:46Z</time>
      </trkpt>
      <trkpt lat="60.113342941772" lon="21.52473847837">
        <ele>11</ele>
        <time>2017-07-27T12:39:47Z</time>
      </trkpt>
      <trkpt lat="60.113355766079" lon="21.524745854442">
        <ele>11</ele>
        <time>2017-07-27T12:39:48Z</time>
      </trkpt>
      <trkpt lat="60.113373451888" lon="21.52475188941">
        <ele>11</ele>
        <time>2017-07-27T12:39:49Z</time>
      </trkpt>
      <trkpt lat="60.11338501891" lon="21.524759768396">
        <ele>11</ele>
        <time>2017-07-27T12:39:50Z</time>
      </trkpt>
      <trkpt lat="60.113403207633" lon="21.524770748685">
        <ele>11</ele>
        <time>2017-07-27T12:39:51Z</time>
      </trkpt>
      <trkpt lat="60.113412762999" lon="21.524778376214">
        <ele>11</ele>
        <time>2017-07-27T12:39:52Z</time>
      </trkpt>
      <trkpt lat="60.113430113532" lon="21.524791451978">
        <ele>11</ele>
        <time>2017-07-27T12:39:53Z</time>
      </trkpt>
      <trkpt lat="60.113439836536" lon="21.524801258801">
        <ele>11</ele>
        <time>2017-07-27T12:39:54Z</time>
      </trkpt>
      <trkpt lat="60.113457438526" lon="21.524815256574">
        <ele>11</ele>
        <time>2017-07-27T12:39:55Z</time>
      </trkpt>
      <trkpt lat="60.113467580625" lon="21.524825398673">
        <ele>11</ele>
        <time>2017-07-27T12:39:56Z</time>
      </trkpt>
      <trkpt lat="60.113485014977" lon="21.52483906117">
        <ele>11</ele>
        <time>2017-07-27T12:39:57Z</time>
      </trkpt>
      <trkpt lat="60.113493815972" lon="21.524848951812">
        <ele>11</ele>
        <time>2017-07-27T12:39:58Z</time>
      </trkpt>
      <trkpt lat="60.113508568116" lon="21.524862865766">
        <ele>11</ele>
        <time>2017-07-27T12:39:59Z</time>
      </trkpt>
      <trkpt lat="60.11351912931" lon="21.524873929874">
        <ele>11</ele>
        <time>2017-07-27T12:40:00Z</time>
      </trkpt>
      <trkpt lat="60.113530947789" lon="21.52489186714">
        <ele>11</ele>
        <time>2017-07-27T12:40:01Z</time>
      </trkpt>
      <trkpt lat="60.113542850087" lon="21.524912989528">
        <ele>11</ele>
        <time>2017-07-27T12:40:02Z</time>
      </trkpt>
      <trkpt lat="60.113558608059" lon="21.524916007012">
        <ele>11</ele>
        <time>2017-07-27T12:40:03Z</time>
      </trkpt>
      <trkpt lat="60.113571348547" lon="21.524939560151">
        <ele>11</ele>
        <time>2017-07-27T12:40:04Z</time>
      </trkpt>
      <trkpt lat="60.113581239189" lon="21.524944924567">
        <ele>11</ele>
        <time>2017-07-27T12:40:05Z</time>
      </trkpt>
      <trkpt lat="60.11359708098" lon="21.524954228476">
        <ele>11</ele>
        <time>2017-07-27T12:40:06Z</time>
      </trkpt>
      <trkpt lat="60.11360630107" lon="21.52496143691">
        <ele>11</ele>
        <time>2017-07-27T12:40:07Z</time>
      </trkpt>
      <trkpt lat="60.113622729594" lon="21.524972081923">
        <ele>11</ele>
        <time>2017-07-27T12:40:08Z</time>
      </trkpt>
      <trkpt lat="60.113631279132" lon="21.524978703624">
        <ele>11</ele>
        <time>2017-07-27T12:40:09Z</time>
      </trkpt>
      <trkpt lat="60.113649384036" lon="21.524987839895">
        <ele>11</ele>
        <time>2017-07-27T12:40:10Z</time>
      </trkpt>
      <trkpt lat="60.113657598298" lon="21.524992114664">
        <ele>11</ele>
        <time>2017-07-27T12:40:11Z</time>
      </trkpt>
      <trkpt lat="60.113675367926" lon="21.525001837668">
        <ele>11</ele>
        <time>2017-07-27T12:40:12Z</time>
      </trkpt>
      <trkpt lat="60.113685677663" lon="21.525005525704">
        <ele>11</ele>
        <time>2017-07-27T12:40:13Z</time>
      </trkpt>
      <trkpt lat="60.113702022368" lon="21.525012901776">
        <ele>11</ele>
        <time>2017-07-27T12:40:14Z</time>
      </trkpt>
      <trkpt lat="60.113712835019" lon="21.525018350011">
        <ele>11</ele>
        <time>2017-07-27T12:40:15Z</time>
      </trkpt>
      <trkpt lat="60.113730017914" lon="21.525026228997">
        <ele>11</ele>
        <time>2017-07-27T12:40:16Z</time>
      </trkpt>
      <trkpt lat="60.113738315995" lon="21.525031928689">
        <ele>11</ele>
        <time>2017-07-27T12:40:17Z</time>
      </trkpt>
      <trkpt lat="60.113758181098" lon="21.525040729684">
        <ele>11</ele>
        <time>2017-07-27T12:40:18Z</time>
      </trkpt>
      <trkpt lat="60.113766730636" lon="21.525044669177">
        <ele>11</ele>
        <time>2017-07-27T12:40:19Z</time>
      </trkpt>
      <trkpt lat="60.113784416445" lon="21.525056487656">
        <ele>11</ele>
        <time>2017-07-27T12:40:20Z</time>
      </trkpt>
      <trkpt lat="60.113794223268" lon="21.525060846244">
        <ele>11</ele>
        <time>2017-07-27T12:40:21Z</time>
      </trkpt>
      <trkpt lat="60.113811406163" lon="21.525070736886">
        <ele>11</ele>
        <time>2017-07-27T12:40:22Z</time>
      </trkpt>
      <trkpt lat="60.113821129167" lon="21.525075179293">
        <ele>11</ele>
        <time>2017-07-27T12:40:23Z</time>
      </trkpt>
      <trkpt lat="60.113837054777" lon="21.525084986116">
        <ele>11</ele>
        <time>2017-07-27T12:40:24Z</time>
      </trkpt>
      <trkpt lat="60.113849292351" lon="21.525089344704">
        <ele>11</ele>
        <time>2017-07-27T12:40:25Z</time>
      </trkpt>
      <trkpt lat="60.113865469418" lon="21.525099654441">
        <ele>11</ele>
        <time>2017-07-27T12:40:26Z</time>
      </trkpt>
      <trkpt lat="60.113877120259" lon="21.525105940866">
        <ele>11</ele>
        <time>2017-07-27T12:40:27Z</time>
      </trkpt>
      <trkpt lat="60.113891034213" lon="21.525117256431">
        <ele>11</ele>
        <time>2017-07-27T12:40:28Z</time>
      </trkpt>
      <trkpt lat="60.113903187968" lon="21.525120944467">
        <ele>11</ele>
        <time>2017-07-27T12:40:29Z</time>
      </trkpt>
      <trkpt lat="60.113917353379" lon="21.52513410405">
        <ele>10.8</ele>
        <time>2017-07-27T12:40:30Z</time>
      </trkpt>
      <trkpt lat="60.113929339496" lon="21.525148437099">
        <ele>10.4</ele>
        <time>2017-07-27T12:40:31Z</time>
      </trkpt>
      <trkpt lat="60.113945516563" lon="21.525152711868">
        <ele>10.4</ele>
        <time>2017-07-27T12:40:32Z</time>
      </trkpt>
      <trkpt lat="60.113957251223" lon="21.52516679346">
        <ele>10.6</ele>
        <time>2017-07-27T12:40:33Z</time>
      </trkpt>
      <trkpt lat="60.11397007553" lon="21.525170816772">
        <ele>10.8</ele>
        <time>2017-07-27T12:40:34Z</time>
      </trkpt>
      <trkpt lat="60.113984240941" lon="21.525173415161">
        <ele>11</ele>
        <time>2017-07-27T12:40:35Z</time>
      </trkpt>
      <trkpt lat="60.113998322533" lon="21.52517349898">
        <ele>11</ele>
        <time>2017-07-27T12:40:36Z</time>
      </trkpt>
      <trkpt lat="60.114008548451" lon="21.52517936631">
        <ele>11.2</ele>
        <time>2017-07-27T12:40:37Z</time>
      </trkpt>
      <trkpt lat="60.114024222604" lon="21.525178611939">
        <ele>11.4</ele>
        <time>2017-07-27T12:40:38Z</time>
      </trkpt>
      <trkpt lat="60.11403377797" lon="21.525182467613">
        <ele>11.4</ele>
        <time>2017-07-27T12:40:39Z</time>
      </trkpt>
      <trkpt lat="60.114049452123" lon="21.525179282491">
        <ele>11.4</ele>
        <time>2017-07-27T12:40:40Z</time>
      </trkpt>
      <trkpt lat="60.114060851507" lon="21.525181713242">
        <ele>11.4</ele>
        <time>2017-07-27T12:40:41Z</time>
      </trkpt>
      <trkpt lat="60.114076274203" lon="21.52517768993">
        <ele>11.4</ele>
        <time>2017-07-27T12:40:42Z</time>
      </trkpt>
      <trkpt lat="60.114089266148" lon="21.5251802045">
        <ele>11.4</ele>
        <time>2017-07-27T12:40:43Z</time>
      </trkpt>
      <trkpt lat="60.114102341912" lon="21.52517685174">
        <ele>11.4</ele>
        <time>2017-07-27T12:40:44Z</time>
      </trkpt>
      <trkpt lat="60.114117010237" lon="21.525179450129">
        <ele>11.4</ele>
        <time>2017-07-27T12:40:45Z</time>
      </trkpt>
      <trkpt lat="60.114131678562" lon="21.525178947215">
        <ele>11.4</ele>
        <time>2017-07-27T12:40:46Z</time>
      </trkpt>
      <trkpt lat="60.114142826489" lon="21.525183641079">
        <ele>11.4</ele>
        <time>2017-07-27T12:40:47Z</time>
      </trkpt>
      <trkpt lat="60.114160596117" lon="21.525187329115">
        <ele>11.4</ele>
        <time>2017-07-27T12:40:48Z</time>
      </trkpt>
      <trkpt lat="60.114170486759" lon="21.525193028807">
        <ele>11.4</ele>
        <time>2017-07-27T12:40:49Z</time>
      </trkpt>
      <trkpt lat="60.114186831464" lon="21.525198141766">
        <ele>11.4</ele>
        <time>2017-07-27T12:40:50Z</time>
      </trkpt>
      <trkpt lat="60.114197727934" lon="21.525208367684">
        <ele>11.4</ele>
        <time>2017-07-27T12:40:51Z</time>
      </trkpt>
      <trkpt lat="60.114211893345" lon="21.525213229186">
        <ele>11.4</ele>
        <time>2017-07-27T12:40:52Z</time>
      </trkpt>
      <trkpt lat="60.114223711824" lon="21.525225718217">
        <ele>11.4</ele>
        <time>2017-07-27T12:40:53Z</time>
      </trkpt>
      <trkpt lat="60.114236703769" lon="21.525231166452">
        <ele>11.4</ele>
        <time>2017-07-27T12:40:54Z</time>
      </trkpt>
      <trkpt lat="60.114249025162" lon="21.525244074578">
        <ele>11.4</ele>
        <time>2017-07-27T12:40:55Z</time>
      </trkpt>
      <trkpt lat="60.114264364039" lon="21.525253881401">
        <ele>11.4</ele>
        <time>2017-07-27T12:40:56Z</time>
      </trkpt>
      <trkpt lat="60.114274925233" lon="21.525266370432">
        <ele>11.4</ele>
        <time>2017-07-27T12:40:57Z</time>
      </trkpt>
      <trkpt lat="60.11429026411" lon="21.525276847807">
        <ele>11.4</ele>
        <time>2017-07-27T12:40:58Z</time>
      </trkpt>
      <trkpt lat="60.114298478372" lon="21.525287660458">
        <ele>11.4</ele>
        <time>2017-07-27T12:40:59Z</time>
      </trkpt>
      <trkpt lat="60.114316248" lon="21.525300149489">
        <ele>11.4</ele>
        <time>2017-07-27T12:41:00Z</time>
      </trkpt>
      <trkpt lat="60.114324797538" lon="21.525311465054">
        <ele>11.4</ele>
        <time>2017-07-27T12:41:01Z</time>
      </trkpt>
      <trkpt lat="60.114340136415" lon="21.52532185861">
        <ele>11.4</ele>
        <time>2017-07-27T12:41:02Z</time>
      </trkpt>
      <trkpt lat="60.114349943238" lon="21.525334263822">
        <ele>11.4</ele>
        <time>2017-07-27T12:41:03Z</time>
      </trkpt>
      <trkpt lat="60.114366204124" lon="21.525341807532">
        <ele>11.4</ele>
        <time>2017-07-27T12:41:04Z</time>
      </trkpt>
      <trkpt lat="60.1143749213" lon="21.525352787821">
        <ele>11.4</ele>
        <time>2017-07-27T12:41:05Z</time>
      </trkpt>
      <trkpt lat="60.114392690928" lon="21.525361169721">
        <ele>11.4</ele>
        <time>2017-07-27T12:41:06Z</time>
      </trkpt>
      <trkpt lat="60.11440174338" lon="21.525369467802">
        <ele>11.4</ele>
        <time>2017-07-27T12:41:07Z</time>
      </trkpt>
      <trkpt lat="60.114419177732" lon="21.525378184978">
        <ele>11.4</ele>
        <time>2017-07-27T12:41:08Z</time>
      </trkpt>
      <trkpt lat="60.114427308175" lon="21.525384387584">
        <ele>11.4</ele>
        <time>2017-07-27T12:41:09Z</time>
      </trkpt>
      <trkpt lat="60.114446418907" lon="21.525394864959">
        <ele>11.4</ele>
        <time>2017-07-27T12:41:10Z</time>
      </trkpt>
      <trkpt lat="60.114455303721" lon="21.525401402841">
        <ele>11.4</ele>
        <time>2017-07-27T12:41:11Z</time>
      </trkpt>
      <trkpt lat="60.114473073349" lon="21.525411042026">
        <ele>11.4</ele>
        <time>2017-07-27T12:41:12Z</time>
      </trkpt>
      <trkpt lat="60.114483215448" lon="21.525416993175">
        <ele>11.4</ele>
        <time>2017-07-27T12:41:13Z</time>
      </trkpt>
      <trkpt lat="60.114499057239" lon="21.525428560197">
        <ele>11.4</ele>
        <time>2017-07-27T12:41:14Z</time>
      </trkpt>
      <trkpt lat="60.114510540442" lon="21.525435349536">
        <ele>11.4</ele>
        <time>2017-07-27T12:41:15Z</time>
      </trkpt>
      <trkpt lat="60.11452328093" lon="21.525450185499">
        <ele>11.4</ele>
        <time>2017-07-27T12:41:16Z</time>
      </trkpt>
      <trkpt lat="60.114534764133" lon="21.525466111109">
        <ele>11.4</ele>
        <time>2017-07-27T12:41:17Z</time>
      </trkpt>
      <trkpt lat="60.11454926482" lon="21.525465608195">
        <ele>11.4</ele>
        <time>2017-07-27T12:41:18Z</time>
      </trkpt>
      <trkpt lat="60.114562256765" lon="21.525488239325">
        <ele>11.4</ele>
        <time>2017-07-27T12:41:19Z</time>
      </trkpt>
      <trkpt lat="60.114574745796" lon="21.525488071687">
        <ele>11.4</ele>
        <time>2017-07-27T12:41:20Z</time>
      </trkpt>
      <trkpt lat="60.114591593415" lon="21.525490586257">
        <ele>11.4</ele>
        <time>2017-07-27T12:41:21Z</time>
      </trkpt>
      <trkpt lat="60.11460039441" lon="21.525498213786">
        <ele>11.4</ele>
        <time>2017-07-27T12:41:22Z</time>
      </trkpt>
      <trkpt lat="60.114616403839" lon="21.525500225442">
        <ele>11.4</ele>
        <time>2017-07-27T12:41:23Z</time>
      </trkpt>
      <trkpt lat="60.114627384128" lon="21.525507266238">
        <ele>11.4</ele>
        <time>2017-07-27T12:41:24Z</time>
      </trkpt>
      <trkpt lat="60.114644147928" lon="21.52550793679">
        <ele>11.4</ele>
        <time>2017-07-27T12:41:25Z</time>
      </trkpt>
      <trkpt lat="60.114653954751" lon="21.525512714473">
        <ele>11.4</ele>
        <time>2017-07-27T12:41:26Z</time>
      </trkpt>
      <trkpt lat="60.114671137646" lon="21.525519000898">
        <ele>11.4</ele>
        <time>2017-07-27T12:41:27Z</time>
      </trkpt>
      <trkpt lat="60.114685722152" lon="21.525525203504">
        <ele>11.4</ele>
        <time>2017-07-27T12:41:28Z</time>
      </trkpt>
      <trkpt lat="60.114697121536" lon="21.525530232644">
        <ele>11.4</ele>
        <time>2017-07-27T12:41:29Z</time>
      </trkpt>
      <trkpt lat="60.114707850368" lon="21.525530400282">
        <ele>11.4</ele>
        <time>2017-07-27T12:41:30Z</time>
      </trkpt>
      <trkpt lat="60.114722351055" lon="21.525542218761">
        <ele>11.4</ele>
        <time>2017-07-27T12:41:31Z</time>
      </trkpt>
      <trkpt lat="60.11473199024" lon="21.525547918453">
        <ele>11.4</ele>
        <time>2017-07-27T12:41:32Z</time>
      </trkpt>
      <trkpt lat="60.114749005497" lon="21.525561497131">
        <ele>11.4</ele>
        <time>2017-07-27T12:41:33Z</time>
      </trkpt>
      <trkpt lat="60.114757052121" lon="21.525568873203">
        <ele>11.4</ele>
        <time>2017-07-27T12:41:34Z</time>
      </trkpt>
      <trkpt lat="60.114770295523" lon="21.525578177112">
        <ele>11.4</ele>
        <time>2017-07-27T12:41:35Z</time>
      </trkpt>
      <trkpt lat="60.114782616916" lon="21.525589157401">
        <ele>11.4</ele>
        <time>2017-07-27T12:41:36Z</time>
      </trkpt>
      <trkpt lat="60.11479653087" lon="21.525592342523">
        <ele>11.4</ele>
        <time>2017-07-27T12:41:37Z</time>
      </trkpt>
      <trkpt lat="60.114807175883" lon="21.525603071355">
        <ele>11.4</ele>
        <time>2017-07-27T12:41:38Z</time>
      </trkpt>
      <trkpt lat="60.114820670742" lon="21.525607010848">
        <ele>11.4</ele>
        <time>2017-07-27T12:41:39Z</time>
      </trkpt>
      <trkpt lat="60.114831567212" lon="21.525615392748">
        <ele>11.4</ele>
        <time>2017-07-27T12:41:40Z</time>
      </trkpt>
      <trkpt lat="60.114846654632" lon="21.52562528339">
        <ele>11.4</ele>
        <time>2017-07-27T12:41:41Z</time>
      </trkpt>
      <trkpt lat="60.114860149491" lon="21.525631318358">
        <ele>11.4</ele>
        <time>2017-07-27T12:41:42Z</time>
      </trkpt>
      <trkpt lat="60.114871632694" lon="21.525639448801">
        <ele>11.4</ele>
        <time>2017-07-27T12:41:43Z</time>
      </trkpt>
      <trkpt lat="60.114884289363" lon="21.525641544276">
        <ele>11.4</ele>
        <time>2017-07-27T12:41:44Z</time>
      </trkpt>
      <trkpt lat="60.114892671263" lon="21.525647830701">
        <ele>11.4</ele>
        <time>2017-07-27T12:41:45Z</time>
      </trkpt>
      <trkpt lat="60.114907591045" lon="21.525655122954">
        <ele>11.4</ele>
        <time>2017-07-27T12:41:46Z</time>
      </trkpt>
      <trkpt lat="60.114917397868" lon="21.525662582845">
        <ele>11.4</ele>
        <time>2017-07-27T12:41:47Z</time>
      </trkpt>
      <trkpt lat="60.114931647098" lon="21.52567222203">
        <ele>11.4</ele>
        <time>2017-07-27T12:41:48Z</time>
      </trkpt>
      <trkpt lat="60.114943130301" lon="21.525678508455">
        <ele>11.4</ele>
        <time>2017-07-27T12:41:49Z</time>
      </trkpt>
      <trkpt lat="60.114953942952" lon="21.525688482916">
        <ele>11.4</ele>
        <time>2017-07-27T12:41:50Z</time>
      </trkpt>
      <trkpt lat="60.114964420327" lon="21.52570239687">
        <ele>11.4</ele>
        <time>2017-07-27T12:41:51Z</time>
      </trkpt>
      <trkpt lat="60.114973891874" lon="21.525714634444">
        <ele>11.4</ele>
        <time>2017-07-27T12:41:52Z</time>
      </trkpt>
      <trkpt lat="60.114982860507" lon="21.525732404072">
        <ele>11.4</ele>
        <time>2017-07-27T12:41:53Z</time>
      </trkpt>
      <trkpt lat="60.11499182914" lon="21.525743049085">
        <ele>11.4</ele>
        <time>2017-07-27T12:41:54Z</time>
      </trkpt>
      <trkpt lat="60.115000462497" lon="21.525760064342">
        <ele>11.4</ele>
        <time>2017-07-27T12:41:55Z</time>
      </trkpt>
      <trkpt lat="60.115006832741" lon="21.525768194785">
        <ele>11.4</ele>
        <time>2017-07-27T12:41:56Z</time>
      </trkpt>
      <trkpt lat="60.115013370623" lon="21.525785712956">
        <ele>11.4</ele>
        <time>2017-07-27T12:41:57Z</time>
      </trkpt>
      <trkpt lat="60.115021584885" lon="21.525805997154">
        <ele>11.4</ele>
        <time>2017-07-27T12:41:58Z</time>
      </trkpt>
      <trkpt lat="60.115032229898" lon="21.525816223072">
        <ele>11.4</ele>
        <time>2017-07-27T12:41:59Z</time>
      </trkpt>
      <trkpt lat="60.115038432504" lon="21.525841452591">
        <ele>11.4</ele>
        <time>2017-07-27T12:42:00Z</time>
      </trkpt>
      <trkpt lat="60.115050670078" lon="21.525857378201">
        <ele>11.4</ele>
        <time>2017-07-27T12:42:01Z</time>
      </trkpt>
      <trkpt lat="60.115055866856" lon="21.525875231648">
        <ele>11.4</ele>
        <time>2017-07-27T12:42:02Z</time>
      </trkpt>
      <trkpt lat="60.115068355887" lon="21.525890486706">
        <ele>11.4</ele>
        <time>2017-07-27T12:42:03Z</time>
      </trkpt>
      <trkpt lat="60.115080090547" lon="21.525900880262">
        <ele>11.4</ele>
        <time>2017-07-27T12:42:04Z</time>
      </trkpt>
      <trkpt lat="60.115088807723" lon="21.525907921058">
        <ele>11.4</ele>
        <time>2017-07-27T12:42:05Z</time>
      </trkpt>
      <trkpt lat="60.115103559867" lon="21.525922505564">
        <ele>11.4</ele>
        <time>2017-07-27T12:42:06Z</time>
      </trkpt>
      <trkpt lat="60.115113785785" lon="21.525929965455">
        <ele>11.4</ele>
        <time>2017-07-27T12:42:07Z</time>
      </trkpt>
      <trkpt lat="60.115129627576" lon="21.525943125038">
        <ele>11.4</ele>
        <time>2017-07-27T12:42:08Z</time>
      </trkpt>
      <trkpt lat="60.1151376742" lon="21.525950584929">
        <ele>11.4</ele>
        <time>2017-07-27T12:42:09Z</time>
      </trkpt>
      <trkpt lat="60.115155360009" lon="21.52596391215">
        <ele>11.4</ele>
        <time>2017-07-27T12:42:10Z</time>
      </trkpt>
      <trkpt lat="60.115163238995" lon="21.525974305706">
        <ele>11.4</ele>
        <time>2017-07-27T12:42:11Z</time>
      </trkpt>
      <trkpt lat="60.115179248424" lon="21.52598821966">
        <ele>11.4</ele>
        <time>2017-07-27T12:42:12Z</time>
      </trkpt>
      <trkpt lat="60.115189139066" lon="21.526002804166">
        <ele>11.4</ele>
        <time>2017-07-27T12:42:13Z</time>
      </trkpt>
      <trkpt lat="60.115197604785" lon="21.526018478319">
        <ele>11.4</ele>
        <time>2017-07-27T12:42:14Z</time>
      </trkpt>
      <trkpt lat="60.11520892035" lon="21.526034739205">
        <ele>11.4</ele>
        <time>2017-07-27T12:42:15Z</time>
      </trkpt>
      <trkpt lat="60.115222415209" lon="21.526053430842">
        <ele>11.4</ele>
        <time>2017-07-27T12:42:16Z</time>
      </trkpt>
      <trkpt lat="60.115227611987" lon="21.526067931529">
        <ele>11.4</ele>
        <time>2017-07-27T12:42:17Z</time>
      </trkpt>
      <trkpt lat="60.115242364131" lon="21.526083354225">
        <ele>11.4</ele>
        <time>2017-07-27T12:42:18Z</time>
      </trkpt>
      <trkpt lat="60.115250326936" lon="21.526099112197">
        <ele>11.4</ele>
        <time>2017-07-27T12:42:19Z</time>
      </trkpt>
      <trkpt lat="60.115264073252" lon="21.526114451074">
        <ele>11.4</ele>
        <time>2017-07-27T12:42:20Z</time>
      </trkpt>
      <trkpt lat="60.115269772944" lon="21.526126101915">
        <ele>11.4</ele>
        <time>2017-07-27T12:42:21Z</time>
      </trkpt>
      <trkpt lat="60.115283351622" lon="21.526140183507">
        <ele>11.4</ele>
        <time>2017-07-27T12:42:22Z</time>
      </trkpt>
      <trkpt lat="60.115292906988" lon="21.526152923995">
        <ele>11</ele>
        <time>2017-07-27T12:42:23Z</time>
      </trkpt>
      <trkpt lat="60.115303887277" lon="21.52616340137">
        <ele>10.6</ele>
        <time>2017-07-27T12:42:24Z</time>
      </trkpt>
      <trkpt lat="60.115317465955" lon="21.52617932698">
        <ele>10.2</ele>
        <time>2017-07-27T12:42:25Z</time>
      </trkpt>
      <trkpt lat="60.115325931674" lon="21.526189301441">
        <ele>9.8</ele>
        <time>2017-07-27T12:42:26Z</time>
      </trkpt>
      <trkpt lat="60.115341941103" lon="21.526206651974">
        <ele>9.4</ele>
        <time>2017-07-27T12:42:27Z</time>
      </trkpt>
      <trkpt lat="60.115349652451" lon="21.526218302815">
        <ele>9.4</ele>
        <time>2017-07-27T12:42:28Z</time>
      </trkpt>
      <trkpt lat="60.115364488414" lon="21.526234479882">
        <ele>9.4</ele>
        <time>2017-07-27T12:42:29Z</time>
      </trkpt>
      <trkpt lat="60.115373540866" lon="21.526248812931">
        <ele>9.4</ele>
        <time>2017-07-27T12:42:30Z</time>
      </trkpt>
      <trkpt lat="60.115387790096" lon="21.526267839844">
        <ele>9.4</ele>
        <time>2017-07-27T12:42:31Z</time>
      </trkpt>
      <trkpt lat="60.11539499853" lon="21.526284184549">
        <ele>9.4</ele>
        <time>2017-07-27T12:42:32Z</time>
      </trkpt>
      <trkpt lat="60.115407487561" lon="21.526302876186">
        <ele>9.4</ele>
        <time>2017-07-27T12:42:33Z</time>
      </trkpt>
      <trkpt lat="60.115416707651" lon="21.526321986918">
        <ele>9.4</ele>
        <time>2017-07-27T12:42:34Z</time>
      </trkpt>
      <trkpt lat="60.115428693768" lon="21.526342019659">
        <ele>9.4</ele>
        <time>2017-07-27T12:42:35Z</time>
      </trkpt>
      <trkpt lat="60.11543690803" lon="21.526360795115">
        <ele>9.4</ele>
        <time>2017-07-27T12:42:36Z</time>
      </trkpt>
      <trkpt lat="60.115447553043" lon="21.526380241123">
        <ele>9.4</ele>
        <time>2017-07-27T12:42:37Z</time>
      </trkpt>
      <trkpt lat="60.115454761477" lon="21.526404129538">
        <ele>9.4</ele>
        <time>2017-07-27T12:42:38Z</time>
      </trkpt>
      <trkpt lat="60.115461802273" lon="21.52641988751">
        <ele>9.4</ele>
        <time>2017-07-27T12:42:39Z</time>
      </trkpt>
      <trkpt lat="60.115471357639" lon="21.526455007671">
        <ele>9.4</ele>
        <time>2017-07-27T12:42:40Z</time>
      </trkpt>
      <trkpt lat="60.115478649892" lon="21.52647269348">
        <ele>9.4</ele>
        <time>2017-07-27T12:42:41Z</time>
      </trkpt>
      <trkpt lat="60.115490636009" lon="21.526495995162">
        <ele>9.4</ele>
        <time>2017-07-27T12:42:42Z</time>
      </trkpt>
      <trkpt lat="60.115494072588" lon="21.526523152518">
        <ele>9.4</ele>
        <time>2017-07-27T12:42:43Z</time>
      </trkpt>
      <trkpt lat="60.115503041221" lon="21.526529355124">
        <ele>9.4</ele>
        <time>2017-07-27T12:42:44Z</time>
      </trkpt>
      <trkpt lat="60.115512680406" lon="21.526560284335">
        <ele>9.4</ele>
        <time>2017-07-27T12:42:45Z</time>
      </trkpt>
      <trkpt lat="60.115522068134" lon="21.526568833873">
        <ele>9.4</ele>
        <time>2017-07-27T12:42:46Z</time>
      </trkpt>
      <trkpt lat="60.115534724803" lon="21.526587190234">
        <ele>9.4</ele>
        <time>2017-07-27T12:42:47Z</time>
      </trkpt>
      <trkpt lat="60.115544699264" lon="21.526607809708">
        <ele>9.4</ele>
        <time>2017-07-27T12:42:48Z</time>
      </trkpt>
      <trkpt lat="60.115557188295" lon="21.526610575735">
        <ele>9.4</ele>
        <time>2017-07-27T12:42:49Z</time>
      </trkpt>
      <trkpt lat="60.115569928783" lon="21.52663446415">
        <ele>9.4</ele>
        <time>2017-07-27T12:42:50Z</time>
      </trkpt>
      <trkpt lat="60.115579651787" lon="21.526630105562">
        <ele>9.4</ele>
        <time>2017-07-27T12:42:51Z</time>
      </trkpt>
      <trkpt lat="60.115596415587" lon="21.526638990376">
        <ele>9.4</ele>
        <time>2017-07-27T12:42:52Z</time>
      </trkpt>
      <trkpt lat="60.11560370784" lon="21.526642343136">
        <ele>9.4</ele>
        <time>2017-07-27T12:42:53Z</time>
      </trkpt>
      <trkpt lat="60.115621812744" lon="21.526644019516">
        <ele>9.4</ele>
        <time>2017-07-27T12:42:54Z</time>
      </trkpt>
      <trkpt lat="60.115632541576" lon="21.526648797199">
        <ele>9.4</ele>
        <time>2017-07-27T12:42:55Z</time>
      </trkpt>
      <trkpt lat="60.11564813191" lon="21.526650222122">
        <ele>9.4</ele>
        <time>2017-07-27T12:42:56Z</time>
      </trkpt>
      <trkpt lat="60.115661626769" lon="21.526654329253">
        <ele>9.4</ele>
        <time>2017-07-27T12:42:57Z</time>
      </trkpt>
      <trkpt lat="60.115675121628" lon="21.526656760004">
        <ele>9.4</ele>
        <time>2017-07-27T12:42:58Z</time>
      </trkpt>
      <trkpt lat="60.115688113573" lon="21.526662375877">
        <ele>9.6</ele>
        <time>2017-07-27T12:42:59Z</time>
      </trkpt>
      <trkpt lat="60.115702362803" lon="21.526667740293">
        <ele>10</ele>
        <time>2017-07-27T12:43:00Z</time>
      </trkpt>
      <trkpt lat="60.115716528214" lon="21.526677379478">
        <ele>10.4</ele>
        <time>2017-07-27T12:43:01Z</time>
      </trkpt>
      <trkpt lat="60.115726502675" lon="21.526682492437">
        <ele>10.8</ele>
        <time>2017-07-27T12:43:02Z</time>
      </trkpt>
      <trkpt lat="60.115739997534" lon="21.526691963984">
        <ele>11.2</ele>
        <time>2017-07-27T12:43:03Z</time>
      </trkpt>
      <trkpt lat="60.115750474909" lon="21.526697244581">
        <ele>11.4</ele>
        <time>2017-07-27T12:43:04Z</time>
      </trkpt>
    </trkseg>
  </trk>
</gpx>